ECMWFNIL_sfc_dewp_003.txt.gz
Dewpoint
55 56 55 54 54 54 55 55 55 55 55 55 54 56 55 57 56 56 55 55 54 53 53 53 52 51 50 50 49 46 46 49 47 47 47 47 47 47 46 46 47 45
56 56 55 55 54 54 54 55 56 54 55 56 56 56 57 57 57 55 54 54 54 53 52 52 51 50 49 47 48 47 46 48 48 48 48 48 47 47 47 47 46 46
55 55 55 55 54 55 55 55 55 55 54 55 57 57 56 57 57 56 55 54 53 53 53 52 51 49 48 48 48 47 47 47 47 47 47 47 46 46 47 46 45 46
54 55 55 55 55 54 55 54 54 54 54 54 55 56 56 57 57 55 55 54 53 53 53 52 51 49 48 48 49 47 47 47 46 47 46 46 45 45 46 46 45 45
54 54 54 54 54 54 54 53 53 53 53 53 55 55 55 56 56 54 54 54 54 52 52 51 50 50 49 48 48 47 47 46 46 45 44 45 45 45 45 45 44 44
53 52 52 53 53 53 52 52 52 53 53 54 54 54 55 55 55 54 54 53 53 52 51 50 49 48 48 48 48 47 46 45 45 44 42 43 43 44 41 44 44 43
54 53 53 53 54 53 53 53 53 53 53 53 53 54 55 55 54 53 52 52 52 50 49 49 48 48 48 48 46 46 45 45 44 42 41 41 42 42 41 42 40 40
54 54 53 53 54 54 52 52 52 52 53 52 52 53 54 53 53 54 53 52 51 49 48 47 46 46 47 46 45 45 45 45 44 42 41 41 42 40 40 41 42 40
54 53 53 53 54 53 53 51 52 53 52 52 52 53 53 53 53 53 52 51 50 49 47 46 46 46 47 46 45 44 42 44 44 43 42 42 41 40 37 39 40 40
54 53 53 53 53 53 53 53 53 52 52 52 51 52 51 53 53 52 51 51 49 47 46 46 45 46 45 44 42 42 42 42 42 43 42 42 40 39 38 40 39 39
55 54 54 54 54 53 54 53 53 52 52 50 52 51 51 52 52 51 51 49 49 46 46 45 44 44 43 43 44 44 42 42 41 41 42 41 41 41 40 40 39 39
54 54 53 53 53 53 54 53 53 52 52 51 50 50 51 51 51 50 49 47 46 45 45 44 43 43 42 42 42 42 43 43 42 41 41 39 39 39 38 39 40 38
53 53 53 53 54 54 54 53 52 52 51 50 50 50 50 50 50 49 49 47 45 45 44 44 43 42 43 42 41 40 40 40 40 39 38 39 37 36 36 37 37 37
53 54 54 54 54 53 53 53 52 52 50 50 50 50 50 49 48 48 48 46 46 44 44 44 43 42 41 41 40 40 39 37 36 36 35 35 37 35 36 35 35 36
54 54 54 53 53 53 53 52 52 51 51 50 50 51 50 48 49 47 46 45 45 45 44 44 43 43 41 41 39 36 33 33 33 32 34 34 34 33 34 34 34 34
53 54 53 53 52 52 52 52 52 52 51 50 49 48 49 48 47 46 45 44 44 44 44 45 44 43 43 40 37 31 31 31 34 34 33 33 33 33 33 33 33 34
53 53 53 52 52 52 52 52 51 52 51 50 50 48 49 48 50 45 45 44 43 43 43 44 43 41 39 37 38 38 34 34 32 33 33 33 33 33 32 32 32 30
51 52 52 52 51 51 51 51 51 50 49 47 49 48 48 48 46 45 46 46 45 43 43 43 42 40 36 37 37 37 38 33 33 33 33 32 32 31 30 31 31 33
49 52 52 52 51 51 51 50 49 48 48 48 49 49 49 48 46 46 45 45 44 42 42 42 39 37 36 36 37 36 37 37 29 32 31 31 32 32 32 32 32 32
48 49 52 52 51 51 50 49 48 47 49 48 48 47 47 47 47 46 45 44 43 43 42 41 37 37 36 36 36 36 36 36 31 33 33 32 31 31 33 33 32 32
47 48 51 51 51 50 49 48 48 49 48 48 47 47 47 46 46 45 45 45 44 43 42 39 37 36 35 35 35 35 35 35 33 35 33 33 34 34 34 33 32 33
47 48 50 51 51 49 48 48 49 49 48 49 48 48 48 47 46 45 44 44 44 43 41 38 37 35 35 35 35 35 35 34 32 34 33 32 32 33 32 32 31 32
46 48 49 50 50 49 48 48 48 48 48 47 47 47 47 47 46 45 43 43 42 40 39 37 35 35 34 35 35 34 35 30 33 31 31 32 32 32 31 32 33 32
46 47 49 49 50 49 48 48 48 48 48 47 47 48 47 45 46 45 44 42 40 39 38 37 36 36 34 34 34 34 35 31 30 30 31 31 30 32 33 32 32 35
46 48 49 49 49 49 49 49 48 48 47 48 48 46 46 44 44 44 43 41 39 39 39 37 37 36 34 33 34 34 35 32 30 28 30 30 30 30 32 33 32 33
46 48 49 49 49 49 49 48 48 47 47 45 44 43 43 43 45 42 42 40 39 37 38 38 37 37 36 33 33 34 35 33 30 29 29 30 30 29 31 32 32 32

ECMWFNIL_sfc_dewp_009.txt.gz
Dewpoint
51 52 50 49 49 50 51 51 50 51 49 49 49 50 49 51 49 52 52 52 51 50 50 50 50 51 50 50 50 47 49 51 51 51 50 50 49 50 49 48 50 46
54 52 51 51 48 50 50 51 52 51 49 51 50 50 52 51 50 52 52 52 51 51 50 50 50 49 49 48 50 48 48 51 49 49 52 52 50 50 51 51 48 48
54 54 53 52 50 52 54 53 53 52 49 49 52 52 52 52 50 52 53 53 51 51 51 50 50 49 49 49 49 49 50 51 51 50 50 48 49 49 50 48 48 49
55 55 54 53 51 51 53 53 53 52 50 50 50 51 52 53 51 52 53 53 53 52 52 51 50 49 47 48 49 48 49 48 48 50 50 50 49 47 48 47 46 46
56 55 55 55 54 52 53 54 53 52 51 50 51 52 53 53 52 51 53 52 53 52 52 51 50 50 49 49 49 48 48 47 49 50 47 47 48 49 48 48 46 48
57 54 53 53 54 55 55 53 52 50 51 52 51 51 53 53 51 51 51 51 52 51 51 51 49 49 50 49 50 49 48 47 48 47 46 47 47 46 44 47 47 47
55 56 56 53 51 52 55 55 54 51 51 53 51 52 53 53 51 50 49 50 50 50 50 50 50 50 50 50 49 49 48 48 46 46 44 45 45 45 44 45 42 41
58 58 57 56 56 55 54 56 56 56 51 50 50 52 52 51 50 51 50 50 49 49 50 49 49 49 49 49 47 49 49 48 48 45 44 43 45 44 45 44 46 44
55 55 54 56 57 57 58 58 56 56 55 53 49 49 50 51 50 51 50 49 48 49 48 48 48 47 49 48 48 48 46 48 47 45 44 45 45 43 40 43 44 45
58 58 56 54 53 55 56 55 60 56 55 55 54 50 48 50 49 49 50 49 49 49 48 48 48 48 48 47 47 47 46 46 46 45 45 45 44 43 39 41 42 44
58 58 59 60 60 61 55 54 55 54 53 55 55 54 51 50 49 47 49 49 50 48 48 48 48 47 47 47 48 48 47 47 46 45 46 45 44 43 46 42 42 42
57 58 59 59 59 59 60 61 58 56 56 56 55 54 52 54 52 49 49 49 48 48 48 48 48 47 47 46 46 48 48 47 47 46 46 44 44 44 42 42 43 40
57 57 58 58 59 59 59 59 57 57 54 53 55 54 53 53 55 52 49 49 48 49 49 49 49 48 48 48 47 47 47 47 47 46 46 46 44 43 41 40 39 38
52 52 53 54 56 56 56 57 58 58 57 55 55 55 54 50 50 54 52 50 48 48 49 50 49 48 47 47 47 47 47 47 47 47 46 45 44 41 39 39 38 37
50 51 53 55 55 55 55 56 56 56 57 56 57 55 56 53 51 51 54 54 50 49 49 50 50 49 48 48 48 47 47 47 47 45 45 44 42 39 39 38 37 37
39 43 45 48 49 50 51 54 54 55 54 54 55 55 54 53 54 55 54 54 51 50 50 51 50 49 50 45 46 46 47 46 47 45 42 41 40 39 39 37 36 37
35 36 37 38 43 47 49 49 49 51 52 52 52 54 55 55 54 54 55 53 52 51 50 50 50 51 41 40 40 42 46 46 44 42 41 40 39 38 38 38 37 34
31 32 33 35 37 38 43 45 48 49 49 50 51 52 53 54 54 53 54 54 56 52 53 52 51 42 39 38 37 37 41 46 43 42 40 39 37 36 36 36 36 36
29 30 30 32 33 37 41 44 44 46 48 49 49 51 53 53 53 54 53 53 53 51 51 51 47 38 37 36 36 35 34 38 39 41 39 37 37 36 35 34 34 35
33 32 33 34 35 35 36 40 44 43 47 49 49 50 52 52 52 53 53 52 52 51 50 50 44 38 36 35 35 34 33 34 40 39 39 36 36 36 36 36 35 35
34 34 34 35 35 37 38 37 39 45 46 47 47 47 49 49 51 51 51 52 52 51 51 46 46 36 34 34 34 33 33 33 39 39 38 37 36 36 36 36 36 36
35 35 36 35 35 36 36 36 39 43 47 48 47 46 48 48 49 50 51 51 51 51 50 44 42 33 33 33 33 33 32 35 37 38 37 36 36 36 35 36 35 36
36 35 35 35 35 35 35 38 39 40 44 46 46 47 47 47 47 49 49 51 50 50 51 42 36 33 32 32 32 32 31 33 36 35 35 37 37 37 36 36 36 35
35 33 34 35 34 34 34 37 38 40 42 45 45 45 45 46 46 46 48 50 50 50 49 38 35 33 32 32 32 31 32 33 33 34 34 34 35 36 35 34 35 42
35 37 37 37 37 36 38 38 38 39 41 44 44 45 45 45 44 45 47 49 49 50 42 39 34 33 33 32 33 31 34 35 32 30 31 32 32 32 34 35 33 38
36 36 38 39 39 40 40 40 39 38 41 44 44 43 42 43 43 46 47 48 48 44 41 39 35 33 34 33 33 32 32 36 35 31 30 31 31 30 32 33 32 32

ECMWFNIL_sfc_dewp_012.txt.gz
Dewpoint
57 56 56 57 55 56 56 56 56 56 56 55 55 54 54 55 55 58 57 57 56 56 56 56 55 55 56 55 54 51 53 55 54 53 52 52 53 53 52 50 51 52
57 56 55 56 56 56 57 59 57 56 58 57 56 57 55 55 55 56 56 56 55 56 55 55 56 55 55 54 55 53 53 54 53 54 55 54 53 53 54 52 51 52
56 57 55 55 56 57 57 59 59 56 59 57 58 57 56 55 56 58 56 55 55 55 56 56 56 55 54 55 55 54 54 54 54 54 53 51 53 52 52 52 52 51
57 58 56 57 57 58 56 57 60 56 59 57 58 57 55 55 57 57 57 56 56 55 56 55 56 55 53 53 55 54 53 54 53 54 53 53 52 51 52 52 51 50
58 58 58 58 57 59 57 55 58 56 58 58 58 57 55 55 56 56 57 56 56 55 55 55 55 55 54 53 53 53 54 53 53 54 52 53 52 52 53 53 50 51
59 57 57 58 61 61 57 56 56 57 57 57 59 56 56 55 53 54 55 54 55 54 54 54 53 53 53 53 54 52 52 51 51 53 50 50 49 50 47 52 50 49
59 60 59 57 61 58 61 59 59 58 59 58 57 56 57 55 53 53 53 53 53 53 52 52 51 53 53 53 53 52 52 52 50 49 48 49 49 50 49 49 47 46
58 61 61 61 59 60 59 59 61 61 61 60 57 56 56 55 52 53 53 53 52 52 52 50 51 51 51 53 51 52 52 53 49 48 48 47 49 46 48 50 50 47
59 59 62 62 61 60 61 61 61 62 61 60 60 59 57 56 54 53 53 52 51 52 51 51 50 50 51 52 51 51 50 52 51 50 49 50 48 49 46 46 48 49
58 59 59 61 60 60 61 60 61 61 59 60 58 59 58 57 55 53 52 52 51 51 51 51 50 51 51 50 49 50 49 49 49 50 49 49 48 46 44 47 47 48
58 57 58 61 61 61 60 59 59 59 59 57 58 57 57 55 55 53 52 51 52 50 50 50 50 50 49 50 50 51 50 49 48 47 49 49 49 49 50 47 47 47
59 59 59 60 61 60 60 59 60 59 59 60 59 58 57 56 54 53 51 51 51 51 50 50 50 50 49 49 48 50 50 50 49 49 49 48 49 49 47 47 46 46
59 60 60 60 60 60 60 59 58 58 59 59 59 58 59 58 57 55 54 50 49 50 50 50 50 50 50 50 48 49 49 49 50 50 50 50 49 48 48 47 47 46
56 58 58 59 60 60 59 58 57 58 58 59 59 58 58 58 58 58 58 57 56 52 51 51 51 51 50 50 49 49 50 50 50 50 49 50 50 48 48 47 46 45
52 52 55 55 57 57 57 58 57 57 57 57 57 57 57 57 58 58 56 55 55 56 56 55 54 53 52 50 49 49 50 50 50 48 49 48 47 47 46 45 44 44
50 53 52 53 54 56 56 57 58 58 58 57 56 56 56 56 57 57 56 55 55 55 57 56 56 57 54 47 47 49 49 48 51 50 48 49 46 46 45 44 44 44
50 51 51 48 52 53 54 53 53 55 56 55 56 56 57 57 57 56 55 55 55 56 55 57 57 55 49 45 43 44 49 51 50 50 49 48 46 45 43 43 44 40
45 46 45 48 47 48 49 52 54 54 55 56 56 57 57 57 58 57 56 56 57 56 56 55 56 51 43 42 42 42 46 50 50 48 48 47 45 44 43 42 41 42
45 45 46 47 46 47 50 51 50 51 51 54 54 57 57 56 56 56 57 58 57 56 55 55 53 40 39 40 41 41 43 45 45 46 44 45 44 44 42 41 41 43
46 46 45 47 48 47 48 47 46 50 53 53 54 54 55 54 55 55 56 56 56 55 55 54 51 40 38 38 38 38 39 42 45 45 44 43 43 42 44 42 42 42
45 46 45 43 46 47 47 46 47 49 50 51 53 53 53 54 54 53 54 54 55 54 52 50 49 39 38 37 36 35 35 39 47 46 43 44 44 45 45 43 41 43
46 47 47 46 46 46 46 46 47 49 49 52 52 52 52 52 52 53 53 53 54 54 52 49 47 37 36 35 35 34 36 41 45 45 42 45 43 43 43 42 41 41
46 45 46 46 45 46 45 47 47 49 49 49 49 51 51 51 51 52 52 53 53 53 51 47 41 37 35 34 33 33 36 39 44 41 41 43 43 43 42 41 43 41
44 41 46 45 45 44 45 46 47 47 46 47 47 48 49 50 51 50 51 51 51 52 48 44 40 36 34 33 32 33 36 39 40 42 41 39 40 42 43 40 40 45
44 45 46 46 45 45 48 47 47 48 46 47 46 48 49 49 46 48 48 49 51 48 44 42 37 35 34 32 31 32 36 42 42 39 42 40 40 39 39 39 38 43
46 46 47 43 41 45 49 48 49 47 46 45 45 43 45 47 47 45 48 48 45 43 43 39 35 34 35 32 32 32 35 41 39 37 36 36 38 37 37 38 39 35

ECMWFNIL_sfc_dewp_015.txt.gz
Dewpoint
52 53 52 52 52 53 52 52 52 51 51 51 51 52 51 52 53 53 52 51 51 51 51 50 51 51 52 52 52 52 52 52 51 50 50 51 49 48 48 47 47 48
52 54 54 53 53 53 52 53 53 52 51 51 52 52 52 52 54 52 51 51 52 52 51 51 51 51 50 50 50 50 50 50 49 52 50 50 49 49 48 48 47 48
53 54 53 52 53 53 53 53 53 53 51 52 52 52 52 52 54 52 52 51 51 51 51 51 50 52 51 51 51 51 50 50 50 51 51 50 50 49 49 49 49 47
54 53 53 53 53 53 55 53 52 53 53 53 52 52 51 52 54 52 52 55 52 51 51 51 51 51 50 52 52 51 51 51 51 49 49 50 50 49 47 48 48 47
55 53 54 54 54 52 54 54 51 53 53 53 53 52 51 52 54 52 52 52 52 51 51 51 51 50 50 50 51 50 50 50 50 50 50 49 48 49 50 48 48 46
56 54 54 52 55 52 53 54 51 53 54 54 53 52 50 51 54 53 52 52 52 51 51 51 50 51 50 49 50 49 50 49 49 51 50 48 47 48 49 48 46 47
56 56 55 55 56 53 52 54 52 53 53 54 54 52 51 50 53 53 53 52 53 52 51 51 50 50 50 48 50 49 50 48 49 50 48 48 47 46 47 48 48 47
56 56 56 56 57 56 56 56 54 53 54 54 53 53 51 50 51 53 53 52 53 52 52 51 51 51 50 49 50 48 48 50 49 49 48 48 47 46 43 49 45 44
57 57 57 56 56 57 58 56 56 56 56 56 54 54 52 51 51 53 53 52 52 53 52 51 51 51 50 50 49 49 47 49 49 47 47 47 46 45 45 46 45 46
56 57 57 57 56 56 57 58 57 57 57 56 56 55 55 55 53 52 52 52 52 52 52 51 51 50 50 50 50 50 48 50 47 46 47 48 46 46 46 46 45 46
56 56 56 57 57 56 57 58 57 57 56 55 55 55 54 54 55 55 53 52 52 51 52 52 51 50 50 50 50 50 49 49 48 47 48 48 45 45 48 46 46 45
56 56 56 56 57 57 58 58 58 57 56 56 55 55 55 55 55 55 55 55 55 55 54 52 51 51 50 50 50 50 50 49 48 48 48 47 46 47 47 46 46 44
55 55 56 56 58 58 57 56 55 56 56 56 56 56 54 55 56 56 56 56 56 56 55 54 53 52 51 50 50 49 50 49 48 47 47 47 47 47 46 44 45 45
55 56 56 57 57 56 57 56 55 56 57 57 56 55 55 54 54 55 55 56 56 56 56 55 55 56 56 53 50 49 49 49 48 47 47 47 47 46 46 45 45 45
53 54 55 55 56 57 56 56 56 54 55 55 55 55 55 54 55 55 55 55 56 56 56 56 55 55 55 55 53 49 49 49 49 48 48 47 47 46 45 44 43 43
49 49 50 50 52 54 56 56 55 54 54 54 55 55 54 54 53 54 54 54 54 55 55 55 55 55 54 51 51 51 50 49 49 48 48 47 46 44 43 42 42 41
49 50 49 50 49 52 54 55 56 55 55 55 55 55 55 55 54 54 54 54 54 54 54 55 55 55 49 46 46 47 50 49 49 48 48 47 45 43 41 41 41 43
44 46 46 48 49 51 52 52 53 54 55 55 55 55 55 55 55 55 54 54 53 53 54 54 54 51 46 46 45 44 46 50 49 48 48 46 44 43 42 41 40 41
35 35 36 38 40 42 43 43 45 45 45 49 52 54 54 55 54 54 54 54 53 53 53 53 53 49 45 45 45 43 42 47 49 48 46 45 44 43 43 41 40 41
36 38 41 41 43 43 43 41 40 42 47 49 49 50 50 52 53 53 53 53 54 54 54 52 51 48 43 43 43 42 41 45 47 45 44 44 43 42 42 41 41 40
38 40 39 39 40 41 41 41 42 44 44 45 47 48 48 49 49 49 51 52 53 53 52 51 52 47 40 39 40 40 41 43 43 45 43 44 45 43 42 41 40 41
39 39 38 38 38 38 37 37 40 41 41 42 44 46 46 46 46 48 48 48 51 51 49 48 47 39 38 38 38 38 40 44 44 42 43 45 42 43 42 42 42 41
40 39 38 36 37 37 37 39 40 39 39 42 39 41 44 45 45 45 47 49 49 49 48 47 42 38 36 37 38 39 40 41 42 41 43 42 41 42 41 42 42 41
39 38 39 37 38 36 37 39 40 41 39 40 38 39 41 43 46 45 46 47 48 49 48 46 41 37 36 36 38 39 40 41 40 40 39 39 40 42 42 42 42 46
36 38 39 39 38 38 39 39 40 39 39 41 41 41 41 43 43 44 43 44 45 48 48 43 37 36 35 36 37 38 41 40 42 41 41 39 40 40 41 39 36 41
37 36 38 37 37 38 40 41 42 41 39 39 40 40 40 41 42 43 43 41 42 43 42 38 34 33 35 36 37 37 39 40 37 37 35 33 31 30 32 34 35 34

ECMWFNIL_sfc_dewp_018.txt.gz
Dewpoint
52 52 52 52 53 53 52 52 50 49 49 49 49 48 47 48 51 50 50 50 49 49 49 50 51 51 52 51 51 51 51 50 49 49 50 49 47 47 47 46 45 44
53 53 53 52 53 53 52 52 51 50 49 50 50 49 49 51 50 50 49 50 50 49 49 50 50 51 51 50 50 49 48 49 49 51 49 48 47 47 47 46 45 44
54 53 52 52 52 53 52 52 51 50 50 50 50 50 51 52 51 49 50 50 49 48 49 49 50 50 50 49 49 49 49 49 49 49 50 48 48 47 47 46 46 45
54 54 52 52 53 52 52 53 52 51 51 51 51 50 51 52 50 49 50 54 49 48 49 49 50 50 49 49 49 49 49 49 49 48 49 48 48 47 47 47 47 46
54 54 53 53 53 53 53 52 52 51 51 51 51 50 52 52 50 49 50 50 49 49 49 49 49 49 50 50 49 49 48 48 48 48 47 46 46 47 47 47 46 46
54 55 54 53 53 53 53 52 52 52 51 51 51 51 51 52 50 50 50 49 49 50 49 49 49 49 50 50 49 49 49 48 48 48 47 46 46 48 49 47 46 45
56 56 56 56 55 54 53 52 52 53 52 51 51 50 51 52 50 50 50 50 49 50 49 49 49 49 48 49 49 49 49 48 48 49 47 46 46 45 46 45 46 46
55 55 56 56 56 56 54 54 52 53 52 52 51 50 50 52 51 51 51 51 49 49 49 49 49 49 49 49 49 48 48 48 48 49 47 46 45 44 45 47 45 45
55 56 56 56 56 56 56 55 53 53 53 52 51 50 50 51 52 51 51 51 50 50 49 49 49 49 49 48 49 48 48 48 48 48 47 46 46 45 44 45 43 45
55 55 55 55 55 55 56 57 57 56 54 53 52 51 50 50 52 52 51 51 51 50 50 49 49 49 49 48 49 48 47 48 48 47 47 47 47 45 44 45 43 44
54 55 55 55 55 55 55 56 56 57 56 54 54 53 51 51 51 52 52 51 52 51 51 50 50 49 49 49 49 49 48 47 48 47 46 47 47 45 47 45 45 44
54 54 54 55 54 54 55 56 56 57 56 56 55 55 54 54 53 53 52 52 51 52 52 51 51 50 49 49 49 49 49 48 48 47 46 46 47 46 47 46 45 45
52 53 54 53 54 54 55 55 55 56 56 56 55 55 55 54 55 54 54 53 53 53 53 52 51 51 50 49 49 49 49 49 48 47 46 46 47 46 46 46 45 45
53 53 54 54 54 55 55 55 54 54 55 55 55 54 54 55 55 54 54 54 54 53 53 53 53 52 51 51 50 50 50 49 49 48 47 46 47 46 46 45 45 45
53 53 53 54 55 55 55 55 54 53 54 55 55 54 54 55 55 54 54 54 54 54 54 53 53 53 53 52 51 50 50 49 49 48 47 47 47 46 45 44 43 43
53 53 54 55 55 55 54 54 54 54 54 54 55 54 54 54 54 54 54 54 53 53 53 53 53 53 53 50 50 51 50 50 49 48 47 47 47 46 44 43 43 42
49 51 52 53 55 54 53 54 54 53 53 53 53 53 53 53 53 53 53 53 53 53 53 53 54 54 49 46 46 47 50 50 49 49 48 47 47 45 43 43 42 42
46 47 47 47 48 50 51 52 52 52 51 51 51 51 52 51 52 53 52 51 52 51 51 52 53 51 47 46 45 44 47 50 49 49 48 47 46 44 43 41 40 42
45 46 46 46 47 48 48 48 50 50 50 50 51 52 51 51 52 51 51 51 51 51 51 52 52 49 46 45 45 43 43 47 49 49 48 47 46 44 42 41 41 42
40 42 41 41 42 42 42 42 43 44 45 46 48 48 49 50 50 51 51 50 51 51 50 49 50 48 45 45 44 43 42 43 49 49 48 47 46 44 43 41 40 41
40 39 39 40 40 40 40 40 40 40 41 42 44 45 47 50 50 49 50 49 48 48 48 49 51 47 44 43 42 42 42 41 48 48 46 46 47 45 43 42 42 42
38 38 38 38 37 37 37 37 39 40 38 40 40 41 43 44 44 46 46 46 47 48 48 49 47 43 43 40 40 40 40 45 45 44 45 45 45 45 44 43 43 42
39 37 37 37 37 36 36 37 36 35 35 39 35 37 38 40 41 42 43 44 45 47 48 46 41 38 38 38 39 39 42 43 44 44 43 43 43 43 43 42 42 40
38 37 36 37 36 34 35 36 38 38 37 38 34 36 37 37 39 41 41 43 45 46 47 46 39 37 37 38 38 40 41 42 42 41 39 40 41 41 40 39 42 46
39 39 38 37 36 36 38 37 38 37 36 39 38 38 38 38 40 40 39 38 40 44 48 43 36 36 37 38 38 39 41 41 40 39 40 39 40 39 36 36 36 39
38 40 39 38 37 38 38 38 39 39 38 37 37 38 38 37 40 38 38 37 39 41 43 39 36 34 37 37 38 38 39 40 38 36 34 35 36 34 34 33 34 35

ECMWFNIL_sfc_dewp_021.txt.gz
Dewpoint
53 53 53 53 53 53 51 50 48 47 47 47 46 45 47 47 50 47 48 48 49 49 49 49 50 50 51 50 50 50 49 49 48 47 47 47 45 44 45 44 44 45
53 53 54 53 53 53 51 50 49 48 48 47 47 47 46 49 49 48 48 49 48 48 48 49 49 49 49 49 48 48 47 48 48 48 46 46 45 45 44 44 44 43
53 53 53 53 53 52 52 51 49 49 49 49 48 48 48 50 48 47 48 48 48 48 48 48 48 49 49 48 47 48 48 47 47 47 48 46 45 45 44 44 44 44
53 52 53 53 53 52 52 51 49 49 48 49 49 49 50 51 49 47 48 52 47 47 47 48 49 48 48 48 48 47 47 47 47 47 47 46 46 45 44 46 46 44
53 52 53 53 54 53 53 52 51 50 50 50 49 49 50 50 48 47 48 48 47 47 47 48 48 48 48 48 48 48 48 48 46 46 46 45 45 46 45 45 44 43
53 53 53 53 53 52 52 52 51 51 50 49 50 50 49 49 48 47 48 47 47 47 47 47 47 48 48 48 48 49 48 48 46 46 45 44 45 46 46 45 44 43
54 54 54 54 54 53 52 52 53 52 51 50 50 50 50 50 49 48 48 48 47 48 47 47 47 47 47 47 47 47 46 47 47 46 45 44 46 45 45 44 44 44
55 55 55 54 54 54 54 54 53 52 52 51 50 50 50 51 50 49 49 48 47 47 47 47 47 47 47 47 47 47 45 47 47 46 45 45 44 44 44 45 44 44
54 54 55 55 55 55 54 54 54 53 53 52 51 50 50 51 51 49 50 49 48 48 47 47 47 47 47 47 47 47 46 46 47 47 46 45 44 44 44 44 43 44
54 54 54 55 54 55 54 55 54 54 55 53 52 51 50 50 51 50 50 50 49 49 49 48 48 48 48 47 48 47 47 47 46 46 46 46 45 44 44 44 43 43
53 54 54 54 55 55 55 55 55 55 55 54 54 53 52 52 52 51 51 50 50 49 49 49 49 48 48 48 48 48 48 47 47 46 46 46 46 45 47 44 43 42
53 53 54 54 54 54 55 55 55 55 55 55 55 54 53 53 52 51 52 51 50 50 50 49 49 49 49 48 48 48 48 47 48 47 47 46 46 46 46 45 44 43
52 52 52 52 53 53 54 55 55 55 55 54 54 54 53 53 53 52 52 52 52 53 52 51 50 50 49 49 49 49 48 48 47 48 47 46 47 47 46 45 44 44
52 52 51 51 52 53 53 53 53 53 53 53 54 54 54 54 54 53 53 54 54 54 53 53 52 52 51 50 50 49 49 49 48 48 47 47 47 47 46 46 45 45
51 51 51 52 53 54 54 53 54 54 53 54 54 53 53 53 53 53 52 53 53 53 54 54 54 53 53 52 51 50 49 49 49 48 48 47 46 46 46 46 46 45
51 50 52 52 53 53 54 54 54 52 52 53 53 53 54 52 52 53 53 53 53 53 53 53 53 53 52 49 49 51 50 50 50 49 49 48 47 46 46 45 45 45
50 51 51 53 53 53 53 53 51 51 53 53 53 52 50 52 53 53 53 53 53 53 53 52 53 53 49 46 45 46 50 50 50 49 49 49 48 47 46 45 44 44
51 51 51 53 53 53 53 52 52 52 52 52 51 50 47 51 51 52 52 51 51 51 52 52 52 50 47 46 45 44 46 50 50 50 49 49 48 47 47 45 44 43
47 49 50 49 50 51 50 49 51 51 50 49 50 51 50 50 52 50 50 50 51 51 51 51 51 48 46 45 44 44 43 46 50 49 49 49 48 47 46 45 43 43
45 46 45 45 45 44 45 46 47 49 48 48 48 48 50 50 49 50 50 50 50 50 50 49 49 48 45 44 44 43 42 43 49 49 48 48 48 47 46 44 43 42
41 43 42 41 41 41 40 40 42 40 41 41 43 45 47 47 46 47 47 47 48 48 47 47 49 47 43 42 41 41 41 42 45 47 47 46 46 46 44 43 42 43
39 39 39 39 38 37 38 38 37 37 38 40 39 39 39 40 40 42 44 44 44 43 44 46 45 43 40 40 40 41 41 43 44 44 43 43 43 42 42 43 42 43
38 38 37 36 36 36 36 36 36 35 36 38 36 36 37 38 38 40 41 42 42 44 44 45 43 39 38 40 40 40 42 42 42 42 42 41 40 41 42 42 43 43
38 36 36 36 36 34 35 35 35 35 35 37 34 35 36 37 38 38 38 39 41 42 43 43 42 38 37 38 38 39 42 43 42 42 40 40 38 37 38 40 42 46
38 37 36 36 35 35 36 36 36 35 35 37 36 36 37 37 39 38 36 37 37 40 46 43 37 36 37 37 38 39 42 42 41 40 39 37 36 35 35 36 38 40
40 40 38 37 36 36 36 36 37 36 36 36 36 37 37 37 37 36 36 35 35 35 36 35 34 34 37 38 39 39 40 41 40 39 38 36 34 33 33 32 33 33

ECMWFNIL_sfc_dewp_024.txt.gz
Dewpoint
56 55 56 54 55 53 51 49 48 47 47 47 46 46 47 49 51 49 50 49 49 49 49 50 51 51 51 50 50 49 49 49 48 47 47 47 46 46 46 46 46 47
55 55 55 54 54 53 52 49 48 48 48 47 47 47 48 49 49 49 49 49 49 49 49 49 50 49 49 49 49 48 48 48 48 49 46 46 46 46 46 46 46 46
54 54 54 53 52 53 51 50 49 49 49 48 48 48 50 51 49 48 49 49 48 48 49 49 49 49 48 48 48 48 47 47 47 47 47 45 46 45 45 46 46 47
53 54 53 53 53 52 52 51 50 50 49 49 49 50 51 52 49 49 49 52 48 48 48 49 49 48 48 48 48 48 47 48 48 47 47 47 47 46 46 47 47 46
53 53 53 54 54 53 52 52 51 50 49 49 49 50 52 50 48 48 49 48 48 48 48 49 48 48 49 48 48 48 50 48 48 47 46 46 47 47 47 46 45 44
53 53 53 53 54 53 52 52 51 50 50 50 50 51 49 49 48 48 49 48 48 48 48 48 49 49 48 48 48 49 49 48 47 46 46 47 47 47 45 45 44 44
53 53 53 54 54 53 53 53 52 51 50 50 51 50 50 50 49 48 48 49 48 50 48 48 48 48 48 48 49 48 48 48 47 46 45 46 48 47 46 45 45 44
53 53 53 53 54 53 53 53 52 52 51 51 50 50 50 50 49 49 49 49 48 48 48 48 48 48 48 48 48 48 47 48 47 46 46 46 46 46 45 46 45 45
53 53 53 53 54 54 53 53 53 53 52 51 50 50 51 50 50 49 49 49 49 48 48 48 48 48 48 48 48 48 47 48 48 47 46 46 46 46 45 45 45 46
53 53 53 53 53 54 53 53 53 53 53 52 51 51 50 51 51 51 50 49 49 49 49 49 48 48 48 48 48 48 48 48 48 48 47 46 46 45 45 45 45 45
52 53 53 53 53 54 53 54 53 53 53 52 52 52 52 51 52 52 51 50 50 50 50 49 49 49 49 49 49 49 49 48 48 48 48 47 47 46 47 46 45 45
52 52 53 53 53 53 53 54 54 53 53 53 53 52 53 53 51 52 52 51 50 51 50 50 50 49 49 49 49 49 49 49 49 48 48 48 47 47 47 46 45 44
52 52 53 52 53 53 53 53 54 54 54 54 54 54 53 53 52 52 52 52 51 52 52 52 52 52 52 51 50 49 49 49 49 49 48 48 48 48 47 46 46 44
52 52 52 52 52 52 52 53 53 53 54 54 54 53 53 53 53 53 52 53 53 53 53 53 53 52 52 52 52 51 50 50 49 49 49 49 48 48 48 48 47 47
51 51 51 51 52 52 52 52 53 53 53 53 53 53 53 53 53 53 53 52 53 53 53 53 53 53 53 52 52 51 50 50 49 49 49 49 48 48 48 48 48 48
51 50 51 51 51 52 52 52 52 52 52 53 53 53 53 52 53 53 53 53 53 53 53 52 53 53 52 50 50 52 51 50 50 49 49 49 48 48 48 48 48 48
50 50 50 51 51 51 51 52 52 52 52 53 53 53 53 53 52 51 52 52 52 52 52 51 52 52 48 46 45 46 51 51 50 50 50 50 49 49 49 49 49 47
50 50 50 51 51 52 52 52 51 50 51 51 51 50 50 51 51 52 52 52 51 51 51 52 52 49 46 46 45 44 46 51 51 51 50 50 49 49 49 49 49 49
50 50 50 50 51 52 51 51 51 50 50 50 51 50 51 52 51 50 51 51 51 51 51 52 52 48 46 45 44 43 42 46 51 51 50 50 50 49 49 49 48 48
48 49 49 49 49 49 49 50 50 50 49 50 50 48 48 49 48 49 50 50 50 51 51 50 51 48 44 43 42 41 40 42 49 50 50 50 50 50 49 49 48 47
46 47 47 46 45 45 46 47 48 47 47 48 49 50 49 49 49 49 49 49 49 49 49 49 50 46 43 41 40 40 40 41 48 48 48 48 48 48 48 48 47 46
40 43 44 43 41 41 42 42 42 43 43 43 44 45 45 46 47 48 47 48 47 47 47 48 46 40 39 39 39 38 39 45 46 47 47 47 46 45 45 46 46 45
39 40 41 40 39 39 39 39 39 39 40 40 41 41 42 43 43 42 43 43 43 43 44 44 42 40 37 38 39 38 42 45 45 44 43 42 42 41 43 44 44 44
40 38 39 39 37 37 38 38 37 38 38 39 38 39 39 40 41 40 38 40 41 41 42 40 42 39 37 37 39 38 42 44 44 43 41 39 38 38 39 41 44 45
40 39 37 38 37 37 37 36 37 37 38 38 38 39 40 40 40 39 37 37 38 41 44 40 39 38 38 37 38 39 42 43 43 41 39 38 37 36 36 36 37 39
39 41 39 37 36 37 38 38 39 39 38 38 39 40 40 39 39 38 37 35 35 35 37 37 37 36 39 37 38 39 41 43 42 41 38 36 36 35 34 34 34 35

ECMWFNIL_sfc_dewp_027.txt.gz
Dewpoint
60 60 60 58 60 59 57 55 55 56 55 54 54 54 53 55 55 57 57 57 57 57 57 57 56 56 55 55 56 53 53 55 54 54 54 54 54 54 53 53 55 52
60 60 58 59 58 56 56 56 56 55 55 55 55 54 55 55 56 56 56 56 56 56 55 56 55 55 54 53 55 55 53 54 52 51 54 54 53 54 54 54 53 52
59 59 59 58 56 56 56 56 56 57 55 55 56 56 56 56 56 56 56 56 56 56 56 55 55 54 54 53 54 54 53 53 52 53 53 52 53 52 53 53 53 53
59 59 58 57 57 57 56 55 55 55 55 54 55 56 56 56 56 57 57 56 56 55 56 55 55 53 52 53 54 52 52 51 51 52 51 51 52 51 53 52 52 51
59 59 58 57 57 56 56 56 55 55 55 55 55 55 55 55 55 55 55 55 56 55 55 55 54 54 53 53 52 52 52 50 52 51 49 50 52 52 51 51 50 50
57 56 56 56 57 57 56 55 54 54 55 55 55 54 56 55 54 54 54 54 54 54 55 54 53 53 53 52 53 53 52 50 51 50 48 48 48 49 46 49 49 48
57 56 57 57 58 58 57 57 57 56 56 55 55 55 55 55 53 53 52 53 52 53 52 54 53 53 54 53 52 52 52 51 50 48 47 48 48 49 47 48 46 46
58 57 57 57 59 58 59 57 57 56 56 54 54 55 55 54 52 54 53 52 51 51 53 52 53 53 53 53 52 53 53 53 51 48 47 48 50 45 47 48 49 44
57 57 57 58 59 58 58 57 57 58 55 54 54 54 54 54 54 54 53 52 51 52 51 52 52 53 54 53 54 53 51 53 53 50 49 49 49 47 44 46 47 46
57 57 58 58 59 59 59 58 58 58 56 55 54 54 53 54 55 53 53 52 52 51 51 51 51 53 53 52 51 52 52 51 52 52 50 49 47 46 45 47 48 48
57 58 58 58 58 59 59 59 58 58 57 54 55 55 53 54 53 53 53 52 54 51 51 51 51 51 51 52 53 53 52 52 52 51 52 50 50 49 51 48 49 48
58 58 58 58 58 58 59 58 58 57 57 56 55 54 55 54 54 53 53 52 51 51 51 51 51 51 50 50 51 53 53 54 53 53 52 51 51 50 49 50 50 48
57 57 58 58 58 58 59 58 57 57 56 56 56 55 55 55 54 54 55 53 52 53 52 52 52 52 52 53 51 51 52 52 53 53 53 53 52 51 50 51 50 49
56 58 58 58 58 58 57 58 57 57 56 57 57 56 56 54 54 54 55 54 54 53 54 54 54 54 54 54 53 54 54 53 53 54 53 53 54 52 52 52 52 51
57 57 57 57 57 56 56 56 56 57 57 57 58 58 58 56 55 55 54 54 54 55 54 55 55 56 56 56 56 55 55 55 54 53 54 53 53 53 53 52 51 52
56 56 56 56 56 56 56 57 56 57 58 57 57 57 57 56 56 56 54 55 55 55 55 56 58 58 56 50 51 55 55 54 55 54 53 53 53 53 53 52 51 52
55 55 55 56 56 57 57 56 56 57 57 57 57 57 57 57 56 55 56 56 55 55 55 57 58 55 49 46 45 48 54 56 55 54 54 54 54 54 53 54 54 51
55 54 54 55 56 55 56 56 57 57 56 57 58 57 57 57 57 56 57 56 57 56 57 56 57 51 46 45 44 44 47 55 56 55 55 55 54 53 53 53 53 54
55 54 54 54 54 55 56 56 56 55 55 56 57 57 57 57 55 56 56 56 56 55 56 56 57 50 45 45 43 43 41 47 54 55 55 55 54 54 54 53 54 54
53 54 54 55 55 55 55 55 55 55 57 57 56 56 57 55 56 55 55 55 55 55 55 56 56 48 44 44 43 41 40 42 55 57 57 56 56 55 55 55 55 54
41 49 53 54 54 54 55 55 55 56 56 56 56 55 55 55 55 54 54 54 55 55 55 55 55 41 41 40 40 40 39 39 55 56 56 57 56 55 55 55 54 54
41 43 47 51 52 53 54 54 55 56 56 55 54 55 54 54 53 54 54 54 54 54 55 56 53 38 39 39 39 39 38 51 55 56 56 56 54 52 51 51 51 52
42 41 43 46 48 50 52 54 54 54 55 54 54 54 54 54 54 54 53 54 53 53 54 56 53 42 38 39 38 37 44 55 56 55 54 52 50 49 49 49 49 49
42 40 41 42 44 46 48 49 50 51 51 51 53 53 53 53 52 51 51 52 53 53 54 54 53 44 37 38 38 38 47 55 54 53 51 49 47 46 46 46 45 46
44 42 43 43 41 42 44 45 46 47 47 48 50 50 50 49 48 47 47 48 49 51 45 52 51 43 38 37 37 37 46 54 51 50 49 47 45 43 44 43 42 41
42 44 44 45 43 44 43 44 44 44 45 45 46 45 46 46 45 46 47 45 45 46 47 48 49 47 42 37 38 38 41 51 50 48 47 45 44 41 41 41 40 39

ECMWFNIL_sfc_dewp_030.txt.gz
Dewpoint
60 59 58 55 54 55 55 54 53 54 53 53 53 55 54 56 56 55 55 56 56 55 55 57 58 58 56 56 55 51 51 55 54 54 55 55 55 56 56 55 55 49
60 59 56 56 56 55 54 54 54 53 53 53 53 53 54 55 55 54 53 54 53 53 54 55 56 55 54 53 54 51 51 52 52 51 53 53 52 53 54 53 51 48
60 59 58 58 55 55 55 56 55 53 51 52 54 54 54 55 56 54 53 53 50 51 52 54 55 54 53 53 52 51 51 51 52 52 51 50 50 50 51 51 52 50
61 59 59 57 56 56 57 56 55 53 53 52 53 54 54 55 55 54 53 52 50 50 51 51 52 50 49 50 50 47 49 48 47 47 48 48 49 49 50 50 50 49
60 58 58 55 54 56 58 57 56 53 52 52 54 54 53 55 54 52 52 50 50 49 50 50 50 50 50 50 48 47 48 46 48 46 45 47 48 49 49 49 51 50
59 56 56 54 53 55 56 56 54 53 52 54 54 52 53 53 51 51 52 51 50 49 49 47 47 48 48 49 50 49 48 46 48 47 45 46 46 48 44 48 49 48
59 59 57 54 53 54 56 56 55 54 53 53 52 52 52 52 50 50 49 50 50 50 48 48 47 48 49 49 48 48 47 47 47 45 43 43 46 48 47 48 45 46
59 59 57 56 55 54 56 55 53 52 54 52 53 53 52 49 47 50 49 49 48 48 50 48 47 47 48 48 45 48 49 49 48 45 44 43 46 43 46 45 47 44
59 58 58 59 58 57 56 55 53 51 53 55 52 52 52 50 49 50 48 48 48 48 48 48 48 49 51 50 48 47 45 48 48 46 46 47 46 44 41 44 45 45
58 58 58 59 59 57 57 56 56 55 50 52 52 52 50 52 51 48 48 48 48 47 48 49 50 51 50 49 48 48 48 47 47 48 46 46 45 43 41 45 46 47
58 58 58 58 58 56 56 57 57 57 54 48 52 53 52 53 51 49 49 48 50 46 47 47 48 48 49 49 50 51 50 50 49 48 50 48 48 46 48 46 47 47
57 57 57 58 57 56 56 56 57 57 57 54 52 52 54 53 52 51 49 48 47 46 47 46 46 47 47 48 48 50 52 52 52 52 51 50 50 50 47 48 49 48
57 58 57 57 57 57 56 55 55 57 56 54 54 53 54 54 53 52 53 52 51 51 50 50 50 50 51 51 51 51 52 52 53 53 53 52 52 50 50 50 50 49
59 59 59 59 58 57 57 57 56 57 57 55 55 54 54 52 53 54 55 53 53 53 52 53 53 52 52 52 52 53 54 54 54 55 54 55 55 53 53 52 52 51
58 58 59 58 57 57 57 56 56 57 57 56 57 56 55 53 54 54 55 53 54 54 54 55 56 55 54 55 54 54 55 55 55 54 55 55 55 55 55 54 53 53
57 57 57 57 57 56 56 56 56 57 58 57 57 56 57 55 55 55 54 54 54 55 55 57 57 57 57 51 51 55 56 54 56 56 54 55 56 56 57 56 56 55
55 56 56 56 56 56 56 56 55 57 57 57 57 56 57 57 56 55 55 55 55 55 56 57 58 58 47 46 47 49 54 56 55 55 55 55 56 57 57 57 57 55
54 54 54 55 55 55 56 56 57 57 57 57 58 58 58 58 58 56 56 56 56 56 57 57 57 51 44 44 44 45 49 56 55 56 57 56 57 56 56 56 56 57
54 54 54 55 55 55 57 57 56 56 56 56 57 58 57 56 56 57 57 57 56 55 56 56 56 43 43 42 42 42 42 48 53 56 56 58 58 58 57 57 57 57
44 49 53 55 56 56 56 55 57 56 57 56 55 56 56 57 57 57 57 56 56 55 55 55 55 43 42 41 42 41 41 44 56 57 58 58 58 57 57 56 56 56
39 40 44 49 52 53 55 54 56 57 57 57 56 56 55 56 56 56 56 55 54 54 54 54 55 42 42 41 41 40 39 41 57 57 57 54 54 54 54 53 53 53
40 40 42 42 46 52 53 53 54 56 57 56 55 55 55 57 56 54 54 54 54 54 54 54 59 39 40 40 40 40 38 53 57 56 53 51 53 54 54 53 53 53
41 40 42 41 41 44 48 53 54 55 58 57 57 56 55 55 55 54 54 55 54 54 55 56 58 45 38 39 39 39 43 56 54 49 48 51 52 54 53 54 54 53
39 39 40 41 42 41 44 48 52 53 54 57 56 56 56 56 56 55 55 55 55 56 57 57 57 46 37 38 39 39 47 52 47 47 49 51 52 52 51 49 47 45
37 39 40 41 41 42 46 48 49 50 50 54 53 55 56 56 54 53 54 55 55 56 50 57 55 45 37 38 38 39 44 55 46 45 49 49 49 49 49 48 46 45
37 38 40 40 40 42 45 47 49 49 51 52 52 50 52 51 52 52 50 48 50 49 53 52 52 52 45 37 39 39 39 52 48 44 46 48 47 47 47 47 45 44

ECMWFNIL_sfc_dewp_033.txt.gz
Dewpoint
58 58 55 53 52 53 54 53 52 53 52 53 55 56 55 56 54 54 54 55 54 55 56 57 56 56 55 55 54 52 53 55 55 56 56 57 57 57 55 52 52 48
59 59 55 54 53 54 54 54 54 53 53 54 55 55 55 54 52 52 53 52 53 54 55 55 55 53 53 52 51 51 50 52 52 50 53 53 53 53 52 51 50 48
59 59 57 55 55 56 55 55 55 54 53 54 56 55 54 53 52 52 51 51 51 53 54 54 54 53 51 51 51 51 51 51 52 51 52 49 50 51 51 50 48 48
59 59 57 57 56 55 55 55 53 53 54 54 54 54 53 52 52 52 50 48 49 50 51 51 51 50 48 48 50 48 48 47 47 49 49 49 50 49 51 51 51 51
59 59 58 57 55 55 56 55 53 52 52 52 54 54 52 52 51 48 48 47 48 47 49 49 49 49 49 48 47 46 45 44 46 47 47 48 49 50 50 52 51 51
60 58 56 54 55 56 56 54 50 51 51 53 53 50 51 50 47 46 46 46 45 45 46 46 46 47 47 47 47 46 45 44 46 45 42 44 45 47 44 49 50 49
59 58 55 53 54 55 55 53 53 51 52 53 50 50 50 48 46 45 44 46 44 43 42 46 47 48 48 48 47 46 46 45 44 43 42 45 47 48 45 47 46 48
59 58 55 52 54 54 55 52 51 50 53 51 52 50 49 46 45 47 46 45 43 41 42 42 44 45 47 47 46 47 48 48 46 42 42 44 47 45 47 46 48 45
59 58 57 55 54 52 55 52 52 51 49 51 51 48 49 47 46 47 45 45 45 44 41 42 43 45 47 46 47 46 46 48 48 46 45 46 45 44 41 44 46 46
59 58 57 57 55 52 54 54 52 51 48 49 48 49 47 48 47 45 45 45 45 44 43 43 44 47 47 44 43 44 45 46 46 47 47 46 44 41 40 44 45 45
59 58 58 58 57 55 55 53 53 51 50 47 49 48 48 48 46 45 45 44 47 43 44 45 46 46 46 46 47 47 45 46 46 45 47 46 46 45 49 45 46 47
58 58 58 58 57 56 56 54 55 54 49 49 49 46 48 49 47 45 43 42 42 42 43 44 45 45 45 46 47 49 49 49 48 48 48 46 47 47 45 47 48 47
57 58 58 57 57 57 57 56 55 55 54 46 48 49 48 48 47 45 46 44 42 43 43 44 44 45 46 47 47 48 50 50 51 51 50 51 49 48 46 48 49 48
58 58 57 57 58 57 57 57 55 55 56 53 49 50 50 48 47 48 47 45 44 43 44 45 45 45 46 47 47 49 51 52 52 53 52 52 53 51 51 51 51 51
58 58 58 59 59 59 60 57 57 55 55 55 54 51 51 49 49 48 48 48 46 47 45 47 48 48 46 49 50 50 52 53 53 52 54 54 54 53 53 52 52 53
57 58 57 59 59 58 58 58 57 57 57 56 56 53 51 49 48 49 49 49 49 50 50 53 53 54 59 51 51 54 55 54 56 56 55 56 56 56 56 55 54 54
56 56 56 56 57 57 57 56 55 56 57 58 57 56 54 52 51 49 50 50 50 51 52 56 56 57 47 47 48 49 55 57 56 56 56 56 56 56 56 57 58 57
55 54 54 55 55 55 55 55 56 56 57 58 58 59 58 57 55 53 52 52 52 53 54 56 58 52 44 45 46 46 48 60 56 56 56 56 55 54 54 57 58 58
53 53 53 54 54 55 55 58 57 57 57 58 58 59 60 58 56 56 56 55 53 53 54 56 58 45 44 43 44 43 41 47 55 55 55 55 55 55 55 57 58 55
44 48 52 54 55 55 55 56 57 57 58 58 58 58 58 58 58 58 57 57 56 55 55 57 59 47 42 43 43 41 41 43 52 53 55 55 56 57 58 58 58 56
40 41 43 46 49 50 52 53 56 57 58 57 57 57 57 56 56 56 57 57 56 56 57 57 58 46 42 42 42 42 42 40 53 54 57 59 58 57 55 56 56 57
41 41 41 41 42 47 49 49 51 55 57 58 57 57 56 55 55 56 56 56 56 57 58 59 62 41 42 43 42 41 40 52 54 55 57 57 56 56 55 54 52 52
39 41 41 41 41 41 41 47 50 53 56 56 56 56 56 55 55 55 54 55 54 55 55 56 60 44 41 42 41 40 42 54 55 54 55 53 54 54 52 50 52 53
38 37 39 41 41 41 42 45 46 48 49 55 55 55 55 55 54 54 54 54 53 54 54 54 57 48 39 41 41 40 47 55 53 54 54 53 54 52 50 51 49 46
35 38 39 40 41 41 44 44 43 44 45 47 51 54 55 54 54 54 54 55 56 56 56 56 57 48 39 39 40 40 46 56 56 50 46 50 49 48 50 49 49 44
34 36 38 39 41 42 43 43 43 43 44 45 47 47 48 51 53 54 55 55 56 57 58 58 57 54 45 39 40 40 41 54 52 45 45 48 46 47 47 48 48 45

ECMWFNIL_sfc_dewp_036.txt.gz
Dewpoint
62 61 61 61 61 62 61 61 62 59 63 61 61 60 59 58 58 59 60 60 60 61 60 59 60 60 58 57 58 56 57 60 60 60 60 60 59 57 55 54 54 52
62 62 59 60 61 61 63 65 63 63 62 62 60 60 58 58 59 59 58 58 58 59 59 60 60 59 57 55 57 57 57 57 55 56 58 56 55 56 56 56 53 53
62 62 59 60 60 62 61 63 64 64 61 61 60 58 57 58 57 58 59 58 57 58 59 58 55 56 56 57 57 57 57 55 53 53 54 53 55 55 54 54 54 53
62 62 60 61 60 60 60 61 62 61 61 59 58 57 56 56 58 57 56 56 57 57 57 58 59 57 53 55 56 55 54 54 54 56 56 56 55 56 57 56 54 52
61 61 61 60 59 59 60 59 59 60 60 60 58 58 56 57 56 55 55 55 55 54 56 54 55 56 56 54 53 53 53 53 55 54 53 54 55 56 56 56 54 54
61 59 58 57 58 59 59 57 57 57 58 59 58 57 56 56 54 53 53 53 53 52 53 52 53 54 53 54 54 54 54 51 50 50 49 50 51 53 50 54 54 54
60 60 59 57 58 59 58 59 58 57 59 58 56 58 55 55 53 51 49 51 49 49 49 53 53 54 55 55 54 53 52 52 52 50 48 50 51 52 51 52 50 51
60 60 57 57 59 59 59 58 58 59 60 57 58 56 55 52 50 54 52 50 48 47 49 48 50 52 54 55 51 54 53 53 54 52 50 51 54 50 51 52 54 50
59 58 57 58 58 58 57 56 57 58 57 59 58 56 57 56 53 54 52 50 49 49 47 48 49 51 55 53 54 53 52 54 54 53 53 53 51 50 46 51 51 52
59 57 56 57 57 57 57 57 56 56 56 57 55 54 54 57 53 52 53 53 51 47 47 48 50 52 51 49 49 52 53 52 52 53 52 52 51 47 46 51 51 51
59 58 57 57 57 57 58 56 57 55 54 52 57 55 54 57 51 54 53 51 54 48 47 49 49 50 49 50 53 53 54 54 52 52 53 52 51 52 51 51 51 52
62 61 60 58 58 57 58 58 55 56 55 55 53 52 56 57 51 53 49 48 48 47 47 47 48 51 49 48 48 54 54 54 54 53 53 51 51 52 50 53 52 53
61 60 61 60 59 59 61 59 56 61 54 54 55 54 56 56 52 54 54 53 46 51 48 49 48 49 52 52 50 51 52 52 55 54 54 54 53 52 51 53 52 52
60 61 61 61 60 61 59 60 61 61 58 58 56 57 54 53 53 53 53 54 51 51 50 51 52 50 52 53 52 54 55 54 56 55 54 55 55 53 53 53 54 54
61 59 60 60 59 59 59 60 60 60 60 59 58 59 56 53 55 54 52 50 52 52 53 52 55 52 53 53 54 53 55 56 56 54 56 55 55 55 55 55 54 54
58 60 59 60 59 60 60 60 59 59 59 58 57 58 58 55 56 55 52 51 52 53 54 56 56 55 53 48 49 57 54 52 57 57 56 56 56 55 56 56 58 58
57 58 59 59 59 60 59 58 58 59 58 58 59 59 59 59 57 53 53 51 50 53 56 57 58 58 46 45 47 49 56 57 57 57 58 57 57 57 58 60 58 57
57 56 58 58 58 57 58 57 58 58 58 59 60 60 59 60 58 57 55 56 54 53 56 56 57 49 44 47 47 46 46 56 58 58 59 58 58 58 58 58 57 56
55 55 55 56 56 57 58 58 58 59 58 58 58 59 58 59 58 58 58 59 58 55 56 58 58 50 47 45 46 46 42 49 57 59 58 58 57 59 57 57 55 55
50 52 54 56 57 58 57 56 57 57 59 59 58 57 57 58 59 59 60 59 59 58 56 58 55 50 46 44 44 43 42 45 55 58 58 58 59 57 58 56 57 55
42 43 44 51 56 57 57 55 56 57 57 57 57 58 58 57 58 58 59 58 58 58 58 57 56 48 46 44 42 42 42 44 53 55 55 56 56 53 54 56 57 56
41 43 46 44 45 48 52 55 57 57 57 59 58 58 58 59 58 58 58 58 58 58 58 58 57 46 45 43 42 41 42 50 53 54 54 55 57 57 56 56 56 57
39 40 43 44 45 45 46 52 54 55 57 57 57 57 57 57 57 57 57 57 57 57 57 57 57 49 43 42 41 41 44 51 54 53 53 53 56 57 57 57 56 56
36 36 39 42 43 43 46 49 48 49 52 57 56 56 56 56 56 56 56 55 56 55 56 56 57 52 44 43 41 40 46 52 53 53 52 53 55 55 55 51 48 49
36 37 39 41 42 44 47 47 48 49 48 49 54 54 55 56 54 53 54 55 55 56 55 56 56 48 41 41 41 41 45 53 53 52 52 54 54 53 53 50 46 43
35 36 39 40 40 42 45 46 46 46 47 48 48 46 48 51 53 53 54 55 56 57 58 57 56 55 46 40 41 40 42 52 54 53 53 53 52 50 51 49 45 43

ECMWFNIL_sfc_dewp_039.txt.gz
Dewpoint
56 56 55 55 55 56 56 55 56 54 57 57 57 57 56 55 55 56 56 57 57 55 54 55 56 55 56 56 56 57 58 58 57 57 56 55 54 54 54 52 52 54
57 56 56 56 56 57 57 55 55 57 58 57 55 54 54 55 56 55 55 55 55 54 55 56 55 53 54 54 54 54 55 55 54 55 53 53 52 50 49 49 49 50
57 55 55 55 55 55 56 57 58 57 56 55 53 53 54 54 53 53 55 55 56 55 53 52 52 54 54 54 53 51 50 51 52 53 53 51 52 52 52 51 52 51
57 55 56 56 56 55 55 55 56 56 55 53 52 53 53 54 54 55 56 58 54 52 52 53 53 52 53 53 52 51 50 50 52 53 53 53 53 51 51 50 50 50
58 56 58 57 56 55 54 55 55 55 54 53 53 53 53 53 51 52 52 53 53 53 52 51 52 52 52 50 49 49 50 51 51 51 51 51 52 53 51 50 50 51
59 58 58 56 55 54 53 54 55 56 54 52 52 53 53 51 51 51 51 51 51 52 51 51 52 50 48 47 48 48 51 50 50 50 50 51 51 51 50 51 52 51
58 57 56 55 55 54 53 54 55 55 54 53 54 52 52 51 50 50 49 50 50 50 49 49 50 48 48 48 49 50 48 48 48 49 50 49 50 50 51 50 50 50
58 56 56 56 55 55 53 54 54 55 54 53 53 51 51 51 48 48 49 48 48 49 50 51 50 49 50 51 48 46 47 50 49 48 48 49 50 49 49 52 50 48
59 56 56 56 55 55 54 54 54 54 53 53 53 50 52 50 48 49 48 47 48 48 48 49 49 50 51 48 48 49 50 50 49 48 50 48 47 49 49 49 49 49
59 58 56 55 55 54 53 54 54 54 54 54 52 50 52 51 49 48 49 47 46 47 47 48 51 51 49 49 50 51 49 48 49 49 48 47 48 48 48 48 48 46
58 59 58 57 56 56 55 54 53 53 54 52 51 49 52 51 48 49 49 47 47 46 47 48 49 48 48 48 50 51 49 48 48 48 49 48 47 47 51 48 48 46
58 57 57 59 56 56 56 54 52 51 52 53 50 48 51 50 46 49 49 48 47 46 47 47 47 48 47 48 49 51 49 48 48 50 50 49 47 48 48 48 47 47
57 57 57 58 58 57 57 55 52 51 51 51 51 50 51 49 46 48 49 48 48 47 47 47 48 49 48 48 48 50 48 50 49 48 51 49 48 48 49 49 50 49
57 58 58 59 58 58 58 55 55 52 51 52 51 51 50 50 45 49 48 48 46 48 47 47 47 49 48 47 47 50 49 51 49 50 50 51 49 50 50 50 51 51
58 58 58 57 57 58 59 58 57 57 57 56 56 56 52 50 50 49 48 48 48 47 48 49 48 49 50 50 48 50 50 50 52 50 50 51 50 52 54 55 54 53
59 59 58 58 58 58 58 58 58 57 55 55 56 55 56 55 51 51 47 45 48 49 50 50 50 50 51 49 49 51 52 50 54 52 53 52 52 54 54 54 54 54
58 58 58 58 58 58 58 58 57 57 55 55 56 56 56 55 56 53 49 47 48 49 51 51 52 51 46 43 46 48 52 52 53 53 53 54 54 54 54 54 53 54
57 58 57 57 58 57 57 57 57 56 55 56 55 55 55 56 55 54 54 52 49 48 52 54 54 47 44 44 44 44 49 54 54 54 54 55 55 54 54 54 54 53
56 57 57 57 57 57 57 56 56 55 55 54 53 54 53 54 55 55 55 55 52 49 50 55 54 44 43 44 43 42 45 52 56 55 55 55 55 55 55 54 53 53
43 49 53 54 56 56 55 54 54 54 55 54 53 53 53 53 53 54 55 55 55 54 53 54 54 47 44 44 43 42 43 48 54 55 56 56 55 55 55 55 54 53
37 38 40 43 49 54 54 54 53 52 54 53 52 52 52 52 53 53 54 54 54 54 53 54 55 50 46 44 43 42 40 45 51 53 55 55 55 55 54 54 54 54
36 35 36 39 42 43 45 46 51 52 52 53 52 52 52 52 52 53 54 55 55 54 54 53 54 49 46 44 44 43 42 47 50 51 52 54 53 54 55 55 54 54
35 35 35 37 40 42 43 44 45 50 53 53 52 51 52 53 53 53 54 54 54 53 53 52 54 49 44 44 44 42 43 48 49 50 51 52 53 54 55 55 55 55
35 35 36 38 39 40 41 42 43 44 46 52 52 52 52 53 54 54 54 54 54 54 54 53 53 50 44 42 43 42 45 50 50 50 50 50 52 54 54 54 54 54
36 37 37 39 38 38 40 41 42 42 42 43 45 49 52 53 54 54 54 54 55 54 54 54 52 51 45 44 44 44 44 48 51 51 50 50 51 52 52 48 46 46
37 38 38 38 37 38 39 39 40 38 38 39 38 39 41 44 49 52 52 53 54 54 53 53 52 51 49 44 43 43 42 48 51 51 51 51 51 52 49 46 44 42

ECMWFNIL_sfc_dewp_042.txt.gz
Dewpoint
55 54 54 53 54 55 55 55 56 56 56 56 56 55 54 54 54 55 55 54 54 53 54 55 56 57 57 57 57 58 58 57 56 56 56 56 56 57 57 56 55 56
54 54 55 54 54 55 55 56 56 56 56 56 56 55 54 55 54 55 54 53 54 54 54 54 54 55 55 55 55 55 54 53 53 54 52 51 51 52 52 53 53 54
55 55 54 54 55 55 55 56 57 57 56 55 54 54 54 54 54 53 54 54 54 53 52 53 53 54 54 54 53 53 52 52 51 51 52 50 50 49 50 51 51 53
55 55 55 55 55 56 57 57 56 55 54 53 53 54 54 54 53 54 55 56 52 51 51 52 52 52 51 51 51 50 50 51 51 52 52 52 52 50 49 50 50 50
55 56 55 55 55 56 56 55 54 53 52 52 53 53 54 53 52 53 52 51 51 51 51 51 51 51 50 50 50 50 50 50 50 51 50 50 49 50 50 50 48 47
56 56 55 54 55 55 55 54 53 52 52 51 52 53 52 52 52 52 51 51 51 50 50 51 50 49 49 49 49 50 50 50 50 51 51 50 49 49 49 48 47 47
58 55 54 54 54 55 54 54 53 52 51 51 53 51 51 51 51 51 50 50 50 50 50 49 47 47 48 48 49 49 48 49 49 50 50 49 50 49 50 50 49 49
58 57 54 53 53 54 55 54 53 52 52 52 51 51 50 50 50 50 50 50 49 49 49 48 47 47 47 48 48 48 47 49 49 49 49 48 48 48 48 50 48 48
58 58 57 55 53 53 54 54 54 53 53 51 51 51 51 49 49 49 49 48 48 48 49 48 48 48 48 48 47 47 47 47 49 48 48 48 48 48 49 48 47 48
58 58 58 57 55 54 53 54 54 53 53 52 51 51 51 50 48 48 48 47 48 48 48 48 49 49 48 47 48 48 48 48 48 48 48 48 49 48 48 47 46 45
57 58 57 57 56 56 54 54 53 53 53 52 51 50 51 50 49 48 47 47 48 47 47 49 49 49 48 48 49 49 48 49 49 48 48 48 48 48 52 47 46 45
57 57 57 57 56 56 56 53 53 53 53 53 50 50 52 50 48 48 47 46 46 47 48 49 49 48 47 49 50 48 48 48 48 48 48 47 48 49 48 47 47 47
56 56 57 57 56 57 58 56 52 52 52 52 51 50 51 49 48 49 49 46 46 47 48 48 48 48 47 49 49 48 47 47 48 49 48 47 47 48 47 47 47 47
56 55 56 57 57 57 57 56 53 52 52 52 52 51 51 48 47 49 49 47 46 46 48 48 48 47 47 48 49 49 47 47 48 48 48 47 47 47 48 48 47 47
56 56 56 57 57 57 57 56 56 56 55 55 54 54 52 50 48 49 48 48 47 47 47 48 48 48 48 47 48 49 48 48 48 49 49 48 48 48 49 50 50 50
56 56 57 57 57 56 56 56 56 55 55 55 55 55 55 54 52 50 48 48 47 47 47 49 49 49 50 48 48 48 48 48 49 49 49 50 51 50 50 51 52 51
56 56 56 57 57 56 55 55 56 55 55 55 55 55 55 54 54 53 51 47 47 48 48 49 49 49 46 43 42 45 48 49 49 49 50 51 51 51 51 52 51 51
55 55 55 56 55 55 55 55 55 54 54 53 54 54 53 53 54 53 53 52 49 48 49 49 49 48 44 42 42 43 46 49 50 49 51 52 52 52 52 53 52 51
55 55 55 54 54 53 54 54 54 54 54 53 53 53 53 53 52 52 53 53 51 48 49 51 51 46 42 42 42 43 44 47 50 51 52 52 52 53 53 53 53 52
39 43 50 52 54 54 54 53 53 53 52 52 52 52 52 52 52 52 52 52 53 52 50 51 51 46 41 42 42 42 43 47 52 53 53 53 53 53 54 54 53 53
36 38 40 42 46 49 50 52 52 52 53 52 52 52 53 52 52 52 52 53 52 52 52 51 53 48 42 41 42 42 43 48 53 54 54 54 54 54 53 54 53 53
37 37 38 39 40 41 42 43 46 51 52 50 50 50 50 50 50 49 51 51 51 52 51 51 52 46 42 42 42 41 41 48 50 53 54 54 54 53 51 52 53 54
37 37 38 38 38 38 38 39 40 41 44 46 47 48 48 48 49 49 50 51 51 51 51 53 52 49 43 42 42 39 44 48 48 49 50 53 53 53 52 53 54 54
37 37 37 37 37 37 37 38 38 38 38 41 42 43 45 46 48 49 50 50 51 51 52 52 53 51 46 41 41 41 46 50 50 50 48 50 51 50 52 53 53 53
37 37 37 37 37 37 37 37 37 37 38 38 38 38 39 40 43 45 48 49 50 51 53 53 52 51 46 43 41 41 45 49 50 50 49 49 50 51 50 52 53 52
37 37 37 37 37 37 37 37 37 37 37 37 37 37 37 39 40 42 44 46 48 49 50 52 52 52 50 44 43 41 43 49 50 50 50 50 50 50 51 51 51 50

ECMWFNIL_sfc_dewp_045.txt.gz
Dewpoint
55 54 54 54 55 56 55 55 55 55 55 54 54 54 54 54 54 54 54 53 53 54 54 55 55 55 56 55 56 56 56 55 55 56 57 56 56 56 56 55 54 55
54 55 55 55 55 56 56 56 55 55 55 54 54 53 52 54 53 54 53 53 53 53 53 54 54 54 54 55 54 55 53 52 53 55 55 55 56 56 56 55 55 54
54 54 54 54 55 55 55 56 56 55 56 55 54 53 53 53 53 52 53 52 52 52 53 53 53 53 53 52 52 52 52 50 50 50 52 53 53 55 54 54 54 55
54 54 54 54 55 54 55 55 54 55 54 54 53 53 53 53 52 52 54 55 51 50 51 52 52 52 52 51 51 50 50 50 50 50 51 50 50 51 51 53 53 53
55 55 55 55 55 55 55 55 55 54 54 53 53 52 53 52 52 51 50 50 50 49 50 51 50 50 50 50 50 50 50 49 49 49 50 49 48 50 50 52 52 52
56 56 55 55 55 55 55 55 54 54 53 52 52 53 51 51 51 50 49 49 49 49 49 49 49 49 49 49 49 49 49 50 49 49 49 49 48 48 48 48 49 50
56 56 54 55 54 54 54 53 53 53 52 52 53 51 51 51 50 49 49 49 49 50 48 47 47 47 48 48 48 48 48 49 48 48 49 47 49 48 47 47 47 48
57 56 55 54 55 54 53 53 52 52 52 52 51 51 51 51 50 49 49 49 48 48 47 47 46 46 47 47 48 47 47 49 49 48 48 47 47 47 47 48 47 46
57 57 55 54 54 54 53 53 52 52 53 51 51 50 50 50 50 49 49 49 48 48 47 46 46 46 47 47 46 47 47 47 48 47 47 47 47 47 47 46 46 46
56 57 56 55 54 54 53 53 52 52 52 51 50 50 49 49 48 49 48 47 48 47 47 46 47 47 46 46 47 47 47 47 47 47 47 47 47 47 46 46 45 45
56 56 56 56 56 56 54 54 53 53 52 50 50 50 50 49 49 48 47 47 47 47 47 47 47 47 46 46 47 47 47 47 47 47 46 47 47 47 50 45 45 44
56 56 55 55 56 56 57 55 53 53 52 51 50 50 50 49 48 48 48 47 47 47 47 47 48 47 47 47 47 47 46 47 47 47 47 47 47 48 47 46 46 46
56 56 55 55 56 56 56 57 55 54 53 51 51 50 51 49 48 48 49 47 47 47 48 48 48 47 46 47 47 46 46 46 47 47 47 46 47 48 47 46 46 47
54 54 56 56 56 56 56 56 55 53 53 53 51 50 51 50 48 48 48 47 47 47 48 49 48 47 47 47 48 47 46 46 47 47 47 46 46 46 46 46 46 46
55 56 56 56 56 56 56 56 55 55 55 53 51 51 51 50 49 49 49 48 47 47 48 49 49 48 48 48 48 47 46 46 47 47 47 46 46 46 47 47 47 47
55 56 56 56 55 54 54 55 55 55 55 54 54 54 53 52 48 49 48 47 47 46 47 48 48 49 50 48 48 48 47 47 48 47 47 46 46 47 48 49 48 48
55 55 55 55 55 55 54 54 54 55 54 54 53 53 53 53 52 50 47 47 47 46 46 48 48 49 46 43 43 46 48 48 47 47 47 47 48 48 48 49 49 49
55 55 55 54 54 54 54 54 54 53 53 53 53 53 53 52 53 51 51 50 47 46 46 47 47 47 43 43 42 41 45 48 48 48 49 48 49 49 49 49 49 49
44 47 50 52 53 54 53 53 53 53 52 53 53 52 51 51 51 51 51 51 48 46 46 48 47 45 42 42 41 41 41 45 48 48 49 49 49 50 50 50 50 49
38 38 39 40 42 43 47 49 50 51 50 51 51 51 51 51 51 51 51 51 51 51 49 48 49 48 45 42 41 40 40 41 47 48 48 49 50 50 51 51 51 51
37 38 38 38 38 38 38 39 42 43 44 47 49 49 49 49 50 50 51 51 51 50 50 51 51 48 45 42 41 40 40 40 47 48 49 49 50 50 51 51 51 52
37 37 37 37 37 37 37 37 38 39 40 43 44 45 45 45 45 46 47 48 49 50 50 51 52 46 42 41 41 42 42 46 48 50 50 51 51 51 51 52 51 52
37 37 37 36 36 36 36 36 36 37 38 40 41 42 42 42 43 44 45 46 48 48 49 50 51 48 43 41 41 41 42 47 47 50 51 51 51 51 52 52 52 52
37 36 36 36 36 37 37 37 37 37 37 38 37 37 37 38 41 42 42 44 45 46 48 49 50 49 46 44 41 40 43 49 49 49 49 49 49 50 51 51 51 52
36 36 36 36 36 36 37 38 38 37 37 37 36 36 37 37 39 38 38 39 41 43 47 47 47 47 45 44 43 41 43 49 50 49 49 48 49 50 49 47 48 52
36 37 36 36 35 35 36 36 37 36 36 36 36 35 35 36 36 37 37 38 40 41 42 43 45 46 46 43 43 43 41 46 48 49 50 50 49 49 48 47 49 49

ECMWFNIL_sfc_dewp_051.txt.gz
Dewpoint
61 62 62 62 62 63 63 63 63 63 63 62 60 61 60 64 62 62 62 63 63 63 64 64 64 65 65 65 65 63 63 65 64 64 63 63 63 63 63 62 63 62
61 62 61 61 61 62 63 63 63 63 63 64 62 62 63 62 62 61 61 62 63 63 63 64 64 64 64 63 65 64 64 64 65 62 64 64 63 63 63 63 62 62
61 61 61 61 61 62 63 63 63 63 62 62 63 62 62 62 61 60 61 62 62 63 63 64 64 64 64 63 64 63 63 63 63 63 63 63 63 63 63 62 61 62
60 61 61 61 61 61 62 61 62 62 61 60 61 61 61 61 61 60 61 60 62 62 63 63 63 62 62 62 63 62 62 62 62 63 63 63 63 62 63 61 61 60
60 60 60 60 61 61 61 61 61 60 61 61 61 60 60 60 59 59 60 60 61 61 61 61 61 61 61 62 61 61 61 60 60 61 62 62 62 62 62 61 60 61
58 58 58 59 60 60 61 60 60 60 60 60 61 60 60 60 58 57 58 59 59 60 60 59 59 58 59 59 59 59 58 57 57 58 58 59 59 61 59 61 60 60
60 59 59 59 60 61 61 61 60 60 60 60 59 59 59 58 57 56 56 57 57 58 58 59 58 57 57 57 56 57 57 56 55 54 54 56 57 59 59 61 60 60
59 59 59 59 60 60 60 59 60 60 60 59 59 58 58 57 56 57 56 56 55 56 57 57 57 56 56 56 54 57 57 56 56 54 54 54 56 55 58 59 61 60
59 59 59 60 60 60 59 59 59 59 58 59 58 58 58 57 56 56 55 54 54 55 55 55 56 56 57 56 56 55 54 56 56 55 55 55 55 54 53 57 59 60
59 59 59 59 59 59 59 58 58 58 57 58 57 57 56 57 56 54 54 54 54 52 53 53 53 55 54 53 53 54 53 53 53 55 54 53 53 51 50 55 58 59
59 59 59 59 59 58 57 57 57 56 56 56 57 57 56 55 54 54 53 52 54 51 51 51 52 52 52 53 55 55 54 55 53 52 54 53 54 53 54 54 57 59
59 59 59 58 58 57 57 56 55 55 55 55 55 55 56 56 55 53 52 50 49 50 50 50 50 51 50 50 51 54 55 56 55 55 54 52 54 54 52 53 56 57
58 59 59 58 59 58 58 56 56 56 53 53 53 53 53 54 54 53 53 51 50 51 50 51 50 50 51 52 51 51 53 53 54 55 55 55 54 52 52 52 53 53
57 57 59 59 58 58 58 59 58 57 57 56 55 55 54 52 51 51 53 52 53 51 52 53 52 52 50 51 50 52 53 54 54 54 52 54 56 53 54 53 53 53
57 57 56 56 57 57 57 58 58 59 59 58 58 57 57 54 53 52 51 50 50 52 51 53 54 53 51 53 52 52 53 53 54 51 53 52 54 53 53 53 52 53
57 57 56 57 57 57 56 57 58 58 58 58 58 59 58 58 56 53 52 52 51 50 52 54 54 55 52 48 48 52 53 49 54 54 52 52 52 53 54 53 53 55
55 55 56 56 56 56 57 57 58 57 56 56 56 56 57 57 58 56 56 54 51 52 52 54 54 51 42 43 44 45 52 55 54 54 54 54 54 53 53 55 55 53
51 51 51 52 53 53 54 53 53 53 52 52 53 53 53 54 54 54 56 56 57 57 56 55 52 42 40 40 42 42 45 53 54 53 55 54 53 53 53 54 55 56
43 43 43 44 45 47 48 47 46 46 47 47 48 50 50 49 50 52 53 54 55 53 52 50 48 40 40 40 39 40 41 46 50 52 52 53 54 54 55 55 56 56
40 40 40 41 41 42 42 42 43 43 45 46 47 47 47 48 48 49 50 50 52 51 49 46 45 40 39 40 40 39 39 42 51 53 53 52 53 54 56 55 56 55
39 39 40 40 40 41 42 41 42 43 43 44 44 45 45 45 45 47 48 48 49 49 47 45 43 38 38 39 39 40 40 41 52 53 53 53 54 55 54 55 56 57
38 38 38 38 39 40 42 40 41 41 42 44 43 43 43 43 43 44 45 46 47 48 47 45 43 37 37 38 38 40 43 55 56 55 54 54 54 54 54 54 54 54
37 38 38 38 38 38 39 40 40 40 44 45 43 42 41 41 42 42 43 44 44 45 46 45 43 38 37 37 37 38 45 53 55 55 57 57 57 57 55 55 55 54
37 36 37 38 38 38 38 39 39 39 39 42 43 43 41 43 43 40 41 42 43 43 43 44 43 40 37 37 37 38 42 49 48 50 54 55 57 57 56 56 56 54
37 37 37 37 37 38 39 38 38 39 39 39 39 39 39 39 42 39 40 40 41 42 42 44 43 41 37 37 37 38 43 47 47 47 49 50 50 52 54 55 55 54
38 38 38 37 37 38 39 39 39 38 39 39 38 36 37 37 38 38 39 39 40 41 42 42 42 41 39 36 37 38 39 45 45 44 46 47 48 48 48 52 53 54

ECMWFNIL_sfc_dewp_054.txt.gz
Dewpoint
65 65 64 63 62 62 61 60 59 60 59 58 58 59 58 60 61 61 61 62 61 61 61 61 61 61 61 63 66 63 62 64 63 63 63 62 62 62 61 61 62 62
64 65 65 64 63 62 62 61 60 59 59 59 58 58 59 60 61 60 60 61 60 60 61 61 61 60 60 59 64 63 63 64 64 62 63 64 63 62 62 62 62 63
64 65 65 64 63 64 63 61 61 60 60 60 60 59 60 60 61 61 61 61 59 60 61 60 60 59 58 59 61 61 62 64 64 64 63 62 63 63 63 63 62 62
63 64 64 64 64 64 63 62 61 60 60 60 59 59 59 60 60 60 61 60 59 59 60 59 59 58 57 58 60 58 59 60 62 64 64 63 63 62 63 63 62 62
63 63 64 64 64 64 63 61 60 60 60 59 60 60 58 60 59 57 58 59 60 59 59 59 58 58 58 58 58 58 59 58 61 62 60 62 62 63 63 63 62 61
63 63 63 63 64 63 61 59 59 59 59 59 60 58 59 58 57 56 57 57 57 57 58 58 58 58 57 58 58 58 57 56 59 59 58 58 58 62 58 62 62 61
62 62 63 62 62 61 60 59 59 60 59 59 58 59 59 58 56 56 55 56 55 55 55 56 58 58 57 57 56 56 55 56 56 55 54 54 56 59 58 62 61 60
61 62 62 62 62 61 59 58 59 59 60 59 60 59 58 56 56 56 55 55 55 54 55 54 56 56 56 56 55 57 57 55 55 53 53 53 55 54 57 60 62 60
61 61 61 62 62 61 59 58 59 59 59 59 59 58 57 57 56 56 55 54 53 54 53 55 54 55 56 56 56 55 54 55 55 54 54 54 53 52 52 57 62 61
61 62 61 62 62 60 60 59 59 59 59 59 58 57 55 57 55 53 52 53 53 53 54 55 54 55 56 55 53 53 53 53 52 53 53 53 52 50 50 53 60 61
62 62 62 61 61 60 62 61 60 59 59 58 58 56 56 54 52 52 52 51 53 50 51 52 53 53 53 54 55 54 53 54 52 51 53 52 52 51 54 54 56 60
62 62 62 61 61 61 61 61 60 59 58 58 55 54 52 52 52 51 50 48 48 47 46 47 47 49 48 49 50 52 53 55 54 53 51 50 51 51 50 54 56 59
61 61 61 61 61 61 60 59 58 59 57 55 54 53 53 52 51 50 51 48 47 48 47 47 46 45 47 48 48 49 51 51 54 54 52 53 51 50 50 51 53 58
60 61 60 60 59 59 58 58 57 56 54 53 53 53 53 51 51 50 50 48 48 47 48 48 48 46 45 47 46 50 51 51 52 54 52 52 53 51 52 51 51 54
59 58 58 57 58 57 57 56 55 55 54 54 54 54 53 50 50 49 48 47 47 48 46 49 49 49 54 56 49 47 48 49 49 49 53 52 51 51 51 50 50 52
58 58 58 58 57 57 57 56 56 56 57 57 56 54 54 55 53 52 50 49 48 48 50 53 56 56 48 43 45 53 49 46 49 50 49 51 51 50 50 50 50 52
58 56 56 58 57 57 57 57 57 59 58 57 57 57 57 57 56 55 54 52 52 54 57 57 54 48 40 39 39 44 52 53 52 50 49 50 51 51 50 50 51 49
55 55 55 56 57 56 56 56 56 57 58 58 58 58 56 57 57 58 58 57 56 54 54 53 50 41 39 39 39 40 43 55 52 52 51 50 49 50 50 51 51 52
53 53 53 53 53 53 53 53 52 52 53 55 55 55 55 55 56 57 57 54 52 50 48 46 45 39 38 39 39 39 39 46 49 51 50 50 50 50 51 51 50 51
49 49 50 51 51 51 53 51 50 50 50 50 51 52 53 53 54 55 54 52 49 47 45 44 44 39 37 38 39 39 38 40 52 54 52 51 52 52 53 53 52 52
43 44 45 46 47 48 46 45 48 47 46 46 47 48 48 48 49 50 51 51 49 46 45 44 43 37 37 37 38 38 39 39 56 56 53 53 53 54 54 54 54 55
41 41 42 42 43 43 43 43 45 45 45 44 44 44 45 45 46 47 48 49 50 48 45 43 42 37 37 37 37 38 38 57 57 57 55 54 55 55 55 54 54 54
40 39 39 39 40 40 41 43 43 45 46 43 43 43 43 43 44 44 45 45 46 47 46 43 42 39 37 37 37 37 46 53 55 54 55 56 57 58 56 57 57 56
38 38 38 39 39 38 40 41 41 43 44 44 46 45 43 44 44 42 42 43 44 46 47 45 42 39 37 37 37 37 40 50 48 50 53 54 55 58 57 57 59 54
38 38 38 38 39 39 40 42 40 40 41 41 41 42 43 41 41 40 41 42 42 43 44 46 44 41 37 37 37 37 42 48 45 46 49 50 49 51 53 53 56 55
39 39 39 39 39 40 41 40 39 40 41 40 39 37 38 38 38 40 41 41 42 42 43 43 44 41 38 37 37 37 37 44 45 44 45 45 45 44 45 49 52 53

ECMWFNIL_sfc_dewp_057.txt.gz
Dewpoint
67 65 65 64 62 63 62 63 60 60 59 59 58 59 59 61 61 61 61 60 60 60 60 61 61 63 64 64 64 62 61 63 62 63 62 64 62 63 63 62 63 63
65 65 65 63 63 64 63 64 61 59 59 59 59 59 60 59 60 61 61 60 60 60 60 60 60 59 60 61 64 63 62 62 62 61 63 64 63 64 63 63 61 63
66 65 65 64 63 64 63 63 62 60 59 58 60 60 59 60 60 59 60 61 59 59 60 60 59 59 59 58 62 63 62 63 63 62 63 60 62 63 63 63 62 63
64 64 64 64 64 61 62 60 60 59 59 59 58 58 59 60 60 60 60 59 59 60 60 59 59 58 57 58 61 60 61 61 62 62 63 62 62 62 63 63 63 64
64 64 64 63 64 63 62 60 59 59 60 60 60 59 59 59 59 58 60 59 59 59 59 59 58 58 58 58 58 58 59 61 62 63 61 62 62 62 62 63 62 62
64 64 63 63 62 62 61 59 58 59 60 59 59 57 58 58 57 57 57 57 55 57 56 58 57 57 57 57 58 58 58 57 60 60 61 61 60 61 60 61 60 61
63 63 64 63 62 61 60 60 60 60 59 60 57 57 57 57 56 55 55 55 54 53 53 56 57 58 57 58 57 57 56 56 56 55 54 54 56 60 57 58 60 60
62 63 62 58 60 60 58 58 59 59 60 58 58 57 56 55 55 55 55 55 54 53 54 53 55 55 56 56 54 56 56 55 55 53 52 53 55 54 56 59 60 60
63 63 62 60 59 58 58 58 60 60 58 58 58 57 56 55 54 55 55 54 54 54 54 53 53 53 55 55 55 55 54 54 54 53 53 54 54 53 52 58 59 59
63 62 62 60 59 58 58 59 60 60 59 59 58 57 55 57 56 54 53 54 54 52 53 53 53 53 54 53 53 53 53 53 52 54 53 53 52 50 49 54 59 58
63 62 61 61 58 58 59 59 59 60 59 58 58 57 57 56 53 53 51 51 53 51 52 52 52 52 53 53 54 54 53 53 51 51 53 52 52 51 56 52 58 59
62 62 62 59 59 60 58 59 60 59 59 58 55 55 54 53 51 50 49 48 49 50 50 51 51 52 51 51 51 52 54 54 53 52 52 51 51 50 51 53 56 59
61 61 63 62 62 62 59 58 59 59 58 56 54 53 51 50 49 49 50 47 47 47 47 47 48 47 49 50 50 50 51 53 53 53 52 52 51 50 51 53 55 60
62 62 62 62 62 61 59 59 58 58 57 55 53 50 50 49 50 49 50 48 48 46 47 48 47 45 45 46 46 49 51 52 53 54 52 53 53 51 52 52 54 58
63 62 63 62 60 59 58 57 57 57 55 52 53 53 53 50 50 49 48 47 47 49 48 48 51 54 51 51 51 50 49 51 52 51 52 51 51 51 52 51 52 54
61 62 61 58 57 57 56 57 55 54 53 52 51 51 50 49 48 48 46 46 46 46 50 59 56 55 46 42 42 49 53 46 50 51 51 51 51 50 51 51 51 53
59 59 59 58 56 56 56 55 54 54 52 51 54 56 56 55 52 50 50 49 50 57 57 55 52 45 40 39 39 40 48 56 48 49 50 50 50 49 50 51 52 50
57 58 57 58 56 56 56 57 57 56 56 56 57 57 56 57 58 55 57 57 55 53 52 50 46 39 38 39 40 39 40 50 54 51 50 50 50 49 48 50 51 51
56 56 55 55 55 55 55 54 54 55 55 57 58 58 58 57 57 57 55 53 51 49 48 46 43 39 37 38 38 38 39 44 49 50 49 48 49 49 49 49 50 51
56 54 54 54 54 54 54 55 56 56 57 56 56 57 57 57 57 55 52 50 48 46 44 42 41 39 37 37 38 38 37 40 50 52 50 49 49 49 50 50 50 50
53 51 52 53 53 54 53 52 54 54 54 56 54 54 54 54 54 52 50 49 47 45 43 42 41 37 37 37 37 37 37 39 55 55 51 51 51 52 53 53 53 54
48 51 50 48 49 49 49 49 50 52 52 53 50 49 50 51 52 52 51 49 47 46 44 41 41 37 36 36 36 36 37 53 57 54 51 50 50 51 51 51 51 51
44 44 46 46 47 48 49 50 52 51 48 47 47 47 46 46 47 47 48 49 47 46 45 42 39 38 36 36 36 36 41 53 53 52 53 53 54 54 52 51 52 52
45 44 42 43 44 44 46 47 47 46 47 47 46 45 46 46 44 44 45 46 48 48 45 43 40 38 36 36 36 36 39 51 50 50 51 53 55 57 55 55 59 54
46 44 43 43 45 44 43 43 44 44 44 45 45 44 44 44 43 43 47 45 44 45 48 47 43 40 36 36 36 36 40 48 47 45 49 50 50 50 53 53 56 48
41 40 41 41 40 41 42 42 41 42 42 42 41 40 42 41 41 42 43 43 43 43 44 46 44 40 38 36 36 36 37 46 48 44 45 44 46 45 46 47 53 49

ECMWFNIL_sfc_dewp_060.txt.gz
Dewpoint
64 64 64 64 64 64 64 65 64 63 62 63 62 61 62 64 64 65 65 65 65 65 64 65 65 66 67 66 67 65 63 65 64 65 65 64 64 63 64 63 64 63
64 64 64 65 64 63 63 64 63 63 62 63 63 63 63 64 65 65 64 64 64 64 64 64 64 65 65 65 67 66 64 64 64 62 65 64 64 63 64 64 63 63
65 65 65 64 63 62 62 62 62 62 62 62 63 63 63 64 64 65 65 64 63 63 65 65 64 64 63 63 66 66 65 64 64 63 64 62 64 63 64 64 63 63
65 65 64 64 63 62 62 62 63 63 62 63 62 62 62 62 65 64 65 64 63 63 64 64 64 63 62 61 65 66 64 65 64 64 64 64 64 63 63 63 63 62
64 65 65 65 65 63 63 62 62 62 62 62 63 62 61 63 63 62 64 64 63 61 63 63 63 63 63 62 63 63 63 65 65 65 64 64 64 64 64 63 63 62
64 63 63 63 63 63 63 61 62 62 61 62 63 61 62 62 61 62 62 62 61 61 62 62 63 61 62 62 63 63 63 61 63 64 64 63 63 62 61 63 63 62
63 62 64 63 62 62 62 63 61 61 62 62 60 61 61 61 61 60 58 59 57 58 58 61 62 62 63 62 62 61 62 62 60 60 58 60 60 62 61 62 61 60
63 63 63 62 61 62 62 65 61 62 62 60 61 60 60 59 58 61 60 60 57 56 58 57 60 61 62 61 59 61 61 62 60 58 56 57 59 59 59 60 63 60
63 63 62 61 61 61 63 64 62 62 60 61 60 59 61 60 59 59 58 60 57 60 56 57 57 58 60 61 60 60 59 60 60 57 59 57 58 58 55 59 61 61
62 62 61 61 60 60 62 63 62 61 61 60 59 59 58 62 59 57 58 60 59 57 57 57 58 56 60 59 56 57 58 58 57 59 58 58 58 55 53 58 61 61
62 61 61 61 61 61 62 63 62 61 61 59 60 59 59 59 58 59 59 58 59 56 55 57 56 54 57 58 58 59 59 59 57 57 59 57 57 54 57 58 60 61
62 61 61 61 60 62 62 61 62 62 62 60 58 58 58 59 58 56 54 52 53 54 53 54 56 54 55 56 54 57 58 61 58 59 57 56 53 57 56 58 60 61
61 60 61 61 61 60 61 61 62 63 61 59 58 57 56 57 56 57 58 55 56 55 55 57 54 52 56 57 56 55 57 57 59 58 57 59 56 56 55 59 59 60
60 60 59 60 60 60 61 62 61 61 61 60 57 55 56 54 54 54 57 57 52 54 53 54 51 50 49 50 51 55 57 57 58 59 58 57 58 57 57 57 60 61
58 60 62 61 62 61 60 60 60 60 61 58 54 55 57 53 54 54 56 51 52 55 56 55 53 49 46 46 48 50 53 56 57 56 57 58 56 57 56 56 60 61
60 61 60 61 62 60 60 60 59 59 58 55 55 55 55 55 54 55 51 52 55 55 54 53 50 48 43 41 42 47 52 51 56 57 57 57 56 56 56 56 59 60
60 61 60 60 60 59 59 58 56 56 55 56 57 57 57 56 54 57 56 54 53 52 50 49 46 41 39 38 39 41 48 52 53 56 57 57 56 56 56 56 56 55
58 59 60 60 61 58 58 56 56 58 57 57 57 58 58 58 56 54 53 52 51 48 47 46 43 40 37 38 38 39 42 49 53 53 56 56 55 55 56 56 55 53
57 56 56 57 56 56 56 56 56 56 56 56 57 57 57 56 54 53 51 50 47 45 43 42 41 38 37 37 38 38 38 46 50 53 54 56 54 56 56 57 54 53
55 54 54 54 54 54 55 55 56 56 57 57 57 56 56 55 53 51 50 48 45 42 41 40 39 38 36 37 37 37 37 41 52 54 57 56 55 57 58 56 57 56
53 53 53 53 53 53 53 54 54 54 55 56 57 57 56 53 52 50 48 47 45 43 42 41 40 36 36 36 36 36 37 43 56 58 57 56 56 57 56 57 57 57
52 52 52 52 51 52 53 53 53 53 53 54 54 55 54 55 52 50 49 47 47 46 42 39 38 35 35 35 35 36 39 54 58 58 57 56 55 55 56 56 56 57
49 50 51 51 52 51 51 52 52 52 52 52 50 50 49 48 49 50 50 49 47 44 42 40 38 36 35 35 35 35 41 51 52 52 57 57 56 57 56 53 53 57
48 48 48 49 49 49 49 50 51 50 50 49 48 47 46 46 46 47 47 48 47 46 43 41 39 37 35 35 35 36 40 50 49 49 53 51 55 59 58 52 46 49
48 48 48 48 48 48 48 48 48 49 50 50 49 46 45 44 45 46 46 46 46 47 48 43 38 37 36 35 35 35 41 48 47 47 45 45 46 48 56 49 43 42
50 49 48 48 47 48 49 49 49 50 49 50 46 43 44 45 45 46 45 44 45 45 46 43 38 36 37 35 35 35 38 46 42 39 38 39 42 42 46 51 45 40

ECMWFNIL_sfc_dewp_063.txt.gz
Dewpoint
64 63 62 62 62 62 62 62 61 61 61 61 61 61 61 61 64 62 63 63 62 62 62 63 63 63 63 63 63 63 63 63 64 63 63 62 62 61 61 62 61 61
64 63 63 62 62 62 62 62 62 61 61 61 61 61 62 63 63 62 62 62 62 62 63 63 63 64 64 64 63 62 62 63 63 64 63 62 61 62 62 62 61 61
64 63 63 62 62 62 62 62 62 61 61 61 61 62 62 62 62 62 62 61 61 61 61 62 62 63 62 63 63 63 62 62 62 63 63 63 62 62 61 62 61 61
64 64 63 62 62 62 62 61 60 61 61 60 62 62 61 62 61 61 61 62 60 60 61 61 61 62 62 63 63 63 62 62 62 62 62 62 62 62 62 62 61 61
64 64 62 61 61 61 61 60 60 60 60 61 61 61 61 61 60 60 61 60 60 60 60 59 59 60 61 62 62 62 62 62 62 62 62 61 62 62 62 62 61 60
63 62 62 61 61 61 60 60 60 61 61 60 59 60 60 60 60 60 60 59 59 59 59 59 59 59 60 60 61 61 61 62 62 62 62 61 61 62 62 62 61 60
62 60 62 62 61 61 61 61 61 61 60 59 59 59 59 59 60 59 59 59 59 59 58 59 57 58 60 59 60 60 60 61 61 60 61 61 60 61 62 62 61 61
61 61 62 62 61 61 61 62 60 60 59 59 58 58 59 59 58 58 58 58 58 58 59 58 58 59 57 58 57 57 58 61 60 60 59 59 59 60 60 61 61 61
61 61 61 60 60 61 62 62 60 59 59 58 57 58 58 58 58 58 57 57 57 57 57 56 57 56 58 58 57 58 57 58 58 58 57 57 57 59 59 61 60 59
61 61 61 60 60 61 62 62 61 60 58 58 57 58 59 58 57 56 57 55 56 56 56 56 56 55 57 57 56 56 56 56 56 57 56 55 56 56 57 59 59 59
60 60 59 59 59 61 61 61 61 59 57 56 57 58 58 56 56 57 57 56 56 55 55 55 53 54 54 56 56 56 57 54 54 55 55 55 56 56 60 59 58 59
60 60 59 59 59 59 61 61 60 59 58 57 58 57 55 55 55 55 54 54 54 54 54 54 53 53 53 54 53 53 55 55 55 54 55 55 54 56 58 59 59 59
60 59 60 59 59 60 61 60 60 60 57 58 57 55 54 54 54 53 52 53 53 50 49 49 48 48 49 50 51 53 54 56 55 54 55 51 53 57 59 60 60 59
59 59 59 58 60 60 60 60 60 59 57 55 54 53 54 53 51 52 53 53 53 51 49 48 46 45 45 46 48 51 53 54 55 53 55 54 55 57 59 59 59 59
58 58 58 59 59 60 59 59 58 57 57 53 53 53 53 51 53 54 53 51 50 49 47 46 45 44 44 45 46 47 51 52 53 54 53 53 53 57 59 59 58 58
59 59 59 59 59 58 59 58 58 58 55 54 54 54 55 55 54 53 51 49 47 46 44 44 43 43 42 41 43 46 49 50 52 51 53 54 52 55 58 58 58 58
58 59 59 58 58 58 59 58 58 58 58 57 56 55 54 52 50 49 48 47 45 43 42 41 40 40 39 38 39 41 48 50 51 51 52 53 53 54 56 57 56 57
58 58 58 58 58 58 57 57 58 58 57 55 53 52 51 50 48 47 45 43 42 40 39 39 38 39 37 38 38 38 43 50 50 52 53 53 52 53 55 56 55 54
57 57 57 57 57 57 57 57 57 57 56 54 52 51 49 47 46 44 42 41 39 37 36 36 35 37 36 37 37 38 38 45 50 53 54 53 53 54 54 52 52 52
55 55 56 56 56 56 56 55 55 55 55 53 51 50 48 46 44 42 41 40 38 36 34 34 34 37 36 37 37 38 39 44 53 55 55 53 53 54 54 54 54 54
53 53 53 54 54 54 53 53 53 54 54 53 52 50 48 46 44 43 42 40 38 35 33 33 35 36 35 36 37 39 43 48 54 56 55 53 53 54 55 55 54 52
52 51 52 52 52 52 51 51 51 51 51 51 51 51 49 47 46 44 42 39 38 35 33 32 33 35 35 37 38 40 45 50 50 54 55 54 51 50 50 52 51 49
49 49 49 49 48 49 50 50 50 49 49 49 47 48 47 48 47 44 42 41 39 36 33 32 32 35 35 36 39 41 45 48 47 46 49 52 46 43 44 45 44 42
48 48 48 47 48 48 48 48 49 49 49 49 47 46 46 46 46 46 45 43 39 36 34 32 32 35 35 36 38 39 42 44 43 42 43 49 47 43 41 41 43 45
48 48 47 47 47 47 48 48 48 49 49 49 49 47 45 45 45 45 45 43 40 37 38 33 33 36 35 35 36 37 38 36 37 38 40 42 46 44 41 39 38 40
49 48 48 48 47 48 48 48 48 49 48 48 48 47 45 44 43 43 43 43 41 37 36 35 35 36 36 35 36 36 36 35 36 38 40 41 42 46 42 40 38 37

ECMWFNIL_sfc_dewp_066.txt.gz
Dewpoint
63 62 62 62 62 62 61 61 60 60 60 61 61 61 61 61 62 62 63 63 62 62 62 62 63 62 63 63 63 63 63 62 62 62 61 60 60 60 60 60 59 59
64 63 63 62 62 62 62 61 60 60 60 61 61 61 61 61 62 62 62 62 62 62 63 62 63 63 63 63 63 63 62 62 62 63 61 60 60 60 60 60 60 59
64 63 63 62 62 62 62 61 61 60 60 60 61 61 61 62 62 62 62 62 61 62 62 62 62 62 63 63 63 62 62 62 62 62 62 61 60 60 60 60 59 59
63 63 63 62 62 62 61 61 61 61 60 60 60 61 61 62 62 61 61 63 61 62 62 62 62 62 62 62 62 62 62 62 62 62 61 60 60 60 60 60 60 59
61 62 62 62 61 61 61 61 61 61 60 60 61 61 62 62 61 61 61 61 61 61 61 62 62 62 62 62 62 61 61 61 61 61 61 60 60 61 60 61 60 59
63 63 62 61 61 61 60 60 60 60 60 60 61 61 62 62 61 60 60 60 60 60 61 61 61 61 62 61 61 61 61 61 61 61 61 60 60 61 62 60 59 59
61 61 60 60 60 60 60 60 60 60 60 60 61 61 61 60 60 60 59 59 59 59 59 59 60 60 61 61 61 61 61 61 61 61 61 60 60 60 61 61 60 59
60 60 61 60 60 60 60 61 60 60 60 61 61 61 61 60 59 59 59 59 58 58 58 58 59 60 60 60 60 60 59 61 60 61 61 60 60 61 61 61 60 59
60 59 60 60 59 60 61 61 60 60 60 60 61 60 60 59 59 59 58 58 58 58 57 57 58 59 58 59 59 59 59 59 60 59 59 59 59 60 60 60 59 59
59 59 60 60 60 60 60 61 61 60 60 60 60 60 60 59 58 58 58 58 58 57 57 57 57 57 57 57 58 58 58 59 58 58 58 58 58 59 59 59 59 58
59 59 60 60 59 60 60 60 60 60 60 60 60 59 58 58 58 58 57 57 58 56 56 56 56 56 57 56 56 56 56 58 58 57 57 57 57 58 60 59 58 58
59 59 59 59 59 60 60 60 60 60 59 60 60 58 57 57 56 56 57 57 56 55 53 51 52 54 54 53 54 55 55 54 56 56 56 56 56 57 59 59 58 58
59 59 59 58 59 59 60 60 60 60 60 59 59 56 55 55 54 54 53 52 51 50 49 48 48 49 50 51 53 54 54 54 54 54 54 54 55 57 59 58 58 58
58 58 58 59 59 60 60 60 60 59 59 59 56 54 54 53 52 51 50 49 48 47 47 47 46 46 46 48 50 53 54 53 53 53 53 55 57 58 58 58 57 58
58 58 58 59 59 59 58 58 59 59 58 57 54 54 54 51 50 49 47 46 45 45 45 45 45 45 45 46 48 50 52 52 53 53 55 57 57 57 57 57 56 56
58 58 58 58 58 58 58 58 58 57 56 56 55 54 51 49 48 47 46 45 44 43 43 43 43 44 43 42 43 47 50 51 52 53 53 56 57 56 55 56 56 56
58 58 58 57 57 57 57 57 57 57 57 54 52 50 49 48 46 45 44 43 42 41 40 41 40 40 39 38 39 43 49 51 52 52 52 54 56 56 56 56 55 54
58 57 57 57 57 57 57 57 57 56 53 50 48 47 46 45 44 43 41 40 39 38 38 38 38 38 37 38 39 40 46 51 52 53 53 53 55 55 56 56 54 53
57 57 56 56 56 57 57 56 55 53 51 49 46 45 44 42 41 40 38 38 37 35 35 36 37 38 37 39 40 40 44 50 53 53 53 53 53 54 54 53 52 51
57 56 56 56 56 56 55 54 52 51 51 49 48 45 42 41 39 37 37 35 34 34 35 36 38 39 38 39 41 43 46 50 54 53 53 53 54 53 53 52 50 49
54 55 55 55 55 54 53 52 51 51 49 48 47 45 42 40 37 36 36 35 33 33 35 36 38 38 39 40 41 45 47 49 52 51 50 49 49 49 49 47 45 43
50 51 52 52 53 53 52 51 50 50 49 48 47 45 41 39 37 36 34 32 32 32 33 34 36 37 38 39 41 44 47 51 47 45 44 43 43 42 41 40 39 38
48 48 49 49 50 50 50 49 49 49 49 47 44 42 41 39 38 36 34 32 32 32 32 32 34 36 36 37 39 42 46 48 44 41 40 39 39 40 40 40 39 37
48 48 47 48 48 48 48 48 48 48 48 46 45 42 40 38 36 35 34 34 33 33 33 32 34 36 36 36 36 38 44 47 45 43 40 38 38 38 38 39 42 44
48 48 48 47 47 47 48 48 48 47 47 48 46 43 40 37 35 34 35 35 37 38 41 36 36 37 36 36 36 37 41 44 45 43 41 40 39 38 38 39 39 41
48 48 48 48 47 47 48 48 48 47 47 47 46 44 42 39 36 35 35 36 37 39 39 38 37 37 38 37 37 37 38 41 44 44 44 43 42 40 39 38 39 39

ECMWFNIL_sfc_dewp_069.txt.gz
Dewpoint
62 62 62 63 63 62 61 61 61 60 61 61 61 61 61 62 62 62 62 62 62 62 62 62 62 62 62 62 62 62 62 62 61 61 60 60 60 59 60 59 58 59
63 62 62 62 60 59 61 61 61 60 60 61 62 62 62 61 61 61 62 62 61 62 62 62 62 62 62 62 62 62 61 61 61 62 60 59 59 59 59 59 58 58
63 62 62 61 61 60 60 60 60 60 61 60 61 62 62 61 61 61 62 62 62 62 62 61 62 62 62 62 62 62 61 61 61 61 60 60 59 59 59 59 58 58
62 62 62 62 61 61 61 60 60 60 60 60 60 61 61 61 61 61 61 63 62 61 61 61 61 62 62 62 62 62 61 61 61 61 60 59 59 59 58 59 58 58
61 61 60 61 62 61 61 60 60 60 60 60 60 60 61 61 61 61 61 61 61 61 61 61 61 62 62 62 62 61 61 61 61 61 60 59 59 59 59 59 58 58
60 60 61 61 61 60 61 61 60 60 60 59 59 60 60 61 61 61 60 60 61 61 61 61 61 61 62 61 61 61 61 60 60 61 60 60 59 59 60 59 59 58
60 60 60 61 61 61 61 61 61 60 60 60 60 60 60 60 60 60 60 60 61 61 61 60 61 61 61 61 61 60 60 60 60 61 60 59 59 59 59 59 59 59
60 60 61 61 61 60 61 61 60 60 60 60 60 60 61 61 61 61 60 60 60 61 61 60 61 61 60 61 61 60 60 60 60 60 60 59 59 59 59 60 59 59
60 60 61 60 60 60 60 60 60 59 60 60 60 60 60 60 61 60 60 60 60 60 60 60 60 60 60 60 60 60 60 59 60 60 59 59 59 59 59 59 58 58
61 61 60 60 59 59 59 59 60 60 61 60 60 60 60 60 61 60 60 60 60 58 59 59 59 59 59 60 60 60 60 59 59 59 59 59 59 59 59 59 59 58
60 60 60 60 60 59 58 59 60 60 60 60 60 59 60 60 60 60 60 59 58 58 57 58 59 59 59 58 59 59 60 59 59 58 59 59 59 59 61 59 59 59
59 59 59 59 59 59 59 60 60 60 59 60 60 59 60 60 59 60 60 59 57 56 56 57 57 58 58 57 57 57 58 58 58 58 58 57 57 58 59 59 59 58
58 58 59 59 59 60 60 60 60 59 59 59 60 59 59 59 59 59 58 57 53 53 52 52 53 53 53 54 55 55 56 56 56 56 56 55 55 57 58 58 58 58
58 58 59 59 59 59 60 60 59 59 59 59 59 58 58 58 58 56 54 51 49 49 49 49 49 49 50 51 53 54 54 54 55 55 54 53 53 54 56 57 56 56
58 58 58 58 58 59 59 59 59 59 58 58 58 57 56 57 56 53 50 47 46 47 46 47 47 46 47 48 51 52 53 53 53 54 54 54 54 54 55 55 55 55
58 58 58 58 58 59 59 58 58 58 58 57 57 56 54 53 52 51 47 45 45 44 44 45 44 45 45 44 47 50 52 52 53 53 54 55 55 55 54 54 54 53
57 58 58 58 58 58 58 57 57 57 56 56 55 54 52 51 51 47 45 45 44 43 42 42 42 41 40 39 41 46 51 52 53 54 54 55 55 55 54 53 51 51
58 58 57 57 57 57 57 56 56 56 54 53 52 51 51 50 48 45 43 42 42 41 41 41 41 41 38 40 41 45 49 52 53 54 55 54 54 54 54 52 51 50
56 56 56 56 56 56 56 56 55 53 51 50 49 49 49 46 43 44 41 41 41 41 41 42 42 40 39 41 43 46 47 50 53 53 53 53 53 53 52 50 49 48
51 56 55 55 55 55 54 53 51 50 49 48 47 47 46 44 41 40 39 40 41 41 42 42 42 40 40 43 44 44 46 49 53 52 52 52 52 51 49 47 46 44
49 51 54 53 53 52 51 50 48 48 46 46 46 45 44 39 38 37 38 39 40 41 40 40 40 39 42 43 44 44 44 46 49 47 46 44 43 42 41 41 40 40
48 49 51 52 51 50 49 48 47 46 45 46 44 43 41 36 35 36 36 37 38 38 38 38 38 39 42 43 42 42 43 46 45 43 42 40 39 39 38 38 38 37
48 48 48 49 49 49 48 47 46 46 46 46 44 43 41 39 34 34 34 34 35 36 37 37 38 38 40 41 40 40 41 43 41 40 39 39 39 40 41 42 41 37
48 48 47 47 47 47 47 47 47 46 46 45 43 42 41 40 38 38 38 37 36 37 37 37 38 39 39 41 41 40 41 41 40 39 37 37 37 38 39 40 43 44
48 48 48 47 47 47 47 46 46 45 45 44 43 42 41 42 42 39 39 39 39 39 42 38 38 39 38 39 41 41 42 41 39 38 37 37 37 38 39 39 40 41
47 47 47 47 47 47 47 47 46 45 44 43 43 43 42 42 42 40 39 39 40 40 40 39 38 38 39 38 39 40 41 42 41 38 37 37 37 37 38 39 39 39

ECMWFNIL_sfc_dewp_072.txt.gz
Dewpoint
61 61 61 62 61 62 62 61 61 61 61 61 61 60 61 62 62 63 63 62 62 62 62 62 62 62 63 62 62 62 62 61 61 62 61 61 61 60 60 60 60 60
61 61 61 61 60 61 61 62 61 61 61 61 61 61 61 62 61 62 62 62 62 62 62 62 62 62 62 62 62 62 62 62 61 61 61 61 61 60 61 60 60 60
61 61 61 61 61 61 61 61 61 61 61 61 60 61 61 62 61 61 61 61 62 62 62 62 62 62 62 62 61 62 61 61 61 61 61 61 61 60 61 61 60 60
60 61 62 62 61 61 60 61 61 60 60 60 60 61 61 61 62 61 62 62 61 61 61 62 62 62 62 62 61 61 61 61 62 61 61 60 60 61 60 60 60 59
60 61 61 61 61 61 60 60 60 60 60 60 60 61 61 61 61 61 61 62 61 61 61 61 62 62 62 62 61 61 61 61 61 61 61 60 60 60 60 60 59 59
60 60 60 61 61 60 60 60 61 61 60 60 60 61 61 61 61 61 61 61 61 61 61 62 62 62 62 62 61 61 61 61 61 61 60 60 59 60 60 60 60 59
60 60 60 60 60 61 61 60 61 61 61 60 60 60 61 61 61 61 61 61 61 61 61 61 61 61 61 61 61 61 61 61 61 61 60 60 60 59 60 60 60 60
61 60 60 60 60 61 61 61 61 60 60 60 60 60 61 61 61 61 61 61 61 61 61 61 61 61 61 61 61 61 60 61 60 60 61 60 60 60 60 60 60 60
61 60 60 60 60 61 61 61 61 61 61 61 61 60 61 61 61 61 61 61 61 61 60 60 60 61 61 61 61 60 60 60 61 61 61 60 60 60 60 60 59 59
60 61 60 60 60 60 60 61 61 61 61 61 60 60 61 61 61 61 60 60 60 60 60 60 60 60 60 61 61 61 60 60 60 61 61 60 60 60 60 60 60 59
59 59 60 60 60 60 60 60 60 61 61 61 60 60 60 60 60 60 60 60 60 60 60 60 60 60 60 60 61 61 59 60 60 61 60 60 60 60 61 60 60 60
59 59 59 59 59 59 60 60 60 61 61 61 60 60 60 60 60 60 60 60 59 59 59 59 60 60 59 60 60 60 59 60 60 60 60 60 60 60 61 60 60 60
58 58 58 58 58 58 59 60 60 61 61 61 60 60 60 59 59 59 59 59 59 59 59 59 59 59 59 59 59 59 59 59 59 60 59 59 59 59 60 60 60 60
58 59 59 59 59 59 59 59 60 60 60 61 60 60 59 59 59 59 59 59 58 58 58 58 58 58 58 58 58 58 58 59 59 58 58 58 58 58 59 59 59 59
54 57 59 59 59 59 59 59 60 60 60 60 60 60 59 59 59 58 56 55 54 54 53 54 55 55 55 56 56 56 57 57 58 58 57 57 56 56 57 57 57 57
51 54 57 58 58 59 59 59 59 60 60 59 59 59 59 57 56 55 54 52 50 50 50 51 51 50 51 50 52 55 55 55 56 57 57 56 56 56 56 55 55 56
50 51 55 57 58 58 59 59 59 59 59 59 58 57 56 55 55 53 52 50 49 48 48 48 47 46 42 42 46 49 53 54 55 55 55 56 56 56 55 53 52 52
49 50 53 57 58 58 58 58 59 58 58 56 55 54 54 53 53 51 49 48 48 47 46 46 44 43 40 41 43 45 49 54 54 55 55 55 56 55 53 52 50 49
48 49 52 56 56 57 57 56 56 55 54 53 52 52 51 51 49 48 47 47 46 45 45 46 44 41 40 41 44 45 47 51 55 55 55 55 54 53 51 50 49 48
48 49 51 52 53 54 54 53 51 50 50 50 49 49 48 48 47 47 47 46 46 46 45 44 45 42 42 43 43 44 46 50 54 54 53 53 51 50 49 48 48 48
48 48 49 50 50 49 49 48 48 47 46 46 46 46 45 45 45 45 46 45 45 45 44 44 44 42 41 42 43 44 45 46 49 47 46 44 43 43 43 43 44 45
48 47 48 48 48 47 46 46 45 44 43 44 43 43 43 43 43 43 43 42 43 44 46 46 45 41 41 41 42 42 43 46 45 43 42 41 40 40 39 39 40 42
47 47 47 47 46 46 45 45 45 44 44 43 42 42 42 42 41 41 41 42 42 43 45 44 44 41 40 40 41 41 42 44 43 41 41 41 42 42 42 41 40 38
45 47 46 46 45 44 44 43 43 43 43 43 42 42 42 42 42 42 42 42 42 43 43 43 42 41 39 39 40 40 42 42 41 40 39 39 40 40 41 42 44 43
45 46 46 45 44 44 44 43 42 42 43 43 43 42 42 43 43 42 43 42 42 42 44 42 42 41 39 39 39 39 41 40 39 38 38 38 39 39 39 39 39 41
44 44 46 46 44 44 44 44 44 43 43 43 43 43 43 43 43 42 41 41 42 42 41 41 41 40 40 38 39 39 39 40 40 38 37 38 38 38 39 40 40 40

ECMWFNIL_sfc_dewp_075.txt.gz
Dewpoint
64 64 64 64 63 63 63 63 64 64 64 64 63 64 64 63 64 64 64 64 64 64 64 65 64 65 64 65 64 63 63 63 63 63 63 63 64 64 63 63 63 63
63 64 64 64 64 63 63 64 65 65 65 65 64 64 64 63 63 64 63 63 64 64 64 64 64 64 64 64 63 63 63 63 63 63 63 63 63 63 62 63 64 64
62 63 63 63 63 64 64 64 65 65 64 64 65 64 64 64 63 63 64 64 63 63 64 64 64 64 64 64 64 64 64 64 63 63 63 62 63 62 63 64 64 64
61 61 61 62 63 63 63 64 64 63 63 63 63 64 64 63 63 63 64 64 64 63 64 63 64 64 64 63 64 64 63 63 63 63 63 63 62 62 63 64 64 63
61 61 61 61 62 63 64 63 63 63 63 63 63 63 63 62 63 62 63 63 63 63 63 63 63 64 64 63 63 63 63 63 63 63 62 62 63 63 63 63 62 63
60 61 61 61 62 63 63 62 62 62 62 63 62 62 62 62 62 62 62 62 63 63 63 62 63 63 63 63 63 63 63 63 63 62 62 62 61 62 62 62 62 61
59 61 61 61 62 62 62 63 62 62 62 62 62 62 62 62 62 62 62 62 62 62 62 62 62 62 63 63 63 62 63 62 62 62 61 62 61 62 62 62 61 61
58 60 61 62 62 62 61 61 62 62 62 62 63 62 62 62 62 62 62 62 62 62 62 62 62 62 62 62 62 62 62 62 62 62 61 61 62 61 62 61 62 62
58 59 60 61 62 62 62 62 62 62 63 63 62 62 62 62 62 62 62 62 62 62 62 61 61 61 62 62 62 62 62 62 62 62 61 61 60 61 60 61 61 62
57 58 60 60 60 61 61 62 62 62 62 62 62 62 62 62 62 62 62 62 62 61 61 61 61 62 62 62 62 62 62 61 61 61 62 61 61 61 60 61 61 62
55 56 58 59 60 61 61 61 62 62 62 61 62 62 62 62 62 62 62 61 62 61 61 61 61 61 61 62 62 63 62 62 61 61 62 62 62 62 61 61 62 62
54 55 55 56 58 60 60 61 61 61 61 61 61 61 62 62 62 62 61 61 61 61 61 61 61 61 61 61 61 62 62 62 61 61 62 61 62 61 62 61 63 63
52 53 54 56 57 59 60 60 60 60 60 60 61 61 61 61 61 61 62 61 61 61 61 61 61 61 61 61 61 61 61 61 61 61 61 61 62 61 61 62 63 63
50 51 52 54 55 57 58 60 60 60 60 60 61 61 61 61 61 61 61 61 61 61 61 61 61 61 61 61 61 61 61 61 61 61 61 61 61 61 61 61 63 64
49 50 51 52 53 55 58 58 59 60 60 60 60 61 62 61 62 61 61 61 61 61 61 61 61 61 61 61 61 61 61 61 61 60 61 60 60 61 60 61 62 62
48 50 50 51 53 55 57 58 59 59 60 60 60 60 61 61 61 61 61 60 60 60 60 61 61 61 58 55 56 60 61 60 60 60 61 60 60 60 60 60 60 61
48 49 49 51 53 55 57 58 58 59 59 59 60 60 60 61 61 60 60 60 60 59 59 60 60 59 51 48 49 52 59 59 60 60 60 60 59 59 60 60 60 60
47 48 49 50 50 51 53 55 58 58 59 59 60 60 60 60 60 60 59 59 59 59 59 59 58 50 45 46 47 49 53 59 60 59 59 59 59 59 60 60 59 59
47 47 47 48 48 48 49 49 50 51 52 52 55 58 58 58 58 58 58 58 57 56 56 56 53 42 42 44 45 46 49 55 59 60 59 59 59 59 58 57 56 56
46 46 46 46 47 47 46 46 46 46 47 48 50 52 53 54 54 54 54 54 54 54 55 54 50 42 41 42 43 44 47 53 59 59 59 58 58 57 56 56 56 55
46 45 45 45 45 45 45 44 44 45 44 45 45 47 47 47 48 48 49 50 50 51 51 51 48 41 41 42 43 45 47 50 56 56 54 54 54 54 54 55 55 55
45 45 44 43 43 43 43 43 44 44 44 45 45 45 45 46 46 46 46 47 48 48 49 48 46 40 41 43 44 44 46 53 53 51 50 49 49 49 49 50 51 54
45 44 44 43 43 43 42 43 43 43 44 45 44 44 45 45 44 45 45 45 45 45 45 45 45 41 39 42 43 43 46 50 50 49 49 48 48 47 47 48 49 51
44 44 44 43 43 43 43 43 44 44 44 44 44 43 44 44 45 44 44 44 44 44 44 44 45 41 38 39 41 44 47 49 49 48 48 47 46 47 47 47 46 48
43 44 44 44 43 43 44 43 44 44 44 45 45 44 44 44 45 43 43 43 43 43 44 42 42 41 38 38 38 41 46 48 46 45 45 44 43 43 44 44 44 43
43 44 44 44 44 44 44 44 44 44 44 45 45 44 44 44 43 42 42 42 42 42 42 42 42 41 40 37 38 38 40 45 45 44 42 42 42 41 43 44 43 43

ECMWFNIL_sfc_dewp_078.txt.gz
Dewpoint
63 63 64 63 64 65 65 64 65 65 63 64 63 63 63 64 65 65 65 64 65 65 65 65 65 66 66 65 66 65 64 64 64 65 64 65 64 64 64 64 64 62
62 63 62 63 63 64 65 65 65 65 65 65 65 65 65 65 65 65 65 64 65 65 64 65 65 66 65 66 64 65 65 65 64 64 64 65 64 65 65 65 64 64
62 62 63 62 63 64 65 65 65 66 66 65 66 66 65 65 65 65 64 64 63 64 64 64 64 64 65 66 66 66 65 64 64 64 64 63 63 64 65 64 64 66
60 61 62 62 62 62 63 64 65 65 65 65 65 65 65 64 65 64 64 63 63 63 64 64 64 64 64 64 65 65 64 64 64 65 64 64 65 63 65 64 64 65
59 59 60 61 62 62 63 63 63 64 65 65 65 64 64 64 64 64 64 63 63 63 63 64 64 64 64 64 64 64 64 65 66 65 65 65 64 64 63 64 64 65
58 58 59 60 61 62 62 62 61 63 64 64 66 65 63 64 63 63 63 63 63 63 63 64 63 64 64 64 64 64 64 64 65 64 64 62 62 64 63 64 64 64
57 58 60 60 61 61 62 62 63 63 63 64 64 64 63 63 63 63 62 63 62 62 62 63 63 63 64 64 63 63 64 64 63 63 63 62 62 63 63 63 63 62
57 58 59 59 60 61 61 61 62 63 64 63 63 63 64 62 63 63 63 63 62 62 62 62 62 63 63 63 62 63 63 64 63 64 62 62 63 62 62 62 63 62
56 57 57 59 60 61 61 61 62 63 62 63 64 63 63 62 63 63 63 62 62 62 62 62 62 62 63 63 63 62 62 63 63 63 63 62 62 62 61 61 61 62
54 54 56 57 58 59 60 61 61 61 61 62 62 63 62 63 62 62 62 62 62 62 62 62 62 63 62 62 62 62 62 63 63 63 63 63 62 61 61 61 61 62
53 53 54 54 56 57 59 59 61 61 61 61 62 62 62 62 62 62 62 62 62 62 62 62 63 62 62 62 62 62 62 62 62 62 62 62 62 62 62 61 62 62
51 52 53 53 54 55 56 58 59 60 60 61 60 60 61 62 62 62 62 61 61 61 61 62 62 62 61 61 61 62 62 63 63 63 64 61 61 62 61 61 62 62
50 51 52 53 54 55 56 56 58 59 59 59 60 60 60 61 61 61 61 62 61 62 62 62 62 62 62 62 62 62 62 62 63 62 62 62 62 61 62 62 62 62
50 50 51 52 53 54 55 57 58 58 59 59 60 60 60 60 60 61 61 61 61 61 62 62 62 61 61 62 62 62 62 62 62 62 62 62 63 62 62 62 63 63
49 50 50 51 51 52 53 54 56 58 60 59 60 60 61 60 60 61 60 61 61 61 61 62 63 62 61 62 61 61 62 62 61 61 62 61 61 62 62 62 62 64
48 49 49 50 50 51 51 52 53 54 55 56 57 59 59 60 60 60 60 61 61 60 61 62 61 61 60 56 56 62 63 61 62 62 61 61 61 61 61 61 62 63
48 48 48 48 49 49 50 50 50 52 52 52 53 54 56 58 60 60 60 60 61 60 60 61 62 60 54 51 50 53 60 62 61 61 62 62 61 60 60 61 61 62
47 47 46 47 47 47 47 48 49 49 50 50 52 53 54 55 57 58 60 60 61 60 61 61 62 57 50 49 50 49 54 62 62 62 62 61 61 60 60 61 61 61
46 46 46 46 46 46 47 47 47 47 48 48 49 51 52 52 52 53 54 57 59 59 60 61 62 52 47 48 48 47 49 56 62 62 61 60 60 60 60 60 60 61
45 45 45 46 46 46 46 46 46 46 47 47 48 49 49 49 50 51 51 51 52 54 57 58 55 42 39 43 46 46 47 53 62 61 61 60 60 61 61 61 61 61
44 45 45 45 45 46 46 45 46 46 46 46 46 47 47 47 48 48 48 49 50 51 52 51 48 39 40 41 42 44 45 50 61 61 61 60 60 61 61 61 62 61
44 44 45 44 45 45 45 45 45 45 45 46 46 46 46 46 47 46 47 47 47 48 49 48 46 38 38 41 42 42 43 59 61 61 61 59 60 60 60 60 60 59
43 44 44 44 45 44 44 45 45 45 45 45 45 45 45 45 45 45 45 45 45 45 45 46 45 40 38 38 40 40 46 60 59 60 57 57 56 56 56 57 57 58
43 43 43 44 44 44 44 45 45 45 45 45 44 44 44 44 43 43 43 43 44 44 44 44 43 41 38 38 39 38 44 57 59 56 54 54 53 53 53 52 50 48
43 43 43 44 43 44 45 44 44 44 45 45 45 45 44 44 44 44 45 44 44 44 43 44 44 42 38 38 38 39 45 55 57 57 52 51 49 49 51 51 50 46
43 43 44 43 43 43 43 43 44 44 44 44 44 43 44 44 44 44 43 43 43 43 43 43 43 43 40 38 39 39 40 52 56 53 50 48 49 48 48 48 48 47

ECMWFNIL_sfc_dewp_081.txt.gz
Dewpoint
61 62 62 62 62 63 64 66 64 63 64 65 64 65 65 65 65 65 65 65 65 65 65 65 65 65 65 65 66 66 66 66 65 65 64 65 65 65 65 65 65 65
60 61 61 62 62 63 63 64 65 65 64 65 65 65 65 65 65 65 65 66 65 64 64 64 64 65 65 65 66 65 65 66 65 64 64 65 66 66 65 65 65 66
60 60 60 61 62 63 63 63 64 64 65 66 67 66 64 65 65 64 64 64 64 64 64 64 64 64 65 65 66 66 65 65 65 65 64 64 65 65 66 65 65 64
58 59 59 60 61 62 63 63 63 63 64 64 66 66 65 64 64 64 65 64 64 64 64 64 64 64 64 64 65 66 65 64 64 65 65 65 66 65 65 64 64 64
57 57 58 59 59 60 62 62 62 62 62 63 64 65 65 65 64 64 64 64 64 63 64 64 64 64 64 64 64 65 65 65 65 64 64 64 65 65 64 64 62 63
56 56 56 57 58 59 60 61 61 62 62 63 64 65 65 65 63 62 62 62 63 64 64 63 62 63 64 64 64 64 64 64 65 64 64 63 64 63 63 64 63 62
55 56 56 57 57 58 59 59 61 62 62 63 63 63 64 64 63 63 62 62 62 63 63 62 61 63 63 64 63 64 63 64 64 63 63 63 64 64 65 65 64 62
55 55 55 55 56 57 58 58 59 60 61 62 63 63 64 63 62 62 62 62 62 61 62 62 62 62 63 63 62 63 63 63 63 63 63 62 63 63 64 64 64 63
54 54 54 55 55 56 56 56 57 59 59 61 62 62 63 64 63 62 62 62 62 63 63 62 62 61 63 63 63 62 62 62 63 63 63 62 63 62 62 62 63 63
53 53 54 54 55 55 56 56 56 57 58 59 61 62 61 62 63 63 62 62 62 62 62 62 62 62 62 62 62 62 62 62 62 62 63 63 63 62 61 62 62 62
52 52 53 53 54 54 55 55 56 57 58 58 59 60 61 61 62 61 62 62 62 62 62 62 61 62 62 63 63 63 63 63 62 61 62 62 63 62 62 61 62 62
51 52 52 52 53 53 54 55 55 56 57 59 59 59 60 61 61 60 60 61 62 61 62 62 62 63 62 62 62 62 63 63 62 62 62 62 62 62 62 63 62 61
51 51 51 51 52 52 53 53 54 55 55 56 57 58 59 60 60 60 60 60 60 62 61 63 63 64 62 62 62 62 62 62 64 63 63 62 62 61 63 63 62 62
50 50 50 50 50 50 51 52 52 53 53 54 54 55 56 57 59 60 60 60 60 60 60 62 63 62 62 62 62 61 62 62 63 63 63 62 64 64 63 62 62 63
49 49 50 50 49 49 50 50 51 52 52 52 52 53 55 54 55 56 57 58 59 61 60 61 62 62 63 62 62 62 62 62 63 63 63 64 61 62 62 62 62 62
48 49 48 49 49 49 49 49 49 50 51 51 50 51 52 52 53 54 55 56 57 59 60 62 63 62 60 56 53 61 62 63 63 62 62 62 61 61 62 62 62 62
47 47 48 48 49 49 49 48 48 49 49 49 50 50 51 51 52 52 52 53 54 56 57 60 62 60 52 51 50 48 58 62 62 62 61 61 60 62 61 61 61 62
46 46 47 47 48 47 48 48 48 48 48 48 48 49 49 50 50 50 51 51 53 53 55 57 59 46 40 41 44 47 49 60 62 61 62 61 61 62 61 62 61 62
45 45 46 46 46 47 47 47 47 47 47 47 47 48 48 48 48 49 49 50 50 50 51 53 55 42 40 40 41 42 44 51 61 62 62 62 62 62 61 62 63 62
44 45 45 45 46 46 47 46 47 47 48 47 47 47 47 47 48 48 48 48 48 48 49 51 52 42 39 39 41 41 41 44 60 61 61 62 63 62 62 62 62 62
43 44 44 45 45 46 46 46 46 47 47 46 46 46 46 46 46 46 46 46 46 46 47 48 49 41 38 38 39 41 42 42 56 62 62 61 61 63 62 62 61 61
43 44 44 44 44 44 45 45 46 46 46 46 46 46 45 45 45 45 45 45 45 44 44 45 47 41 39 38 38 40 42 51 56 60 61 61 63 63 64 63 63 63
43 43 43 43 43 43 42 44 44 45 46 46 45 45 45 44 44 44 44 44 43 43 43 43 45 42 39 38 38 38 42 53 56 60 61 61 62 62 62 62 61 62
42 42 43 43 42 42 42 43 43 44 44 45 44 44 44 44 44 44 44 43 43 43 43 43 43 43 39 38 38 38 42 55 57 60 59 58 60 61 59 55 52 48
42 43 43 43 42 43 43 43 42 42 43 44 44 44 44 44 44 44 43 43 43 44 44 42 42 43 39 37 38 40 47 57 58 57 56 56 56 57 57 56 53 47
43 43 44 43 42 42 43 43 43 42 43 42 43 43 43 43 43 43 43 43 43 43 42 42 41 42 41 37 38 39 41 52 53 52 51 50 49 49 51 50 49 48

ECMWFNIL_sfc_dewp_084.txt.gz
Dewpoint
59 59 60 60 60 61 62 64 64 65 64 64 64 64 65 65 65 65 64 65 65 64 65 65 65 65 66 65 64 65 64 64 65 64 65 65 65 65 65 64 65 64
58 58 58 59 60 60 61 62 63 64 64 66 64 64 64 65 65 65 65 64 63 63 63 65 64 64 64 64 65 65 64 64 65 65 64 64 64 65 64 64 65 65
57 58 58 58 59 60 60 61 62 63 65 65 65 65 65 65 65 65 65 65 64 64 64 65 64 64 64 64 65 64 64 65 64 65 65 64 65 64 64 65 65 64
56 57 57 57 58 58 59 60 61 61 63 63 64 64 65 65 64 64 64 64 64 64 64 64 64 64 64 64 64 64 64 65 65 65 65 64 64 64 64 64 64 64
56 55 56 56 56 57 57 57 58 59 60 62 63 64 63 64 65 63 63 64 64 63 64 64 64 63 63 63 64 64 63 64 65 64 64 63 64 65 64 63 63 64
55 54 54 54 55 56 56 56 56 57 57 59 61 64 64 63 64 64 63 63 63 64 63 63 63 63 63 63 63 63 64 63 63 63 63 63 64 64 63 64 64 62
54 54 54 54 54 55 56 56 56 56 57 58 58 60 63 63 63 62 63 63 62 63 63 63 63 62 62 62 62 63 63 63 63 63 63 62 63 63 63 63 63 62
53 53 53 53 54 54 54 54 54 56 57 57 58 58 59 62 63 63 63 63 61 62 62 62 63 63 63 64 63 63 62 62 62 62 63 62 63 62 63 63 62 63
52 52 52 53 53 53 53 54 55 55 56 57 57 58 58 59 62 63 63 62 62 62 61 62 62 62 63 62 62 62 62 62 62 62 62 62 62 62 62 63 63 62
52 52 52 52 52 52 53 53 54 54 55 56 56 57 56 57 58 60 61 61 62 63 61 61 62 62 63 62 62 62 62 62 62 61 62 61 62 61 62 61 62 62
52 51 51 52 52 52 52 52 53 53 54 53 54 55 55 56 57 57 59 60 61 62 63 61 61 62 62 63 63 63 62 62 62 62 62 62 62 63 62 62 61 61
51 51 51 51 51 51 52 51 52 52 52 52 52 52 53 54 54 54 55 55 56 59 61 61 62 62 61 61 62 62 62 62 62 62 62 62 62 63 62 61 62 62
49 50 50 51 51 51 51 50 50 51 50 50 51 51 51 51 51 52 53 54 54 56 58 60 62 62 62 62 62 62 62 62 62 62 62 62 62 62 62 62 62 63
49 49 49 50 50 50 49 50 50 50 50 50 50 49 49 49 50 50 51 51 52 53 54 58 59 61 61 57 56 58 61 62 62 61 61 62 62 62 62 62 62 61
48 49 49 48 48 49 49 49 49 49 49 49 48 48 49 48 49 49 49 49 50 51 52 54 58 58 48 46 46 47 51 56 61 62 62 62 60 60 61 61 62 62
46 47 47 47 47 47 47 48 48 48 49 48 48 48 47 48 48 48 48 48 48 48 49 51 54 51 46 43 43 44 46 51 56 60 61 61 62 62 61 61 62 62
45 45 45 45 46 46 47 47 47 48 47 47 47 47 47 47 47 46 46 46 47 46 47 48 50 45 42 40 40 41 44 47 50 55 60 61 61 61 61 61 62 62
44 44 44 44 45 44 45 45 46 46 46 47 47 47 47 47 46 46 45 45 45 45 45 46 47 43 40 40 40 39 40 43 46 51 56 60 61 61 61 61 62 61
43 43 43 43 43 43 44 44 44 45 45 46 46 47 47 46 45 45 45 45 44 44 44 44 45 43 40 40 39 39 38 40 44 49 54 58 60 61 61 62 62 61
43 43 43 43 43 43 43 43 43 43 45 46 46 46 46 46 46 45 45 44 44 43 43 43 44 42 40 39 39 38 38 38 42 47 52 56 59 60 61 61 62 61
42 42 42 42 43 43 43 43 43 43 44 44 45 45 44 45 45 45 44 44 43 43 43 42 43 41 39 38 38 38 38 39 43 49 52 55 58 60 61 61 61 61
42 42 43 42 42 42 43 43 43 43 43 44 44 44 44 44 44 44 44 43 43 43 42 42 42 40 39 38 38 38 38 43 48 51 54 56 58 60 61 61 61 61
42 42 42 42 42 42 42 43 43 43 43 43 42 43 43 43 43 43 43 43 42 42 42 41 41 40 38 38 37 38 40 46 50 53 55 57 59 60 60 59 59 60
41 41 41 42 41 41 42 42 42 42 42 43 42 41 42 42 42 42 43 42 42 42 43 41 41 41 39 38 38 38 40 48 52 55 53 52 51 51 51 51 49 48
40 40 41 41 40 41 41 41 40 41 42 42 42 41 41 41 42 42 42 42 42 42 43 42 41 41 40 38 38 38 40 47 50 49 48 47 48 48 49 48 48 46
39 39 40 40 39 40 40 40 40 40 40 41 41 40 40 40 41 41 41 41 41 41 41 42 42 41 41 38 38 38 38 43 46 47 46 45 45 45 45 45 46 45

ECMWFNIL_sfc_dewp_087.txt.gz
Dewpoint
56 56 57 57 58 59 59 59 60 61 62 63 62 62 62 62 63 63 62 63 63 63 63 63 63 63 64 64 63 63 63 63 63 64 64 63 63 63 62 62 63 63
56 57 56 56 56 56 56 57 57 59 60 61 63 63 62 62 62 63 63 63 63 63 62 62 62 62 62 62 63 63 63 63 63 63 63 62 62 63 62 62 62 63
54 55 56 55 55 55 55 56 56 57 57 58 59 61 63 63 63 62 63 63 63 63 63 63 63 63 62 61 62 62 62 63 63 63 62 62 63 63 62 62 62 62
53 53 54 54 54 54 55 55 55 55 55 56 57 58 59 61 64 63 62 63 63 63 63 63 62 63 62 62 63 62 62 62 63 63 63 63 63 63 63 63 63 63
53 53 53 53 54 54 55 54 54 54 55 56 57 57 58 59 61 63 63 63 63 63 63 62 62 62 61 62 62 62 62 62 62 62 62 62 62 62 62 63 63 63
53 52 53 53 53 53 53 53 53 54 55 55 56 57 57 58 58 60 62 63 63 63 63 63 62 62 61 62 62 61 61 61 62 62 61 61 61 62 63 63 62 62
52 51 51 52 52 52 53 52 53 53 54 55 55 55 56 57 56 57 59 62 62 62 61 61 62 62 61 60 61 61 61 61 61 62 62 62 62 61 61 62 62 62
51 51 51 52 52 51 52 52 51 52 52 53 53 54 54 55 55 55 56 58 59 61 61 61 60 61 61 61 61 61 61 61 61 61 60 61 62 62 63 63 62 62
50 50 50 51 50 51 51 50 51 51 51 51 51 51 51 52 52 53 53 54 55 58 60 60 60 60 61 62 62 61 61 61 61 61 60 60 60 61 62 61 60 61
49 49 50 50 49 50 49 49 50 50 50 50 50 50 49 50 51 51 52 52 53 53 55 57 58 60 57 55 56 57 60 61 61 61 61 61 61 61 61 61 60 60
48 48 48 48 48 49 49 49 49 49 49 49 49 48 49 49 49 50 50 50 51 51 52 53 56 50 49 49 50 51 50 51 55 60 62 62 62 61 62 61 61 60
47 47 47 47 48 48 48 48 48 49 48 48 48 48 48 48 48 48 49 48 48 49 49 50 52 48 46 46 46 47 48 48 50 53 58 61 61 60 60 60 61 61
46 46 47 47 47 47 47 47 48 48 48 48 48 47 47 47 47 46 47 47 47 47 47 48 51 47 45 44 44 44 45 45 47 49 52 57 61 61 61 61 61 61
46 46 46 46 46 46 46 46 47 47 47 47 48 47 47 46 46 46 46 46 45 45 46 47 49 45 44 43 42 42 43 43 44 46 50 52 57 60 61 61 61 61
45 45 45 45 45 45 45 45 46 46 46 47 47 47 48 46 46 46 44 44 44 44 44 45 47 45 44 42 41 41 41 42 43 44 47 50 53 57 60 61 61 61
44 44 44 44 44 44 45 44 44 45 45 46 46 46 46 47 45 45 44 44 44 43 43 44 45 45 44 42 42 41 40 41 41 43 44 47 50 54 58 60 60 60
44 43 43 44 43 43 44 44 44 44 44 45 45 45 45 46 45 44 44 43 43 43 42 43 43 43 41 39 39 40 40 40 40 41 42 45 48 52 55 59 60 61
43 43 43 43 43 43 43 43 44 43 43 44 44 44 44 44 44 44 43 42 43 42 42 42 42 43 39 39 39 38 40 40 40 40 42 45 48 50 54 57 60 61
43 42 43 42 43 43 43 43 43 43 43 43 43 43 43 43 43 43 42 42 42 41 41 41 41 41 39 39 38 38 38 40 40 40 41 44 46 49 52 56 59 60
42 42 42 42 42 42 42 42 43 42 42 43 43 42 42 42 43 42 42 42 42 42 42 41 41 41 39 38 38 38 38 38 43 44 42 44 47 49 52 55 58 60
41 41 41 41 41 41 40 40 42 42 41 42 42 42 41 42 42 41 41 41 41 41 41 41 41 39 38 38 38 38 38 41 48 50 50 50 51 52 54 55 57 59
40 40 40 40 40 40 39 39 40 40 41 41 42 41 41 42 42 41 40 40 40 40 40 40 40 39 38 38 38 38 39 43 46 47 47 47 48 49 49 49 50 52
40 40 39 39 39 38 38 38 39 39 40 41 40 40 40 41 41 41 40 40 40 39 40 40 40 39 38 38 38 38 40 42 43 45 45 45 45 45 46 46 46 47
40 40 39 39 38 37 37 38 39 39 39 40 39 39 39 40 42 41 40 40 39 39 39 39 39 39 38 37 38 38 40 41 41 43 44 43 43 44 44 44 44 45
38 40 38 38 38 37 37 37 38 38 39 39 39 39 39 39 40 41 40 39 39 39 40 38 39 39 38 37 37 38 39 41 41 42 42 42 42 43 43 43 43 44
38 39 39 38 38 37 37 37 38 38 38 38 38 38 38 39 39 40 39 38 38 38 38 38 38 38 38 37 37 38 38 40 41 41 41 42 42 42 42 42 43 43

ECMWFNIL_sfc_dewp_090.txt.gz
Dewpoint
55 56 56 55 55 55 55 56 56 56 56 57 58 58 60 61 62 63 62 62 62 62 62 63 63 63 63 63 62 63 63 62 62 62 63 63 62 62 62 62 61 61
53 55 55 54 54 54 55 56 55 55 55 57 57 58 59 59 60 61 62 62 62 62 63 63 62 63 63 62 61 61 62 62 62 63 62 62 62 62 62 61 61 62
52 52 52 52 53 53 53 54 54 54 55 56 57 57 58 59 59 59 60 62 62 63 63 63 62 62 62 62 62 61 61 61 61 63 63 62 62 61 61 62 61 61
51 52 52 53 53 53 53 53 53 54 54 55 55 56 57 58 58 57 58 60 59 60 62 63 62 62 62 62 62 62 61 61 62 62 62 62 62 62 61 61 61 61
51 52 52 52 53 53 53 52 52 52 53 53 53 54 54 54 54 54 55 56 58 59 61 61 62 62 62 62 62 61 61 61 61 62 62 62 63 62 62 62 61 61
50 51 52 52 52 52 52 51 50 50 50 50 50 51 51 51 51 52 53 53 55 56 58 58 59 58 57 57 59 61 61 61 61 60 61 61 62 62 62 61 61 61
49 50 51 51 50 50 50 49 49 50 49 49 49 49 50 50 50 50 50 51 52 53 54 55 51 50 51 52 52 52 53 54 56 60 61 61 61 61 62 62 61 61
48 49 49 49 49 49 50 49 49 49 48 48 48 48 49 49 49 49 49 49 49 49 50 52 49 48 47 49 49 49 50 51 51 51 54 58 61 61 61 62 62 61
47 47 48 48 48 48 48 49 49 49 48 47 47 47 47 48 47 48 48 48 48 47 47 50 47 46 45 45 45 46 46 47 48 50 51 53 56 60 61 61 61 61
47 46 47 47 47 47 47 47 48 48 49 48 47 47 46 46 46 47 47 46 46 46 46 48 45 44 43 43 43 43 43 44 45 46 48 50 53 55 59 61 61 61
46 46 46 46 46 46 46 47 47 47 48 48 47 47 46 46 45 45 46 45 45 45 45 46 45 43 42 42 42 41 41 42 43 44 45 46 49 52 56 58 61 61
46 45 45 45 45 45 45 46 46 46 46 47 47 47 46 45 45 44 45 44 44 44 44 45 45 43 42 41 41 41 41 41 42 42 43 44 46 49 51 55 59 60
45 45 45 45 45 45 45 45 45 46 46 45 46 46 46 44 44 43 44 43 44 43 43 44 45 43 42 41 41 40 40 40 41 41 42 44 45 46 49 51 55 59
44 44 44 45 46 45 44 44 44 45 45 44 45 45 46 44 43 43 42 43 43 43 43 43 43 42 41 41 40 40 40 40 40 41 42 42 44 45 47 48 51 55
44 45 44 44 44 45 44 44 44 44 44 43 43 44 45 44 43 43 42 42 42 42 42 43 42 41 41 40 40 39 40 40 40 41 41 42 43 44 46 47 49 52
43 44 43 43 43 44 44 43 43 44 43 42 43 43 43 43 42 42 42 42 41 42 42 42 42 41 43 41 41 40 40 40 41 41 42 42 43 44 45 47 49 51
42 42 42 41 42 43 43 43 43 44 43 42 42 42 42 42 41 41 41 41 41 41 41 41 42 41 39 38 38 39 41 41 41 42 43 44 44 44 45 47 49 50
41 41 41 40 40 41 42 42 42 43 43 42 42 42 41 41 40 40 40 40 40 40 41 41 41 41 38 38 38 38 40 42 42 44 47 47 46 46 46 47 49 50
40 40 39 39 39 40 41 41 41 41 42 42 42 42 41 40 40 40 39 39 39 39 40 40 40 39 38 38 38 38 38 41 42 43 45 45 45 46 46 48 49 50
39 39 38 38 39 39 40 39 40 40 40 41 41 42 41 40 40 39 39 39 39 38 39 39 39 39 37 37 38 37 37 40 42 42 43 44 44 44 44 45 46 46
39 38 37 37 38 38 39 39 39 39 40 40 40 40 41 41 40 39 39 39 38 38 38 38 38 38 37 37 37 37 37 40 41 42 42 42 43 43 43 43 44 44
38 37 37 37 37 37 38 38 38 38 39 40 40 39 40 41 41 39 38 38 38 38 38 37 37 37 37 37 37 37 38 40 40 41 41 42 42 42 42 43 43 44
38 37 37 36 37 37 37 37 38 38 38 39 38 38 38 39 40 39 38 38 38 38 38 37 37 37 37 37 37 37 38 39 39 40 40 41 41 41 42 42 42 43
38 37 37 37 36 36 37 37 37 38 38 39 38 37 37 38 39 39 38 38 37 37 39 37 37 38 37 37 37 37 38 38 39 39 39 41 40 41 41 41 41 44
38 37 37 36 36 36 37 37 37 37 38 38 38 37 37 37 39 38 38 37 37 38 40 38 37 38 37 37 37 37 38 38 38 38 38 40 40 40 40 40 40 42
38 39 38 36 36 36 37 37 37 37 37 37 37 37 37 37 37 37 37 37 37 37 38 37 37 37 38 37 37 37 37 38 38 38 38 39 39 39 39 39 39 40

ECMWFNIL_sfc_dewp_093.txt.gz
Dewpoint
53 54 53 53 53 54 54 54 54 55 55 56 56 57 58 58 59 58 59 60 60 61 61 61 62 62 62 63 63 63 63 63 63 62 62 62 62 62 61 61 61 61
52 53 54 53 53 53 53 53 53 53 53 54 54 54 55 55 55 56 57 57 58 59 60 61 61 60 60 62 62 62 62 62 62 62 62 62 62 62 62 61 61 62
51 51 52 52 52 52 52 52 51 51 51 51 51 51 51 52 52 53 53 54 55 57 59 56 54 54 55 55 57 60 61 61 61 61 62 62 62 62 62 62 61 61
51 51 51 51 51 51 50 49 49 49 49 49 49 50 50 50 50 50 50 52 52 53 55 52 51 50 51 52 53 53 54 56 58 58 60 61 62 62 62 62 61 61
50 50 50 50 50 49 49 48 48 48 48 48 49 49 49 48 49 49 49 49 49 50 52 49 48 47 49 49 50 51 51 52 53 53 54 56 60 61 62 62 61 61
49 49 49 49 50 49 48 48 48 48 47 47 48 48 48 48 48 48 48 48 47 48 49 46 46 46 46 45 47 47 48 49 49 49 50 52 54 57 60 62 61 61
48 48 48 49 49 49 49 49 49 48 47 47 47 46 47 47 47 48 47 47 46 47 48 45 45 44 44 44 43 43 44 45 46 46 47 49 51 52 55 59 61 61
47 47 48 47 47 48 48 48 49 49 48 47 46 46 46 46 46 46 46 46 46 45 46 45 44 43 43 42 42 42 42 43 43 43 44 45 47 48 50 53 56 59
46 46 46 46 46 47 47 47 47 48 48 47 46 45 45 45 45 45 45 45 44 45 45 45 44 43 42 42 41 41 41 41 42 42 43 44 44 45 46 49 51 54
46 46 45 45 45 46 46 47 47 47 47 47 46 45 44 44 44 45 44 44 44 43 44 44 44 42 42 41 41 41 41 41 41 41 42 43 43 44 45 46 48 51
45 45 45 45 44 44 45 45 46 45 46 46 46 44 43 43 43 44 43 43 43 43 43 43 42 41 41 41 40 40 40 41 41 41 42 42 43 43 47 46 47 48
45 46 45 45 45 44 44 44 44 44 44 45 45 44 43 43 42 43 43 42 42 42 42 42 41 40 40 40 40 40 40 40 41 41 41 42 42 43 44 45 46 47
44 45 45 45 44 44 44 44 43 43 43 44 44 43 42 42 42 42 42 42 42 42 42 41 40 40 40 39 39 39 40 40 41 41 41 42 43 44 44 45 45 46
44 44 44 46 45 44 44 44 43 42 43 43 43 42 41 41 41 41 41 41 41 41 41 41 40 39 39 39 39 39 39 40 41 42 42 42 43 44 44 45 45 46
43 43 43 43 44 44 44 44 43 43 42 42 41 41 42 41 41 40 40 40 40 40 40 41 41 40 40 38 38 38 39 40 41 42 43 43 44 46 46 46 46 46
41 41 41 41 42 42 42 43 43 43 43 42 41 41 40 41 40 40 40 39 39 39 39 40 40 39 41 39 40 39 39 40 40 42 43 44 45 45 45 45 45 46
40 40 40 40 41 41 41 41 42 42 42 42 42 41 40 40 39 39 39 39 38 38 38 39 39 39 39 37 38 38 39 39 40 41 42 43 44 43 43 44 44 44
39 39 39 40 40 40 40 40 40 40 40 41 41 41 41 39 38 38 38 38 38 38 38 38 38 39 37 37 37 37 39 39 40 41 42 42 42 42 43 43 43 43
38 38 38 38 39 39 39 39 39 39 40 40 40 41 41 40 38 38 38 38 38 38 38 38 37 38 37 37 37 37 37 39 39 40 41 41 41 42 42 42 42 43
38 38 37 38 38 38 38 38 38 38 39 39 39 39 39 39 39 38 38 38 38 38 38 37 37 38 37 37 37 37 37 38 39 39 40 40 41 41 41 41 41 42
37 37 37 37 38 38 38 37 37 38 38 39 38 38 38 38 38 38 38 38 37 37 38 37 37 38 37 37 37 37 37 38 38 39 39 39 40 40 40 40 40 41
37 36 36 37 37 37 37 37 37 37 37 37 38 37 37 37 37 38 37 37 37 37 37 37 37 37 37 37 37 36 37 38 37 38 38 38 39 39 39 39 39 40
36 36 36 36 36 36 36 36 36 36 36 38 36 36 36 36 37 36 37 36 37 37 37 37 37 38 37 37 37 36 37 37 37 37 38 37 38 39 39 39 39 40
35 35 35 35 35 35 35 35 35 35 36 37 35 35 35 35 37 36 36 36 36 36 38 37 37 38 37 37 37 37 37 36 36 37 37 37 37 38 38 38 39 42
35 35 34 34 35 34 35 35 35 35 35 34 35 35 35 35 38 35 35 35 36 36 39 37 36 38 38 37 37 37 37 36 36 36 36 36 37 38 38 38 37 39
36 36 35 34 33 33 34 35 35 34 35 34 34 34 34 35 35 35 34 35 35 35 36 36 37 37 38 37 37 37 37 36 36 36 35 36 37 37 37 37 37 37

ECMWFNIL_sfc_dewp_096.txt.gz
Dewpoint
52 53 52 51 51 51 50 50 50 50 50 50 50 51 52 52 51 52 53 55 56 54 52 52 52 53 53 53 54 55 56 57 59 60 59 61 62 62 61 62 62 62
51 52 52 50 50 50 49 49 49 49 49 49 50 49 50 50 50 50 51 51 53 52 50 50 49 49 50 51 51 53 53 53 54 54 54 56 58 60 61 62 62 62
50 50 49 49 49 48 48 48 49 48 48 49 49 49 49 50 49 49 49 50 50 51 48 48 47 47 47 47 48 50 50 51 52 51 52 52 54 56 58 61 62 62
49 50 49 49 49 48 48 48 48 48 48 47 47 48 48 49 48 48 48 48 48 49 47 46 45 45 45 44 45 46 46 48 48 49 50 51 52 53 54 56 59 61
48 49 49 49 49 49 49 48 47 47 47 47 47 48 47 48 48 47 47 47 47 48 46 45 44 44 44 43 43 44 44 45 45 45 46 47 48 50 51 53 54 55
47 47 48 48 49 48 48 49 48 47 47 46 46 47 47 47 46 46 46 46 46 46 46 44 43 43 43 43 43 43 43 43 43 44 44 44 46 47 48 49 50 51
46 46 46 47 47 48 48 48 48 48 47 45 45 45 45 46 45 45 45 45 45 45 45 44 42 42 42 42 42 42 42 42 42 43 42 43 45 45 46 47 48 48
45 45 45 45 46 46 47 47 47 48 48 45 44 44 44 44 44 44 44 44 43 43 43 42 41 41 41 41 41 41 41 42 42 42 42 42 43 44 44 45 47 47
45 44 44 44 44 45 45 45 45 46 47 45 43 43 43 44 44 43 43 43 43 43 42 41 40 40 40 40 40 40 40 41 42 42 42 42 42 43 43 44 45 46
44 44 44 44 43 44 44 44 44 45 46 43 43 43 42 43 43 43 43 42 42 41 41 40 39 39 39 39 39 39 39 40 40 41 42 42 42 43 43 44 45 45
45 44 44 44 43 43 43 43 43 43 44 43 42 41 41 41 42 42 42 41 41 40 40 40 39 39 39 38 39 39 39 40 40 41 42 42 43 43 45 44 45 45
45 45 44 44 44 43 43 43 42 42 42 42 42 41 40 41 40 40 40 39 39 39 40 39 39 39 38 38 38 38 39 39 40 40 41 42 43 43 44 45 45 45
43 44 45 44 44 44 44 43 42 42 41 41 42 41 40 40 40 39 40 39 39 39 39 39 39 39 38 38 38 38 38 39 39 40 41 42 43 44 44 45 45 46
42 42 43 43 43 43 43 43 43 43 42 41 41 40 40 39 39 39 39 39 39 39 39 39 38 38 38 38 38 38 38 38 39 40 41 42 43 43 44 44 44 44
41 42 42 42 42 41 41 42 42 43 43 42 41 40 41 40 39 39 39 38 38 38 38 38 39 39 39 38 38 38 38 38 39 39 40 41 42 42 43 43 43 43
40 41 40 40 40 40 40 41 41 41 41 41 41 41 40 40 39 39 38 38 38 38 38 38 38 39 40 39 39 38 38 39 39 39 39 40 41 41 42 42 42 42
39 39 39 39 40 40 40 40 40 40 40 39 40 40 40 40 39 38 38 38 38 38 37 38 38 39 38 37 37 38 38 38 38 39 39 39 39 40 40 41 41 41
39 39 38 39 39 39 39 39 39 39 38 38 38 39 39 39 38 38 38 38 38 38 38 38 38 39 37 37 37 37 38 38 38 38 39 39 38 38 39 40 40 40
38 38 38 38 38 38 38 38 38 37 38 38 37 39 38 37 37 38 38 38 38 37 38 37 37 38 37 37 37 37 37 38 38 38 38 38 38 38 39 39 39 40
38 38 37 37 37 37 37 37 37 37 37 38 37 37 37 37 37 37 37 37 38 37 38 37 37 38 37 37 37 37 36 37 37 37 38 38 38 38 39 39 39 39
37 37 37 37 37 37 37 36 36 36 36 37 36 36 36 36 36 36 37 37 37 37 38 37 37 38 37 37 37 36 37 37 37 37 37 37 37 38 38 39 38 39
36 36 36 36 36 36 36 35 35 35 36 37 37 35 36 36 36 36 36 36 36 37 37 37 37 37 37 37 37 36 37 37 36 36 36 36 37 37 38 38 38 38
36 36 36 35 35 35 35 35 35 35 35 37 34 35 35 35 36 35 36 36 36 36 37 37 36 37 37 37 37 36 37 36 36 35 35 36 36 37 37 38 37 38
36 36 36 35 35 35 35 35 35 35 35 36 34 34 34 34 37 35 35 36 36 36 37 37 36 37 37 37 37 36 37 36 35 35 35 35 36 36 37 37 37 40
35 35 35 35 35 35 35 35 35 35 36 34 34 34 34 34 37 35 34 35 35 36 38 36 36 37 37 37 37 36 37 36 35 35 35 35 35 36 36 36 36 38
37 38 37 35 34 34 35 35 36 34 34 33 33 33 33 33 34 34 34 34 35 35 36 36 36 37 37 37 37 37 37 36 35 35 35 35 35 35 35 35 36 36

ECMWFNIL_sfc_dewp_099.txt.gz
Dewpoint
53 53 52 51 51 51 51 50 51 51 51 51 51 51 51 51 52 52 53 54 53 51 50 51 50 50 50 51 52 53 53 53 54 54 54 54 55 55 56 56 57 60
53 52 51 51 50 50 49 50 50 50 50 50 50 50 51 51 51 51 51 52 52 50 49 49 48 48 48 48 49 50 50 50 51 50 51 52 53 54 54 54 55 58
51 52 51 51 50 51 50 50 49 49 49 49 50 50 50 50 50 50 50 51 50 49 48 48 47 47 47 47 47 47 47 47 48 48 49 50 51 52 52 53 53 54
51 51 51 51 51 50 50 49 49 48 48 48 48 48 48 49 49 49 49 49 49 48 47 46 46 46 45 45 46 46 46 46 46 47 47 48 49 50 50 51 52 52
49 49 49 50 50 50 50 49 48 47 47 47 48 48 48 47 47 47 47 47 47 46 45 45 45 44 44 44 44 44 45 45 45 46 46 47 48 48 49 50 50 50
49 47 47 48 49 49 48 48 47 46 46 47 47 47 47 46 46 45 45 45 44 44 43 43 43 43 43 43 44 43 44 44 44 45 45 46 47 48 48 48 48 48
48 48 47 47 48 48 48 47 46 46 45 46 45 45 45 45 45 44 44 44 43 42 41 42 42 42 43 43 42 42 42 43 43 44 44 45 46 46 47 47 47 47
47 47 46 46 47 47 46 45 44 44 45 44 45 45 45 44 43 44 43 43 42 41 41 41 41 41 42 42 41 42 42 42 43 43 44 44 45 45 46 46 47 47
46 46 45 45 45 44 44 43 44 44 43 43 43 43 44 44 43 42 42 41 41 41 40 40 40 40 41 41 41 41 41 42 43 43 43 44 44 44 44 46 46 46
45 45 45 45 44 44 44 44 44 43 43 42 42 42 41 42 42 40 41 41 40 39 39 39 39 39 39 39 39 40 40 40 40 42 43 43 43 44 44 45 45 46
44 44 44 44 44 44 44 43 43 43 43 41 42 41 41 41 41 40 40 40 41 39 39 38 39 38 38 38 39 40 39 40 40 41 42 43 44 44 45 45 45 45
45 45 44 44 44 44 43 43 43 42 42 42 41 40 41 41 41 40 40 39 39 38 38 38 38 38 38 37 37 39 40 40 40 41 42 42 43 43 43 44 44 44
44 44 43 44 44 44 44 43 43 43 41 41 41 40 40 40 40 40 40 39 39 39 38 38 38 38 38 38 38 38 39 39 39 41 41 42 42 42 43 43 43 43
44 44 44 44 43 42 42 42 42 42 42 42 42 41 40 39 40 40 40 39 39 38 38 38 38 38 38 37 37 38 39 39 39 41 41 41 42 41 42 43 43 43
44 44 43 42 41 41 41 41 41 42 41 41 41 41 42 40 40 39 39 38 38 38 37 37 38 38 38 38 38 37 38 39 40 40 40 40 40 40 41 41 42 42
42 42 41 41 40 40 40 40 40 40 40 40 40 40 40 41 40 40 38 38 38 37 37 38 38 39 40 39 39 38 38 39 39 39 39 40 40 40 40 41 41 42
40 40 39 39 39 39 39 38 38 39 39 39 40 40 40 40 40 39 38 38 37 37 37 38 38 38 38 37 37 37 39 39 38 37 39 39 39 39 39 40 40 40
38 37 37 37 37 36 37 37 37 37 38 38 39 40 40 40 40 39 38 37 37 36 36 37 38 39 37 37 37 37 38 38 37 37 38 38 39 39 39 40 40 40
37 36 36 36 36 37 37 37 36 36 37 38 38 40 39 39 39 38 37 36 36 36 36 36 38 38 37 37 37 36 37 38 37 36 36 37 38 39 39 39 39 39
36 35 35 36 36 36 36 35 35 36 38 38 38 39 39 39 39 39 37 36 36 36 36 36 37 38 37 37 37 36 36 37 37 36 37 37 38 38 38 39 39 38
35 34 35 35 35 36 35 35 36 37 37 37 37 38 38 38 38 38 37 37 36 36 37 37 37 37 36 36 36 36 36 37 37 37 36 37 38 38 38 38 38 38
34 35 35 34 34 34 34 35 37 38 38 38 37 37 37 38 38 37 37 36 36 37 37 36 37 36 36 36 36 36 36 38 37 36 36 37 37 37 37 38 38 38
34 34 35 35 34 34 34 36 37 37 38 38 37 36 36 37 37 37 36 36 36 36 37 36 36 36 36 36 36 36 36 37 37 35 35 36 37 37 37 37 38 38
35 33 34 34 34 34 36 37 37 37 38 39 37 36 35 36 36 36 37 36 36 36 37 36 36 37 36 36 36 36 37 36 35 35 35 36 36 37 37 36 37 39
36 35 34 34 34 36 38 37 37 38 38 38 37 37 36 35 36 35 36 36 36 36 37 37 36 36 36 36 36 36 36 35 34 34 34 35 35 35 36 36 36 37
38 37 37 36 35 37 38 38 39 38 39 38 37 35 35 35 35 35 36 36 36 36 35 36 36 36 37 36 36 36 36 35 34 33 34 34 34 34 34 35 35 36

ECMWFNIL_sfc_dewp_102.txt.gz
Dewpoint
54 54 53 52 52 52 53 53 52 53 53 53 52 52 52 53 53 53 54 53 53 52 52 52 52 52 52 53 53 53 52 53 53 53 54 54 55 56 55 56 57 56
54 53 52 52 51 51 52 52 52 52 52 52 52 52 52 52 52 52 52 52 51 50 50 51 51 50 51 51 52 51 50 51 51 51 52 53 53 53 54 54 55 55
53 53 52 52 52 52 51 52 52 52 51 51 51 51 51 51 51 51 50 50 50 50 50 50 50 49 49 50 50 50 50 49 49 49 50 50 51 51 52 52 52 53
52 52 52 52 52 51 51 50 51 51 51 50 50 50 50 50 50 49 49 49 49 48 49 48 48 48 48 48 49 48 49 49 47 49 49 49 50 50 51 51 51 51
50 50 50 50 51 51 50 49 49 49 49 49 50 49 49 49 48 48 48 48 47 46 47 46 46 47 47 47 47 47 48 46 47 47 47 47 49 49 50 50 50 50
49 48 48 49 49 49 48 47 47 48 48 49 49 48 48 47 46 46 46 46 44 44 44 44 43 44 45 46 46 46 46 46 46 46 46 46 47 48 48 48 48 48
48 49 49 48 48 48 48 47 47 48 47 48 47 46 46 46 45 45 43 43 42 42 41 42 42 44 44 44 44 44 45 46 46 45 44 45 45 46 47 47 47 47
48 48 47 47 48 47 47 44 44 45 46 46 46 46 46 44 43 44 43 42 42 41 41 41 41 41 43 43 42 43 44 45 46 44 44 44 45 43 45 46 47 46
46 46 46 47 47 47 46 45 46 46 45 46 45 44 43 43 43 43 42 41 41 41 40 40 40 40 42 42 42 42 42 43 44 43 43 43 42 43 42 44 45 45
46 45 46 46 45 45 46 46 45 44 44 44 43 43 41 43 42 41 41 42 41 40 39 39 40 40 40 40 40 41 42 42 42 43 42 42 41 41 41 42 42 44
46 45 45 45 45 46 46 45 45 44 43 41 43 42 42 42 41 41 41 40 42 39 39 39 39 39 39 39 40 42 42 42 42 41 42 41 41 40 42 42 42 42
45 45 44 45 45 45 46 45 44 44 43 43 41 41 42 41 41 41 39 38 38 38 38 38 38 39 38 38 38 40 42 43 42 41 41 40 38 40 39 41 42 42
43 45 45 45 45 45 45 44 43 43 41 41 41 41 40 40 40 40 41 40 39 38 38 39 39 39 38 39 38 39 41 41 42 41 40 40 40 38 39 41 41 41
43 44 44 43 43 42 42 42 41 42 41 41 41 42 41 39 40 40 40 39 40 39 39 40 39 38 38 38 38 40 41 41 41 41 40 40 40 39 40 40 41 42
43 42 41 41 40 41 41 41 41 41 41 40 41 42 43 41 40 40 39 39 39 40 38 39 40 40 38 38 38 38 41 41 41 40 40 39 39 38 40 40 40 41
39 40 39 40 39 39 39 40 40 41 41 41 40 41 41 41 40 40 38 38 38 38 39 40 39 39 39 38 38 38 40 41 41 39 39 39 39 38 39 39 39 40
37 37 37 37 38 38 39 38 38 40 40 40 41 41 41 41 40 39 39 39 38 38 39 40 39 37 37 37 37 38 40 42 41 40 40 39 38 39 38 39 39 38
35 35 35 36 37 36 36 36 38 38 39 40 41 42 41 42 41 40 39 40 40 39 39 39 38 38 36 37 37 37 38 41 41 40 39 38 37 37 38 38 38 39
34 34 35 35 34 35 36 37 37 38 39 40 41 42 42 41 40 40 40 40 40 38 39 38 37 37 36 37 36 36 37 39 39 39 38 37 36 37 38 38 38 38
34 34 34 34 34 35 36 36 37 38 39 40 40 41 41 41 41 41 40 40 40 39 39 38 37 37 36 36 36 36 36 37 39 39 38 36 37 37 37 37 38 38
32 33 33 33 34 35 36 36 38 38 37 37 38 39 40 39 40 41 41 40 39 39 38 39 38 36 36 36 36 36 36 38 40 39 37 37 37 37 37 37 37 38
33 33 33 33 33 34 34 35 37 38 37 38 38 39 39 39 40 40 40 39 39 39 39 38 38 36 36 36 36 36 36 39 38 38 37 35 35 36 36 36 37 37
32 32 33 33 34 34 34 35 36 37 37 36 36 37 38 38 39 39 39 39 38 38 38 37 38 37 36 36 36 36 37 38 37 36 36 35 35 35 35 35 36 36
32 31 33 34 34 33 35 36 37 37 37 37 35 35 35 37 37 37 38 39 38 37 37 37 37 37 36 36 36 36 37 38 35 36 36 34 33 34 35 34 35 39
32 33 33 34 34 36 37 36 36 37 37 36 34 34 35 35 35 35 37 38 39 38 37 37 36 37 36 35 36 36 37 38 34 35 34 33 31 32 34 34 34 36
36 35 35 35 34 37 37 36 36 37 37 36 35 32 33 34 34 35 36 37 39 39 38 37 36 37 36 35 36 36 36 37 36 34 33 33 31 31 32 34 33 33

ECMWFNIL_sfc_dewp_105.txt.gz
Dewpoint
54 54 54 53 53 54 54 54 54 54 53 53 53 53 52 53 53 53 53 52 52 52 51 52 52 52 52 52 53 53 52 53 53 53 53 52 52 53 53 53 54 53
54 53 53 53 52 52 53 53 53 52 52 53 53 52 52 52 52 52 52 51 51 51 50 50 50 50 50 51 52 51 51 52 51 51 52 51 51 52 52 52 52 52
53 53 53 52 52 52 52 53 53 52 52 52 52 52 51 51 51 50 50 51 50 50 49 48 49 49 49 49 50 49 50 50 49 50 51 50 50 50 51 51 51 51
53 53 52 52 52 51 51 52 51 51 51 50 50 50 50 50 50 50 50 49 48 47 47 46 47 47 48 48 48 47 49 48 48 50 49 49 49 48 49 50 50 50
52 52 51 51 50 51 51 50 50 50 50 50 50 50 49 49 49 48 47 46 46 45 45 44 45 46 46 45 46 46 47 47 47 48 47 48 48 48 48 48 48 48
50 49 49 49 50 50 49 49 48 49 49 48 48 48 49 48 46 45 44 44 43 42 42 43 43 44 45 44 45 46 47 46 46 46 45 45 46 47 47 47 46 45
49 49 49 48 49 49 49 48 49 48 47 48 48 48 47 46 45 43 42 43 41 41 40 41 41 43 44 44 44 45 46 46 45 44 43 44 45 45 44 45 44 43
49 49 48 48 48 48 47 46 46 47 48 47 47 45 45 44 43 44 42 42 41 39 39 39 39 41 42 42 42 44 45 45 46 44 43 43 43 42 42 43 45 42
48 48 48 48 47 47 47 47 47 47 46 45 44 44 44 43 43 43 42 40 39 40 38 38 39 39 41 41 42 43 43 44 44 43 43 43 42 41 40 42 42 42
47 47 47 46 47 47 48 47 45 45 44 45 44 43 42 43 43 41 41 41 39 38 37 38 38 38 39 39 40 42 43 42 42 42 42 42 41 40 40 41 40 40
47 46 47 47 47 46 47 46 46 45 44 42 43 42 42 42 41 40 40 39 40 38 37 37 37 37 37 39 40 42 43 43 42 41 42 41 41 41 41 40 40 40
45 46 46 47 47 46 46 45 44 43 43 43 42 41 41 41 41 41 38 37 37 37 37 36 37 37 37 38 39 41 43 43 42 42 41 40 40 40 39 39 40 41
45 46 46 46 45 45 45 43 43 43 42 41 42 41 41 41 40 40 41 39 37 37 37 37 37 38 38 39 39 40 42 41 41 41 40 41 40 39 38 39 39 39
45 44 44 43 43 43 42 43 42 42 42 43 43 42 41 40 40 41 40 39 39 38 37 38 37 37 37 37 38 40 42 41 41 41 41 41 41 39 39 38 38 38
42 42 42 41 41 41 42 42 42 43 42 42 43 43 43 41 40 40 39 38 38 39 37 38 38 38 38 38 38 39 42 41 41 41 41 40 39 38 38 37 37 38
40 40 39 40 40 41 41 42 41 42 43 42 41 41 41 41 40 40 38 38 38 37 38 39 38 38 38 38 38 39 40 43 42 41 40 39 39 38 38 37 38 38
37 36 37 38 40 40 40 39 40 41 41 42 42 42 42 41 41 40 40 39 37 37 37 38 38 36 38 37 37 38 40 42 42 40 39 39 38 37 36 37 37 37
36 36 36 37 37 37 37 37 39 40 41 41 42 42 42 42 42 41 41 41 39 37 37 37 37 38 36 37 36 37 38 40 42 40 40 38 37 36 36 37 37 37
34 34 34 36 36 36 38 38 41 40 41 40 41 42 42 41 41 41 41 41 40 38 37 35 35 37 36 36 36 36 36 39 40 40 38 37 36 35 35 36 37 37
33 32 34 35 36 37 38 37 38 38 41 41 41 42 41 41 41 42 41 40 40 40 39 36 35 36 36 36 36 36 36 37 40 39 38 37 36 35 35 36 36 36
30 32 33 34 36 37 38 38 38 39 39 39 40 40 40 40 40 41 41 40 40 40 40 37 36 36 35 35 35 35 35 39 40 40 38 38 36 35 34 35 36 36
31 32 33 32 33 35 37 37 38 38 39 40 40 39 40 40 40 40 40 40 40 39 39 37 34 35 35 35 35 35 35 40 38 39 37 36 35 34 33 33 34 35
31 32 33 33 33 34 35 37 38 37 37 37 38 39 38 38 39 40 39 39 38 40 40 37 34 35 35 35 35 35 36 39 37 36 36 35 35 34 33 32 38 35
31 31 32 32 33 34 36 37 37 36 36 36 36 36 36 37 38 39 39 38 36 37 39 39 36 36 35 36 35 35 36 38 34 35 36 35 33 34 33 32 39 39
31 32 32 33 34 36 38 37 37 37 36 36 35 35 36 35 36 37 38 39 39 38 39 39 38 38 36 35 36 36 36 37 35 34 36 36 33 31 32 32 32 38
34 35 35 35 35 36 37 37 36 36 36 35 34 33 34 34 35 37 37 38 40 40 39 38 38 39 37 35 36 36 36 37 34 33 34 36 35 30 31 31 32 32

ECMWFNIL_sfc_dewp_108.txt.gz
Dewpoint
56 56 55 55 54 55 55 54 54 54 54 53 52 52 53 54 55 55 54 52 52 52 51 52 51 52 52 52 53 52 52 51 52 52 52 53 52 52 51 51 51 50
55 55 54 54 55 55 54 54 54 53 53 53 52 53 55 54 53 52 52 52 51 50 49 50 50 50 50 51 52 52 52 51 50 51 51 51 51 50 51 51 50 50
54 54 54 53 53 53 53 53 53 53 52 52 53 54 54 53 52 51 51 50 49 49 48 48 49 48 48 49 50 50 50 49 49 50 51 50 50 50 49 50 50 50
53 53 53 53 53 52 52 52 52 52 52 52 51 52 51 51 51 50 49 49 48 47 47 47 47 47 47 47 48 49 49 48 48 49 49 48 49 48 49 49 49 48
52 52 52 51 51 51 52 50 50 51 51 51 51 51 50 50 48 47 47 47 47 45 45 45 46 46 47 47 48 48 48 48 48 47 47 47 48 48 47 47 46 46
51 49 49 50 51 51 50 49 47 48 49 50 51 50 49 47 45 45 44 43 43 43 42 43 43 45 45 45 47 47 47 47 46 46 45 44 45 45 45 46 44 43
50 51 50 49 49 50 49 49 49 48 48 49 48 48 47 46 44 43 42 42 40 40 39 41 41 43 44 45 45 46 46 46 44 44 43 43 43 43 43 43 43 41
50 50 49 49 50 49 49 47 48 49 49 47 47 46 46 44 43 44 42 41 40 38 39 38 39 40 42 43 43 46 45 46 45 43 43 42 44 41 42 43 43 42
49 49 49 49 48 48 48 47 48 47 46 46 45 45 45 44 44 42 41 39 38 38 37 38 38 39 41 42 44 44 43 44 45 43 43 42 41 41 40 41 41 42
48 48 48 48 48 48 47 47 46 46 46 46 44 44 42 44 42 40 40 40 38 37 37 37 38 38 39 40 42 44 43 42 42 43 42 41 41 40 40 40 40 40
47 47 47 48 48 48 47 47 46 46 45 42 44 44 43 43 41 40 39 38 39 36 36 36 37 37 38 39 41 43 44 43 41 42 42 41 42 40 40 39 39 39
47 47 47 47 47 46 46 46 46 45 44 44 42 42 42 42 41 39 37 36 35 35 36 36 36 37 37 38 39 41 43 44 44 43 42 41 41 40 39 39 39 39
47 46 46 46 46 46 46 45 44 45 43 42 43 42 42 41 40 40 40 37 36 36 36 36 36 37 37 38 39 40 41 43 43 42 42 42 41 39 39 39 38 39
46 46 46 45 45 45 44 44 44 44 44 44 43 43 42 40 40 40 40 38 38 36 36 37 36 36 37 37 38 39 41 42 43 43 42 41 41 39 40 38 38 39
44 44 44 44 43 43 44 44 43 44 43 43 43 44 44 41 40 39 38 37 36 37 36 36 36 37 38 37 38 38 39 42 43 43 41 40 39 39 38 38 38 39
41 43 42 43 43 43 43 43 43 44 43 43 42 42 42 42 40 39 36 36 35 35 36 37 36 37 38 38 38 38 39 41 42 43 41 41 39 40 39 38 38 38
39 39 40 40 42 42 43 42 42 43 43 43 43 43 44 43 42 39 37 36 34 35 35 36 37 36 37 36 37 38 39 40 42 44 43 42 39 41 38 38 38 37
38 38 38 39 39 39 40 41 42 42 42 43 44 44 43 43 43 42 40 39 37 35 35 35 35 38 35 36 36 36 38 39 42 43 43 40 41 40 38 39 38 38
37 37 37 38 38 39 40 41 41 41 41 41 42 43 44 43 42 43 42 42 39 36 34 34 33 36 35 36 35 36 36 38 43 44 42 42 40 40 40 40 37 38
36 35 36 37 39 39 41 40 40 41 42 43 43 42 42 42 43 43 43 42 40 37 35 34 34 36 35 35 35 35 35 37 44 45 44 42 38 40 41 38 37 37
33 34 36 38 38 39 40 39 41 42 42 43 43 42 42 41 41 42 43 42 41 38 35 35 36 35 35 35 35 35 35 39 43 44 43 43 41 41 40 38 37 37
34 36 38 37 37 38 38 38 40 41 41 42 42 42 42 41 41 42 42 42 41 39 37 36 36 35 35 35 35 35 35 41 39 40 40 40 41 41 38 38 37 37
33 34 37 37 37 37 37 39 40 40 41 42 41 41 40 40 41 40 40 41 41 41 39 38 37 36 35 35 35 35 36 39 37 36 38 38 38 39 39 39 39 38
33 33 34 36 37 37 38 39 40 41 40 42 41 40 40 41 40 38 37 38 38 40 43 40 38 37 35 35 35 35 36 37 35 34 36 37 37 38 40 38 40 42
34 35 35 36 36 38 39 38 39 39 40 41 41 40 41 40 40 40 40 40 40 40 39 43 40 39 35 35 35 35 36 36 34 33 33 35 36 36 37 39 40 41
36 37 38 37 37 39 40 41 41 42 43 42 42 37 36 37 39 41 42 41 42 42 42 42 40 38 37 35 36 35 36 37 34 32 32 33 35 35 35 35 36 34

ECMWFNIL_sfc_dewp_111.txt.gz
Dewpoint
54 54 54 53 53 53 53 52 52 52 52 51 51 52 52 52 52 51 50 50 50 48 49 49 49 48 50 50 50 50 49 49 50 50 48 49 49 48 49 48 47 49
54 55 54 53 53 53 52 53 52 52 51 52 52 52 52 49 50 50 50 48 48 47 47 47 48 48 47 48 49 49 47 47 47 51 48 47 48 47 47 47 47 48
53 53 53 52 51 51 52 52 51 50 50 51 52 52 51 51 50 49 49 47 46 46 46 46 46 47 47 48 48 47 47 46 46 47 48 47 47 45 45 45 45 45
52 53 52 52 51 51 51 51 51 51 51 51 51 50 51 51 48 47 47 49 45 45 45 45 45 46 46 47 47 47 46 46 46 46 45 45 46 45 44 43 44 43
52 51 51 51 52 52 52 51 51 51 51 50 49 50 49 46 46 44 42 42 43 43 43 42 43 44 46 46 46 45 46 44 45 44 43 43 44 44 44 43 42 41
51 51 51 50 50 50 49 49 50 48 48 48 47 48 45 43 42 42 42 40 41 40 41 41 41 42 44 45 46 45 45 44 44 43 43 42 41 42 43 42 41 40
50 51 51 51 50 50 50 49 49 49 48 48 47 46 45 44 42 40 40 40 39 40 39 40 40 41 42 44 45 45 44 44 43 43 41 42 41 41 41 41 41 40
49 49 49 49 49 48 48 48 48 48 47 46 45 45 43 43 42 41 39 39 38 38 38 39 40 40 41 42 43 44 44 45 44 42 41 40 40 40 41 42 40 39
48 48 49 48 47 47 47 46 45 45 46 45 45 45 44 41 41 39 39 38 38 38 38 38 39 39 40 40 42 42 43 42 43 42 41 40 40 40 40 40 39 39
48 48 47 47 46 46 45 46 46 46 45 43 42 41 40 40 39 38 38 37 37 37 37 37 38 38 39 40 40 42 42 43 42 41 41 40 40 40 39 39 39 38
47 47 47 47 46 46 45 45 44 43 45 43 43 43 42 39 39 38 37 36 37 36 36 36 37 37 38 38 39 40 42 43 42 41 40 40 39 40 43 39 39 38
46 46 46 45 44 44 44 45 45 44 43 44 42 40 40 39 38 38 37 36 35 35 35 36 36 37 37 37 38 39 40 42 43 42 41 40 39 39 39 40 39 38
46 46 46 46 45 45 45 45 44 43 43 42 43 41 40 39 39 38 38 36 35 35 35 36 37 37 37 37 37 38 39 41 43 41 40 41 39 39 38 39 39 39
45 45 44 44 44 44 44 44 44 44 44 45 43 41 40 39 39 38 39 37 36 35 35 37 36 36 37 37 37 38 39 40 41 43 40 39 39 39 39 38 39 40
45 44 45 45 44 43 43 43 43 43 43 43 43 42 41 38 38 37 37 37 36 35 34 35 36 37 37 38 37 37 39 39 41 42 39 39 39 38 37 37 38 39
43 43 42 43 43 43 44 44 43 43 42 42 42 41 39 37 36 36 35 35 35 34 34 35 36 37 38 38 38 38 38 39 41 42 39 39 40 38 38 37 37 38
42 42 43 43 43 42 42 42 42 43 43 43 43 42 40 38 36 35 34 34 34 33 33 35 36 37 38 37 37 38 39 38 40 41 39 38 39 37 37 37 37 37
41 41 41 41 42 41 42 42 43 43 42 42 42 42 42 39 37 36 36 34 34 33 34 35 35 38 36 36 36 37 39 40 40 41 41 37 38 37 37 37 36 37
39 39 40 40 41 41 42 41 41 42 41 42 42 43 42 41 39 37 35 34 34 33 34 34 34 37 36 36 36 36 37 40 41 42 41 36 37 38 37 36 35 36
38 38 39 39 40 41 41 40 40 41 41 41 41 41 41 41 41 39 36 34 34 34 34 34 34 36 35 35 36 36 37 39 39 41 40 37 37 38 37 36 35 34
37 38 38 39 40 40 40 40 40 41 41 41 41 40 40 40 40 39 38 37 35 35 35 33 34 35 35 35 35 36 37 38 36 38 38 38 38 38 37 36 36 36
37 37 39 39 40 40 40 41 41 40 40 41 41 40 40 40 40 41 39 37 37 36 35 32 33 35 35 35 35 35 37 37 34 35 35 36 37 39 37 36 35 34
38 39 39 38 39 39 39 39 39 39 40 40 39 39 38 37 37 37 39 39 38 37 35 33 32 35 35 35 34 35 37 35 33 33 34 34 35 36 38 37 36 34
38 38 38 38 37 38 38 39 39 40 39 40 38 37 36 35 35 36 36 38 38 38 36 33 32 35 35 35 35 35 37 35 32 32 31 33 33 35 37 37 39 41
37 38 37 37 37 38 38 38 38 39 40 39 39 38 37 36 37 36 36 36 36 39 42 35 33 35 35 35 35 35 37 35 33 30 30 31 33 33 35 36 36 39
37 38 37 37 36 37 37 36 37 37 37 38 39 39 38 38 38 37 37 36 38 39 40 36 33 32 34 34 35 35 37 35 35 32 31 32 32 35 34 34 34 34

ECMWFNIL_sfc_dewp_114.txt.gz
Dewpoint
54 53 53 53 53 53 52 51 51 50 50 51 50 50 49 50 49 48 47 47 47 46 47 47 48 48 48 48 48 47 48 48 49 47 46 45 44 44 44 43 42 42
53 54 54 53 53 53 52 51 50 50 51 51 51 50 49 48 48 47 46 45 45 45 46 47 47 47 47 47 47 46 45 45 45 48 44 43 43 42 42 42 41 41
52 52 51 51 51 51 51 51 50 50 51 51 51 49 49 48 47 47 46 44 43 44 44 45 46 47 47 46 45 45 44 44 43 44 45 43 43 42 41 41 41 41
52 51 51 51 51 50 50 50 50 51 51 50 49 49 47 45 43 42 43 47 42 42 43 43 45 45 46 45 44 44 44 44 43 43 43 43 43 41 41 41 41 40
51 51 51 51 51 50 50 50 50 50 49 48 46 45 44 41 41 41 41 41 41 41 42 42 43 44 45 45 44 43 43 42 43 42 42 42 42 42 41 40 39 39
51 51 51 50 50 50 50 50 49 48 45 43 43 43 41 40 40 40 40 40 40 40 41 41 41 42 43 44 44 43 42 42 41 41 41 41 41 41 41 40 39 38
50 50 50 50 49 49 48 48 48 47 45 44 43 41 40 39 39 39 39 39 39 41 39 40 40 41 42 43 43 43 43 42 41 40 40 41 42 40 40 39 40 38
50 50 50 49 48 48 47 46 45 45 44 42 41 40 39 39 38 39 38 38 38 38 39 39 40 40 41 42 42 42 43 43 41 40 40 40 40 39 39 40 39 38
49 49 48 47 47 45 44 44 44 43 42 40 39 39 39 38 38 37 38 37 37 38 38 38 39 39 40 41 41 42 42 41 41 40 40 39 39 39 38 39 38 39
48 47 47 46 45 44 44 44 43 42 41 39 39 38 37 38 37 36 37 36 37 37 37 37 38 38 39 39 40 41 42 41 40 40 40 39 39 38 38 38 38 38
47 46 45 45 45 45 44 44 43 42 41 39 38 37 37 37 37 36 35 36 36 36 37 37 37 37 38 38 39 40 42 42 40 39 39 40 40 41 43 38 39 38
46 45 44 44 44 43 43 43 42 41 40 39 38 37 37 36 35 35 36 35 35 36 36 37 37 37 37 37 38 39 41 42 41 40 39 39 39 39 39 40 39 38
44 44 44 44 44 43 43 42 41 40 39 39 39 38 37 36 35 35 36 34 35 36 36 37 37 37 37 37 38 39 40 41 41 39 39 39 38 38 39 39 39 39
44 44 44 44 44 43 42 42 41 41 40 40 39 38 38 37 36 35 35 35 35 36 37 39 37 37 37 37 38 38 39 39 40 40 39 38 38 38 39 39 39 39
44 44 44 44 43 43 43 43 43 42 40 40 39 39 39 37 36 35 34 34 34 35 35 36 37 37 38 37 37 38 37 38 39 40 39 38 37 37 37 38 38 39
44 44 43 43 42 42 42 42 41 40 39 38 37 36 35 36 35 34 33 33 33 34 35 36 36 37 39 38 39 38 37 38 39 40 39 39 38 37 37 37 37 36
43 43 43 43 43 42 42 41 40 39 37 36 35 35 35 35 33 33 33 33 33 33 34 35 36 37 38 37 38 40 39 38 38 40 39 39 38 36 35 37 36 37
43 43 42 42 42 41 42 41 40 39 38 36 35 34 35 34 33 33 33 33 33 33 34 35 35 38 37 37 37 38 41 40 39 39 39 38 37 36 35 36 34 34
42 42 41 41 41 42 42 41 40 40 39 37 36 36 34 33 33 33 33 33 33 33 33 34 34 37 37 37 37 37 38 39 38 39 38 37 37 36 35 34 34 35
41 41 41 41 41 41 41 41 41 41 41 40 39 37 34 34 33 33 33 33 33 33 33 34 34 37 36 37 37 36 36 37 37 37 38 38 37 36 35 34 33 33
41 41 41 41 41 41 41 41 41 41 41 40 39 37 35 34 34 34 35 35 33 33 33 33 34 36 36 36 36 36 36 36 36 36 37 37 37 37 36 35 34 33
40 40 41 40 40 40 40 40 40 40 40 40 40 39 38 37 36 36 35 34 34 32 31 31 32 35 35 36 36 36 36 35 35 34 35 35 35 36 37 36 36 34
40 40 40 40 40 40 40 40 40 40 39 40 39 39 38 37 36 36 36 35 34 32 31 29 31 34 35 35 36 36 35 33 33 34 34 34 34 35 35 37 36 38
39 40 40 40 39 39 40 40 39 39 39 39 37 37 37 37 37 37 36 36 34 31 31 30 29 34 35 35 36 36 36 32 32 32 32 33 33 33 35 34 36 40
39 39 39 39 39 39 39 39 39 39 39 37 36 36 36 37 38 37 36 35 35 33 38 32 30 34 35 35 35 36 36 32 32 31 31 31 32 33 33 34 33 36
39 40 39 39 39 39 39 39 39 39 37 36 35 35 35 35 36 35 35 36 37 36 36 32 30 30 34 35 35 36 36 34 32 31 32 30 31 35 34 32 32 32

ECMWFNIL_sfc_dewp_117.txt.gz
Dewpoint
55 55 54 53 52 52 51 51 50 49 48 48 47 47 47 47 47 46 47 47 47 46 47 46 46 46 46 45 45 45 45 44 43 42 41 42 40 40 40 39 39 39
54 54 54 53 52 52 51 51 50 49 48 48 48 47 46 45 45 45 44 45 45 45 46 46 46 45 45 44 44 43 43 43 42 44 41 40 39 39 39 39 39 39
53 53 52 51 51 51 51 51 50 49 48 48 47 46 46 46 44 44 44 44 44 44 45 45 44 44 44 43 43 43 42 42 41 41 41 39 39 39 39 38 38 39
52 52 52 51 51 50 51 50 49 48 47 45 44 44 44 44 42 42 43 46 43 43 44 44 44 44 43 43 43 42 42 42 42 41 40 40 40 39 39 39 40 38
51 51 51 51 51 51 50 49 48 46 44 43 42 43 43 41 41 41 42 42 42 42 42 43 43 44 43 42 42 42 42 41 41 40 40 40 40 40 40 39 38 37
51 51 51 50 50 50 49 47 44 42 41 41 41 42 40 40 40 41 41 41 41 41 42 42 42 43 43 42 41 41 41 40 40 40 39 39 39 40 39 38 37 37
51 51 50 50 50 49 46 44 43 42 41 40 40 39 39 39 40 40 40 41 41 42 41 41 41 42 42 42 41 40 40 40 40 40 39 39 40 39 39 38 38 36
50 50 50 49 48 46 45 43 42 41 40 39 38 39 39 39 39 40 40 40 40 40 40 40 41 41 42 42 41 40 40 40 40 39 38 38 38 38 38 38 37 36
49 49 48 47 45 44 43 41 40 39 39 38 38 38 39 38 38 38 39 39 39 39 39 40 40 41 41 41 41 40 40 40 40 38 38 38 37 37 37 37 36 37
48 47 45 44 43 43 41 40 39 39 39 37 37 37 37 38 37 38 38 38 38 38 38 39 39 40 40 41 40 40 39 39 39 38 38 38 38 38 38 37 36 36
46 45 44 44 43 41 40 39 38 38 38 36 36 36 36 37 38 38 37 37 38 37 38 38 38 39 40 40 41 40 39 39 39 39 39 39 39 39 42 37 38 35
45 44 44 43 42 41 39 39 38 37 37 37 36 35 36 36 36 37 38 36 37 37 37 37 38 38 39 40 40 40 40 39 39 39 39 39 38 38 38 39 37 36
45 44 44 43 42 41 40 38 37 37 36 36 36 35 35 35 35 36 37 36 36 37 37 37 37 38 38 38 39 39 39 38 38 38 38 38 37 38 38 38 37 38
45 44 43 42 41 40 39 38 38 37 37 37 36 35 35 35 35 36 37 36 37 37 38 39 37 37 37 37 38 39 40 38 38 38 38 37 37 37 38 38 38 38
44 44 43 43 41 40 39 39 38 38 38 37 37 37 37 35 35 35 35 35 35 36 36 37 38 38 37 37 38 38 38 39 38 38 37 37 36 36 36 36 36 36
44 44 42 42 41 40 40 39 38 38 37 36 35 35 35 35 34 35 34 34 35 35 36 36 37 37 40 41 43 39 37 39 39 38 37 37 37 35 34 36 36 35
43 42 42 42 41 41 40 39 38 37 35 34 34 34 34 36 33 33 34 34 34 34 35 36 36 37 39 38 40 41 39 39 39 38 37 36 35 34 33 37 36 35
42 42 42 42 41 40 39 37 35 34 33 33 33 33 34 33 33 33 33 34 34 34 35 35 36 39 38 38 39 40 41 41 39 39 38 36 35 34 34 36 34 34
42 42 42 42 41 39 38 35 33 33 33 32 33 34 33 32 32 33 33 33 33 34 34 35 35 38 37 38 38 38 39 40 38 38 37 36 35 34 34 33 33 35
42 41 41 41 40 39 37 35 33 33 33 34 34 34 32 32 32 32 32 33 33 34 34 34 34 37 37 37 37 37 37 38 37 37 36 35 35 34 34 34 33 33
43 42 41 41 40 39 37 36 35 35 34 34 33 32 32 32 32 32 33 34 32 32 33 33 34 37 36 36 36 36 36 37 37 37 36 35 35 36 35 34 34 34
43 42 42 41 41 40 39 38 37 36 34 35 35 34 33 34 33 33 32 31 31 31 31 31 32 36 36 36 36 36 36 36 35 35 34 34 34 34 34 35 35 34
42 42 42 41 41 40 39 39 38 37 37 37 35 35 34 33 32 32 32 31 32 31 30 29 30 35 36 36 35 35 35 34 34 34 33 32 32 33 33 34 34 35
41 41 40 40 40 39 39 39 39 38 38 38 35 35 34 34 34 33 31 32 30 29 30 30 29 34 36 36 36 36 35 32 32 32 31 32 31 32 33 32 34 38
41 41 40 40 40 40 39 39 39 39 39 38 36 36 35 35 36 33 32 30 30 31 38 31 29 34 35 36 36 36 35 31 32 31 31 29 30 31 32 32 32 35
41 41 40 40 39 39 39 39 39 39 38 37 36 36 36 35 35 34 32 31 32 33 34 30 29 29 34 36 36 36 36 34 31 31 31 29 29 35 33 31 31 31

ECMWFNIL_sfc_dewp_120.txt.gz
Dewpoint
57 56 55 52 52 52 51 50 49 48 48 48 47 47 47 48 49 48 48 48 47 47 47 47 46 46 45 44 43 42 42 42 41 40 40 41 40 40 40 40 41 40
56 56 54 53 52 52 51 50 49 48 47 47 47 47 47 46 47 46 46 46 46 46 46 45 45 44 43 43 42 41 40 40 40 41 39 39 40 40 40 40 40 40
55 54 52 51 51 51 50 49 48 47 47 46 46 46 46 46 45 45 45 45 45 45 45 45 44 44 43 42 41 40 39 39 39 40 41 40 40 40 40 39 39 39
53 53 52 51 51 50 49 48 48 47 46 45 45 45 46 46 45 45 46 47 44 44 44 44 44 43 42 42 41 40 40 40 40 40 40 41 41 40 39 39 39 38
52 52 51 51 51 50 48 47 45 45 44 44 45 45 45 44 43 43 44 44 44 44 44 43 43 43 42 41 41 40 41 40 40 40 39 40 40 40 39 39 38 38
52 52 51 51 50 49 47 45 44 43 43 43 44 44 43 43 43 43 43 43 43 43 43 43 42 42 41 41 40 40 40 39 39 39 38 38 39 39 38 38 37 37
52 52 52 51 49 46 44 43 43 43 42 43 42 42 42 42 42 42 42 43 42 43 42 42 41 41 41 41 40 40 40 40 40 39 38 39 39 38 38 38 37 36
51 52 51 49 45 44 43 42 41 41 42 41 41 41 41 41 41 42 42 41 41 41 42 41 41 41 41 40 40 40 40 40 39 39 38 38 38 37 38 38 37 36
51 50 48 45 43 42 41 41 41 41 41 40 40 40 41 40 41 41 41 41 41 41 41 41 41 41 41 40 40 39 39 39 40 39 38 38 37 37 36 37 37 38
49 47 45 44 42 41 40 40 40 40 40 39 39 40 39 41 40 40 40 40 40 40 41 41 41 41 40 39 39 39 39 39 39 39 39 38 37 37 36 37 36 37
46 45 43 42 41 40 40 39 39 39 39 38 38 39 39 40 41 40 39 40 40 40 40 40 40 40 40 40 40 39 39 39 39 39 39 39 39 41 42 38 39 38
45 43 42 40 40 39 39 38 38 38 38 39 38 38 38 39 39 39 40 38 39 39 39 40 40 40 40 39 39 40 40 40 41 40 40 39 39 39 39 40 39 39
44 42 41 40 39 38 38 37 37 37 37 37 38 38 38 38 38 38 39 38 38 39 39 39 40 40 40 40 39 39 39 39 39 39 39 40 39 39 40 40 40 40
44 41 40 39 38 38 37 37 37 37 37 38 38 37 37 37 37 38 39 38 39 39 39 41 39 39 39 39 39 39 39 38 39 39 39 39 39 39 40 39 39 38
42 41 41 40 38 37 37 37 37 37 37 37 38 38 39 37 37 37 37 37 38 38 38 39 39 39 39 39 39 39 39 39 39 39 39 38 37 37 37 37 36 37
42 41 39 38 37 37 37 37 37 37 36 36 36 36 36 37 36 37 37 37 37 37 38 39 39 40 42 42 41 40 39 39 39 39 38 38 37 36 36 37 36 35
41 40 39 38 38 38 37 37 36 36 35 35 35 35 36 38 35 35 36 36 37 37 37 38 39 41 41 39 40 41 40 39 39 39 38 37 36 35 36 38 36 35
41 40 39 39 38 37 36 35 35 34 34 34 35 35 36 35 35 35 35 36 36 36 37 38 39 41 39 39 39 40 40 41 39 38 38 37 36 36 37 38 37 36
41 40 40 40 39 37 36 35 35 35 35 34 34 35 34 34 34 35 35 35 36 36 37 38 38 39 39 39 39 39 39 40 39 38 37 37 37 36 36 36 35 36
41 41 40 39 39 38 37 37 36 35 34 35 35 35 33 33 34 34 34 35 35 36 36 36 37 39 38 38 39 38 38 39 38 38 38 37 37 37 37 37 36 37
41 40 40 39 36 35 35 34 36 35 34 34 33 33 33 33 33 33 35 36 35 35 35 36 37 37 37 37 37 38 37 38 38 38 38 38 38 38 38 38 37 37
41 41 41 39 38 36 35 35 35 34 33 34 34 33 34 34 34 34 34 33 34 34 34 34 36 36 36 37 37 37 38 39 38 37 37 37 37 36 36 37 37 37
42 41 41 39 37 36 35 35 35 35 35 35 33 33 33 32 33 33 33 32 34 33 33 33 35 36 36 36 36 36 37 36 37 36 36 36 35 36 35 36 36 38
42 41 40 39 37 35 36 34 33 34 34 35 32 32 32 32 33 32 32 34 32 31 32 32 33 37 36 36 36 36 37 35 35 35 35 35 34 35 35 36 36 39
43 42 40 39 38 38 35 34 34 34 36 36 34 33 33 34 36 32 32 31 31 33 37 33 33 37 36 36 36 36 37 34 34 33 33 32 33 35 36 34 34 36
42 42 41 39 38 37 37 35 36 37 36 35 35 35 35 35 34 32 31 32 35 35 35 32 32 34 37 36 36 36 35 35 33 33 33 32 32 38 34 33 33 33

ECMWFNIL_sfc_dewp_126.txt.gz
Dewpoint
63 61 60 60 61 61 61 58 58 57 56 56 55 55 56 56 56 56 56 55 54 53 52 51 50 49 47 46 46 44 45 47 46 47 47 46 46 48 47 47 47 44
63 62 61 60 59 60 60 59 57 56 56 55 55 55 56 56 56 55 55 54 53 51 50 49 48 46 46 45 46 45 44 45 45 44 45 45 45 47 47 47 45 45
62 61 60 59 58 58 57 56 56 55 54 54 55 55 55 55 55 53 53 51 50 50 49 48 47 46 45 46 45 45 45 45 45 45 45 45 45 46 46 45 44 45
61 60 59 59 58 57 56 55 55 54 54 53 54 54 54 54 54 53 52 51 50 49 48 47 46 44 44 44 45 44 45 44 44 45 45 45 45 44 45 45 44 44
60 59 59 58 57 55 56 54 53 53 53 53 54 54 53 53 53 51 51 50 49 47 46 45 45 44 43 44 44 44 44 43 44 44 43 44 45 45 44 44 44 43
60 58 57 56 56 55 54 52 51 52 52 53 54 53 53 52 51 50 49 48 46 45 44 44 42 42 42 43 44 44 43 42 43 43 41 42 43 43 42 42 41 41
59 58 57 55 54 54 53 52 52 51 51 52 52 53 52 51 50 49 47 46 44 43 42 42 42 42 43 43 43 42 42 42 41 39 38 40 41 42 40 40 38 37
59 58 55 54 54 53 53 51 50 51 52 51 53 52 51 49 48 48 47 45 43 42 41 39 39 40 41 41 40 43 43 42 42 39 38 39 41 39 41 40 41 38
57 55 54 54 54 52 51 50 51 51 51 52 51 50 50 49 48 47 45 44 43 42 38 38 38 38 41 40 41 41 40 42 41 40 40 40 39 38 37 40 40 41
55 55 55 55 53 52 51 51 50 50 50 51 50 49 47 49 48 46 45 44 42 39 37 37 38 39 39 37 37 39 39 39 39 40 39 38 39 37 37 38 38 39
54 53 53 53 52 51 51 50 50 50 50 49 50 49 48 48 47 45 44 42 43 38 37 37 37 37 37 38 39 40 39 39 38 38 40 39 40 39 39 38 39 39
53 53 52 51 51 50 49 49 49 49 49 50 48 47 48 47 46 44 42 41 39 37 36 35 35 36 36 36 37 39 40 40 40 40 39 38 39 39 38 39 40 39
52 52 51 50 50 49 49 48 48 49 48 48 47 47 46 46 44 43 43 40 38 38 36 36 36 36 37 37 36 37 39 39 40 40 40 40 39 37 37 39 40 39
51 50 50 49 48 48 47 48 48 48 48 48 47 46 45 44 43 43 43 40 40 38 37 37 37 36 36 36 36 38 40 40 40 41 40 40 40 38 39 39 39 38
49 49 48 47 46 46 47 47 47 48 48 47 47 46 46 44 44 43 42 40 40 40 37 38 39 39 37 37 38 37 40 40 40 39 40 39 38 38 38 38 37 37
47 47 46 46 45 46 46 47 47 48 48 47 46 46 45 44 44 44 41 41 40 39 39 41 40 40 42 42 41 39 40 41 41 40 38 38 38 39 38 38 37 37
46 46 45 44 45 45 46 46 47 48 47 46 46 46 46 45 44 42 42 42 41 41 41 41 41 41 40 38 39 39 42 41 40 39 38 39 39 39 39 39 38 36
45 44 44 44 45 44 45 45 46 46 46 45 46 47 46 46 45 43 43 43 42 41 42 42 42 43 38 38 39 38 40 41 40 40 40 39 38 38 38 38 39 38
45 44 44 44 44 44 44 45 44 44 44 45 46 47 46 46 44 44 44 43 43 41 42 41 41 38 38 38 38 38 38 41 38 41 40 39 38 38 38 38 38 37
45 44 44 44 44 44 44 43 43 43 45 45 46 47 46 45 46 45 45 44 43 42 42 41 41 39 38 38 38 37 37 38 40 41 41 38 38 39 39 38 38 38
46 45 45 44 43 43 43 42 42 44 44 44 45 45 46 46 46 47 46 45 44 46 43 41 42 38 38 38 38 37 37 38 42 42 40 40 40 40 39 39 38 39
46 46 44 43 43 42 42 41 43 44 44 47 47 48 48 48 48 47 46 46 43 42 42 42 46 37 38 38 38 37 38 40 41 41 41 40 39 39 38 37 37 38
45 44 43 42 42 41 41 42 44 45 45 45 45 45 44 44 45 44 43 42 43 43 43 43 45 40 38 38 38 37 38 39 42 39 39 40 39 37 36 36 38 37
43 41 41 41 41 40 41 42 42 43 43 44 43 43 43 42 43 42 43 42 43 42 43 43 42 41 38 38 38 37 39 40 40 39 40 39 38 38 37 35 34 43
41 41 40 40 40 40 42 41 41 41 42 43 42 43 42 42 42 41 42 43 43 43 45 44 43 42 37 37 38 38 40 42 40 37 38 39 36 35 37 35 34 38
42 41 41 40 39 40 39 38 38 38 40 39 38 37 38 40 40 40 42 42 43 43 45 44 44 43 41 37 37 38 38 43 41 37 37 38 36 32 34 35 36 36

ECMWFNIL_sfc_dewp_129.txt.gz
Dewpoint
64 64 64 63 62 63 63 62 61 61 61 61 59 58 57 58 56 56 55 55 54 53 51 50 49 48 47 47 48 46 46 48 48 49 49 49 49 48 47 47 47 45
64 64 63 63 62 62 64 63 61 62 61 60 58 58 58 57 57 55 54 54 53 51 49 48 47 46 47 47 46 46 45 46 45 45 47 47 47 48 47 47 46 45
64 63 63 62 61 61 62 62 60 60 59 57 57 57 56 56 56 54 54 53 51 50 49 48 47 46 45 46 46 46 47 46 46 46 47 46 46 47 47 46 46 46
63 63 62 62 61 61 61 60 60 59 58 57 56 56 55 55 54 53 52 51 50 49 49 47 47 45 45 45 46 45 46 45 45 46 46 47 47 46 46 46 45 45
63 62 62 61 61 60 59 58 58 58 57 56 56 56 55 54 53 51 51 50 50 48 48 46 46 45 45 46 45 45 45 45 46 46 45 45 46 45 45 45 44 43
63 61 60 60 60 59 58 56 55 55 55 55 55 54 54 53 52 51 51 50 47 47 45 44 44 44 45 45 45 45 44 44 45 44 43 43 43 44 44 44 44 43
61 61 60 59 59 58 57 55 55 54 54 55 54 55 54 52 51 50 48 47 45 44 42 43 43 44 44 44 44 44 43 43 41 40 40 41 41 42 40 41 39 39
61 61 60 59 59 56 55 53 54 55 55 54 55 54 53 51 49 49 47 45 43 41 42 41 42 42 43 44 42 43 44 43 42 40 40 41 42 40 42 41 42 39
60 59 59 59 57 56 53 53 54 54 54 54 54 53 52 50 49 48 45 44 42 42 39 40 40 41 43 43 43 43 41 43 42 41 42 41 41 40 38 40 41 42
59 59 58 58 56 54 54 53 53 53 53 54 54 52 49 50 49 46 45 44 41 39 38 38 40 41 41 41 39 40 41 41 40 41 41 40 39 39 39 40 40 40
59 58 57 56 55 54 54 53 53 53 54 53 53 51 50 49 47 45 44 41 41 38 37 38 40 39 38 39 41 42 41 40 40 40 41 41 42 41 40 40 41 40
58 58 56 55 54 54 53 53 53 53 53 53 52 50 49 48 46 44 42 39 37 36 37 37 37 38 37 38 38 40 41 41 41 42 41 40 40 40 40 41 41 39
58 58 57 56 54 53 53 52 52 52 52 50 50 49 48 47 44 43 43 38 37 37 36 37 37 37 38 39 39 39 41 41 42 41 41 42 40 39 39 40 39 38
58 58 57 55 53 52 51 51 51 51 51 50 49 48 47 45 43 42 42 39 39 37 37 38 38 37 37 38 38 40 41 41 42 42 42 41 41 40 41 40 38 38
56 55 55 53 51 50 50 50 50 51 50 49 49 48 47 45 43 42 40 38 38 39 37 38 39 39 37 38 38 39 41 41 41 41 42 40 39 40 40 39 38 37
53 53 52 51 50 50 50 50 50 50 50 49 48 47 45 45 43 42 40 40 39 37 38 40 40 41 49 43 43 40 41 42 42 42 41 39 39 40 39 37 35 35
51 51 50 50 50 49 50 49 49 50 50 49 48 47 46 45 44 41 42 40 39 38 39 41 41 41 39 38 38 40 43 42 41 41 40 40 40 40 39 38 35 30
50 50 50 50 49 49 48 48 49 50 50 48 48 47 47 46 45 43 43 42 41 40 42 42 43 41 37 38 37 37 42 49 41 40 41 40 39 39 39 39 39 39
50 49 49 49 49 48 49 49 49 50 49 48 47 48 47 46 44 44 44 43 43 41 42 42 44 38 37 38 37 37 38 43 39 40 40 40 39 39 38 38 37 38
51 50 49 49 49 48 49 49 50 49 49 49 47 48 47 46 46 45 45 45 43 43 44 44 44 39 37 38 37 36 37 39 40 41 41 39 39 40 40 40 38 37
49 49 49 49 48 48 49 50 50 49 48 48 47 46 46 46 45 45 45 45 45 44 46 47 43 38 37 37 37 36 36 38 43 43 41 40 40 40 40 40 40 40
50 50 50 49 49 49 50 49 49 48 48 48 47 46 45 45 45 46 45 45 45 45 44 42 42 37 36 36 37 36 36 40 43 42 41 39 40 41 39 38 39 39
51 51 51 51 50 50 49 48 48 47 47 47 46 45 44 45 46 46 46 45 45 44 43 43 40 38 36 36 36 36 37 39 42 40 40 39 39 39 38 38 39 38
52 50 50 50 49 48 48 48 47 47 47 46 44 44 46 46 45 44 45 45 45 44 43 44 40 39 36 36 36 36 39 40 41 38 41 40 39 39 37 37 36 38
52 51 50 49 48 47 48 47 46 46 47 47 45 45 46 46 45 44 44 44 43 43 45 46 43 40 37 36 36 37 39 39 41 37 40 39 38 35 39 35 30 31
50 50 49 47 46 47 47 46 46 46 45 43 43 40 39 41 41 40 42 42 43 44 44 45 44 40 40 37 37 37 37 40 41 39 39 39 37 32 38 35 29 30